GFSMA_850_thetae_000.txt.gz
Theta_e
328 329 331 328 327 327 327 325 323 317 312 311 310 311 310 308 306 305 305 307 308 310 313 317 319 319 320 322 325 326 326 326 325 324 323 322 323 323 323 323 325 324 324
331 333 330 329 327 326 325 318 310 309 310 310 308 306 304 304 304 304 305 307 309 311 311 312 313 314 314 317 319 319 321 323 322 320 319 318 317 316 315 316 320 323 323
329 326 326 326 325 316 309 309 308 307 306 304 303 303 303 303 303 304 306 307 308 310 310 310 310 309 309 310 311 313 314 315 314 313 312 313 313 313 314 314 315 317 319
328 327 326 322 308 309 308 307 306 305 304 303 303 302 302 302 303 304 304 304 305 306 305 305 305 305 304 304 304 306 306 308 308 308 309 309 309 308 310 311 312 312 314
325 323 317 308 309 309 308 306 303 302 302 302 302 302 302 302 302 304 302 300 299 299 298 300 299 298 297 297 298 298 298 299 299 302 306 306 305 308 308 309 310 309 309
321 307 308 309 310 308 306 303 301 301 300 300 301 301 301 300 302 305 300 301 298 299 298 298 298 296 296 296 297 296 297 297 297 305 302 304 307 308 309 309 309 310 310
307 309 310 311 310 308 305 302 301 300 300 300 300 300 299 299 299 298 299 302 298 298 297 296 296 296 295 295 295 295 295 295 297 303 302 305 305 306 307 307 308 308 308
309 311 312 311 310 308 305 302 300 299 298 297 295 295 295 297 298 298 297 298 297 296 295 295 295 295 295 295 295 294 294 294 295 298 303 304 305 305 305 305 305 306 306
310 312 311 310 309 308 306 302 299 298 296 294 293 293 293 292 292 294 295 295 294 294 293 294 294 294 293 293 293 293 292 292 293 299 301 302 302 303 302 303 303 304 304
312 311 310 309 308 307 304 301 298 296 293 292 292 293 292 291 290 291 292 294 292 292 293 293 293 292 293 292 291 291 291 291 295 297 298 299 300 300 301 301 302 303 303
311 310 309 308 307 306 303 300 296 293 292 292 292 292 291 291 290 289 289 291 292 292 292 291 291 291 291 290 290 291 291 293 294 295 296 297 297 298 299 300 300 301 301
310 309 307 307 306 304 301 298 294 292 292 292 292 291 290 289 289 288 287 288 288 289 290 291 290 290 289 289 289 289 290 292 292 293 294 295 296 297 297 298 298 299 299
309 307 306 306 305 302 299 295 292 291 292 292 292 291 290 290 289 288 288 288 287 288 288 287 288 288 288 288 288 289 289 291 291 291 292 293 294 294 295 295 296 296 296
307 306 305 305 303 300 296 293 292 292 292 292 291 290 290 289 289 288 287 286 286 286 286 286 287 288 287 287 288 289 288 288 289 289 290 291 292 292 292 292 293 294 294
306 305 305 303 301 298 294 292 292 293 292 291 291 290 290 289 288 287 287 286 285 285 285 286 287 286 286 287 287 287 287 287 288 288 289 290 290 290 289 290 290 290 291
305 304 304 302 299 295 292 292 293 292 292 292 291 290 290 288 287 286 286 285 285 285 285 285 285 286 286 285 286 287 287 287 286 287 288 288 287 287 287 288 289 290 291
304 304 303 300 296 293 292 292 292 292 292 292 291 290 288 287 286 285 285 285 285 285 285 285 285 285 285 285 286 286 286 286 286 286 286 286 286 286 287 288 289 290 291
304 303 301 297 293 292 292 292 292 293 292 291 289 288 287 286 285 285 285 285 285 285 286 285 285 284 284 286 286 285 286 285 284 284 284 285 285 285 286 287 288 288 289
303 301 298 294 292 292 292 292 292 292 291 289 287 286 285 284 284 284 284 285 285 285 285 285 284 285 286 286 285 285 284 283 283 283 283 283 284 285 286 286 286 287 288
301 298 294 292 292 292 292 292 291 290 289 287 285 284 284 283 283 284 284 285 285 284 284 285 285 285 286 285 284 283 282 283 283 283 283 283 283 283 284 284 285 285 285
297 294 292 291 291 291 291 291 289 288 286 285 284 284 283 283 283 284 285 284 284 285 286 287 286 285 284 283 282 282 282 282 283 282 282 282 282 282 282 282 282 283 283
294 291 290 290 290 290 290 289 287 285 285 284 284 283 283 283 283 284 283 284 286 286 285 284 284 283 282 282 282 283 283 282 282 282 282 282 282 282 281 281 282 283 284
291 290 289 289 289 290 290 287 285 284 284 284 284 284 284 284 283 283 284 285 285 284 283 283 282 282 282 283 283 282 282 282 282 282 281 281 281 281 281 282 282 282 283
290 289 288 288 289 289 287 285 283 283 284 284 284 284 284 283 283 284 285 285 284 283 282 281 282 282 283 282 282 282 282 282 281 281 280 281 281 281 281 281 282 282 283
288 287 287 289 289 287 284 284 283 284 284 284 284 284 283 283 283 285 285 284 283 282 282 283 282 282 281 281 281 282 281 280 280 281 281 280 280 280 281 281 282 282 283
286 287 288 288 285 284 284 283 283 284 284 284 285 284 283 283 284 284 284 282 282 281 283 282 281 282 282 282 282 281 281 280 280 280 282 280 281 281 281 282 282 283 283

GFSMA_850_thetae_003.txt.gz
Theta_e
328 330 330 328 327 326 326 325 322 314 309 308 308 308 306 305 304 304 304 305 306 308 311 315 316 317 320 322 323 323 324 326 326 325 324 323 323 323 323 323 322 322 323
330 330 329 328 327 326 324 314 308 308 307 306 304 304 303 303 303 304 304 306 307 309 310 311 312 312 313 316 317 318 319 320 321 320 319 319 319 318 317 317 316 314 315
329 329 327 326 325 318 308 308 308 307 305 303 303 303 303 303 303 303 304 305 307 308 309 309 310 310 309 309 310 311 312 314 314 314 314 314 314 313 313 313 312 312 313
329 328 326 325 312 309 309 308 306 304 302 302 302 302 302 302 301 302 302 301 301 302 301 301 301 302 301 301 301 301 302 304 306 306 306 307 307 307 307 308 309 309 311
327 325 323 310 309 309 308 306 303 301 301 301 302 301 302 301 301 302 303 302 300 298 299 298 298 299 297 296 296 297 297 297 298 298 301 306 303 303 305 308 309 309 309
325 320 307 309 310 310 308 305 302 301 300 301 301 300 300 299 300 302 304 299 299 300 298 297 297 296 296 296 296 296 295 296 296 297 306 306 305 307 309 309 309 310 310
321 306 309 311 312 311 309 306 303 301 300 300 299 299 298 299 298 298 299 298 297 297 296 296 296 296 296 296 295 295 295 295 295 295 305 305 306 307 307 307 307 308 308
306 309 312 312 311 310 309 308 305 301 298 297 295 295 296 297 298 297 297 297 296 296 296 296 296 295 295 295 295 294 294 294 294 295 301 303 304 305 306 306 306 306 306
308 311 312 311 310 309 308 307 305 300 297 294 294 294 293 293 293 297 297 296 296 296 295 295 295 294 294 294 294 293 293 293 292 296 300 301 302 303 303 304 304 305 305
310 312 311 309 308 308 307 305 302 298 294 293 294 294 293 291 290 292 292 293 293 294 295 294 294 293 293 293 292 292 292 291 295 297 299 300 300 301 302 302 302 303 303
310 311 310 308 307 307 306 304 300 295 293 293 293 293 293 292 291 289 290 292 293 294 293 292 292 292 291 291 290 290 289 292 293 296 297 297 299 300 299 300 301 301 302
310 310 308 307 307 306 305 302 298 294 293 293 293 292 291 291 290 289 288 289 289 290 291 291 290 289 288 289 288 287 289 291 293 294 295 296 296 297 298 299 299 300 300
309 309 307 306 306 305 304 300 296 293 293 293 292 292 292 291 291 290 289 288 287 288 287 287 287 287 288 287 287 288 289 290 290 291 292 293 294 294 295 295 296 296 297
308 308 306 306 305 304 302 298 295 293 293 292 292 292 292 291 290 289 288 287 286 287 287 287 287 287 287 287 287 288 288 288 288 289 290 291 291 291 291 293 293 294 294
307 307 305 305 304 302 299 296 294 293 292 292 293 293 292 290 289 288 287 286 285 286 286 286 287 286 286 287 287 287 287 287 288 288 288 288 289 290 290 290 290 290 290
306 305 304 304 302 300 297 294 293 293 293 293 293 292 291 289 288 286 285 285 285 285 285 286 286 286 286 286 286 286 286 286 286 287 287 288 288 288 288 288 289 289 290
305 304 304 302 300 297 295 293 292 293 293 293 292 290 289 287 286 285 284 284 285 285 285 285 285 285 286 286 286 286 287 286 286 286 286 286 287 287 287 287 288 288 289
304 303 302 300 297 295 293 292 292 292 292 292 291 289 287 285 284 284 283 283 284 284 285 285 285 285 286 286 286 286 286 285 285 284 285 285 286 286 286 287 287 287 288
303 302 300 297 295 293 292 292 291 292 291 290 288 286 285 284 283 283 283 283 284 285 285 285 285 286 286 286 286 285 284 283 283 283 284 284 285 285 286 286 287 287 287
302 300 297 295 294 292 291 290 291 291 290 288 286 284 284 283 283 283 284 285 285 284 285 285 286 286 285 284 284 283 283 283 283 283 283 284 284 284 284 285 285 285 285
299 297 295 294 291 290 289 290 290 289 287 286 284 284 284 283 283 284 285 285 285 285 286 287 285 284 284 283 282 282 283 283 283 283 283 283 283 283 283 283 283 284 284
297 295 294 291 289 288 289 290 289 286 285 284 284 284 284 284 284 284 284 284 285 286 285 284 284 283 282 282 283 283 283 282 282 283 283 282 282 282 282 282 283 283 284
296 294 291 289 287 288 290 288 286 285 284 283 283 284 284 284 283 283 283 284 286 284 283 283 282 282 283 283 283 282 282 282 282 282 282 281 282 282 282 282 282 283 284
294 291 288 286 288 289 288 286 284 284 283 283 284 284 284 283 283 283 285 285 284 283 282 282 282 283 283 282 282 282 282 282 282 282 282 281 282 281 281 282 283 283 283
291 288 286 288 288 287 285 284 283 283 283 283 283 284 283 284 283 284 285 283 283 282 282 283 283 282 281 281 282 281 282 281 281 281 282 281 282 281 282 283 284 284 284
287 287 288 287 286 284 284 283 282 283 283 283 284 284 283 283 284 284 283 282 281 282 283 282 282 282 282 283 283 282 281 280 280 280 282 281 281 281 282 283 284 286 286

GFSMA_850_thetae_006.txt.gz
Theta_e
328 327 327 326 327 326 326 325 320 310 308 308 307 306 305 304 303 303 306 305 306 308 310 312 315 315 316 319 320 321 321 322 323 324 324 324 323 322 322 322 324 324 323
328 329 329 328 327 327 323 312 309 309 307 306 304 303 303 303 303 303 304 305 306 308 309 310 310 310 310 311 313 315 316 317 318 319 319 318 318 318 318 318 318 317 316
328 329 328 327 326 323 309 309 308 306 303 302 302 302 302 302 301 302 303 304 305 306 306 306 306 306 307 307 307 307 308 308 310 311 312 313 313 314 314 314 313 313 313
329 328 327 325 324 309 309 308 306 303 302 302 302 301 301 301 300 301 301 301 300 299 299 299 298 298 299 299 298 297 297 297 298 298 299 300 304 308 303 303 304 305 306
328 327 326 324 309 309 310 308 306 304 302 301 301 301 301 300 300 301 301 302 303 300 300 299 298 297 297 297 297 297 297 296 297 297 297 297 305 301 301 304 308 308 309
328 326 323 308 310 311 311 310 308 306 303 300 299 299 299 299 300 301 302 299 298 297 298 297 297 297 297 297 297 296 296 296 296 296 296 297 308 308 307 308 309 310 310
326 322 307 310 312 311 311 310 308 306 302 299 298 299 298 298 298 300 297 297 297 297 297 296 296 296 296 296 296 296 296 295 295 295 296 297 305 306 307 307 308 308 308
321 309 309 312 312 311 311 310 308 305 300 297 296 298 299 299 298 297 297 297 296 297 296 297 296 296 295 295 295 295 295 295 295 294 296 301 303 304 305 306 307 307 307
312 308 311 312 311 311 310 309 308 304 298 296 295 295 297 299 296 297 297 296 296 296 296 296 295 295 294 293 293 293 293 293 293 295 300 301 302 303 304 304 304 305 306
308 310 311 311 310 310 309 308 306 303 298 295 294 294 294 293 294 296 296 295 294 294 294 293 294 293 292 292 291 291 291 291 291 294 297 299 301 302 302 303 303 304 304
309 310 311 310 309 309 308 307 305 301 297 295 294 294 293 293 293 293 294 295 294 293 292 291 291 291 291 290 291 291 290 289 292 294 296 297 298 299 300 300 301 302 303
309 310 310 309 308 308 307 306 303 300 296 294 294 293 293 292 292 292 292 293 293 292 291 291 290 290 290 290 290 289 289 290 291 292 293 295 296 296 297 298 298 299 299
309 310 309 308 307 306 306 304 302 298 295 294 293 293 293 293 292 291 291 291 291 291 291 290 290 289 289 289 288 288 288 289 289 290 291 292 293 294 294 294 294 295 295
309 309 308 306 306 305 304 302 300 297 294 293 293 293 293 293 292 290 290 289 290 290 290 290 289 289 289 288 288 288 288 288 288 289 290 290 290 290 290 291 291 292 293
308 308 306 305 304 304 302 301 298 295 294 293 293 293 293 291 290 289 288 288 288 288 288 289 289 288 288 288 288 288 288 288 288 288 289 289 289 289 289 290 290 291 291
306 306 305 304 303 302 301 299 296 294 293 293 293 292 291 290 289 287 288 288 288 287 287 288 288 287 287 287 287 288 288 288 288 288 288 288 288 289 288 288 289 289 290
305 304 303 303 302 300 299 297 294 293 293 292 291 291 290 288 287 287 287 287 287 287 287 287 287 287 287 287 287 288 287 287 287 287 287 286 287 287 288 288 288 288 289
304 303 302 301 300 299 297 295 293 292 291 291 291 290 288 286 285 286 286 286 286 286 286 286 286 286 286 287 288 287 286 286 285 285 285 286 286 287 287 287 288 288 288
302 302 301 300 299 297 295 293 291 290 290 290 289 287 286 285 285 285 285 286 286 286 286 286 286 286 287 287 286 286 285 285 285 285 285 285 286 286 287 287 287 287 287
301 300 300 298 297 295 292 290 289 289 290 289 287 286 285 285 285 285 286 286 286 286 286 286 286 287 287 286 285 285 285 284 285 285 285 285 285 285 286 286 286 286 286
300 299 298 297 295 293 290 288 289 289 288 287 286 285 285 285 284 285 286 286 286 285 285 286 287 286 285 285 284 284 284 284 284 284 284 284 285 284 284 285 285 285 285
298 298 297 295 292 289 287 289 289 287 286 286 286 285 285 285 285 285 285 285 285 285 286 286 285 284 284 284 284 284 284 284 283 284 284 284 284 284 284 284 285 285 285
297 296 295 292 288 287 289 289 287 285 285 285 285 285 285 285 285 285 284 285 285 285 285 284 284 283 284 284 283 284 283 283 283 283 283 283 284 284 284 284 284 285 285
296 294 291 288 288 289 288 286 285 284 285 285 285 285 285 285 285 284 285 285 285 284 284 283 283 283 283 283 283 282 283 282 283 283 283 283 283 283 284 284 286 287 286
293 290 287 289 289 287 285 284 284 284 285 285 285 285 285 284 284 285 285 284 284 283 283 283 283 283 283 282 282 282 282 282 282 283 283 283 284 283 283 285 286 286 286
289 288 289 288 286 285 284 284 283 284 285 285 285 285 285 284 284 284 284 283 283 283 282 283 283 282 282 282 282 282 282 282 281 281 283 282 282 283 283 284 286 289 289

GFSMA_850_thetae_009.txt.gz
Theta_e
328 331 328 326 325 326 326 326 320 310 309 308 306 304 304 303 304 306 308 306 305 307 309 310 312 313 313 315 317 318 319 319 320 320 321 322 322 322 322 322 321 322 322
331 327 327 327 327 327 326 317 310 308 307 305 303 303 302 303 303 304 307 305 305 306 307 308 308 309 309 309 309 310 310 310 312 313 315 316 317 317 317 317 318 318 318
330 328 329 328 327 326 318 310 309 307 305 303 302 302 302 302 302 303 304 304 304 304 304 304 303 302 301 301 301 301 301 301 300 302 304 304 305 307 309 310 311 312 312
327 328 328 327 325 322 309 310 310 308 305 303 301 301 301 301 302 302 302 302 301 300 301 300 299 299 298 298 298 298 298 298 298 298 298 298 298 298 302 299 299 299 300
329 329 327 326 325 309 311 311 310 309 306 303 300 300 300 301 302 301 301 301 302 301 298 298 299 299 299 298 298 298 298 298 297 297 297 297 297 297 310 309 305 303 307
330 328 327 325 310 311 312 311 311 309 305 302 300 300 300 301 302 302 303 299 299 298 297 297 297 297 297 297 297 297 297 297 297 296 297 297 297 298 307 309 309 310 310
329 327 325 312 311 312 312 312 311 309 305 302 299 300 301 300 302 304 298 299 298 297 297 297 297 297 297 296 296 296 295 295 295 295 295 296 298 301 305 307 307 308 309
328 325 318 309 312 312 312 312 311 307 304 301 298 300 301 301 300 299 298 298 297 296 296 297 297 296 296 295 295 294 294 294 294 294 295 300 303 304 305 305 306 307 307
326 321 308 311 312 311 312 311 310 308 303 300 298 297 299 301 299 299 298 297 297 296 296 296 296 295 294 293 293 292 292 292 293 293 294 298 300 302 303 304 305 306 306
318 312 310 312 311 311 311 310 309 307 303 299 297 297 296 295 296 297 298 297 297 296 295 295 295 295 293 292 292 292 291 292 291 291 295 297 299 300 301 302 303 304 304
315 309 310 311 310 310 310 309 308 306 303 299 297 296 295 295 295 295 295 296 295 295 295 294 293 292 292 291 291 291 291 291 292 293 294 296 297 298 299 299 300 301 301
310 309 310 310 309 309 309 308 307 306 302 299 296 295 295 294 294 294 294 294 293 294 293 292 292 291 291 290 290 290 290 290 291 292 293 295 296 296 296 297 298 298 299
309 309 310 309 308 308 308 307 306 305 301 297 295 294 294 294 294 293 292 292 292 292 292 292 291 291 290 290 290 289 289 290 290 291 292 293 294 293 293 293 294 294 294
310 309 309 308 308 307 307 306 305 303 299 296 295 294 294 294 293 292 291 291 291 291 290 291 290 290 290 289 289 289 288 289 289 290 291 291 291 291 291 292 292 292 293
309 308 308 307 307 306 305 304 303 300 297 295 294 293 293 292 292 291 290 290 289 290 290 289 290 290 289 288 288 288 288 288 289 289 289 290 290 290 290 290 290 291 291
308 308 307 306 305 305 304 302 301 298 295 293 293 292 292 291 291 290 289 289 288 288 288 288 288 288 288 288 287 288 288 289 288 288 288 289 289 288 289 289 289 290 290
307 307 305 305 304 303 302 300 298 296 294 292 291 291 291 290 289 288 287 287 287 287 287 287 287 287 287 287 287 287 288 287 287 287 287 287 287 288 288 289 289 289 289
306 305 304 303 303 302 300 298 296 293 292 290 290 290 290 288 287 286 287 287 287 286 287 287 287 287 287 287 288 288 287 286 286 285 286 287 287 288 288 288 288 289 289
304 303 303 303 302 301 299 297 294 291 290 289 290 289 288 287 286 286 286 286 287 287 287 287 287 286 286 287 287 286 286 286 285 285 286 286 286 287 287 288 288 288 288
302 302 302 302 301 299 297 294 291 289 289 290 289 288 287 287 286 286 286 286 286 286 286 286 285 286 287 286 286 285 285 285 285 285 285 285 286 286 286 286 287 287 287
301 301 301 300 299 298 295 291 288 289 289 289 288 287 287 286 286 286 286 286 286 285 285 285 286 287 286 285 285 284 284 284 284 285 284 284 285 284 285 285 285 286 286
301 300 299 299 297 294 292 288 290 289 287 286 287 286 286 286 286 286 286 286 285 285 286 286 286 285 285 284 284 284 284 285 283 284 284 283 284 284 284 285 285 286 287
300 299 299 296 293 289 289 290 288 286 285 286 286 286 286 286 286 286 285 285 285 286 286 285 285 284 284 283 283 284 284 283 283 283 283 284 284 284 284 284 285 286 286
299 298 295 293 289 290 290 287 286 285 285 286 286 286 286 285 285 285 285 285 285 284 284 284 284 283 283 284 285 284 283 283 283 283 283 283 284 284 284 285 286 287 288
297 295 291 290 290 287 286 285 285 284 285 285 286 285 285 286 285 285 286 285 284 283 283 283 283 284 284 284 284 283 283 283 283 283 283 282 283 283 284 286 286 286 287
293 290 290 289 287 286 285 285 283 283 284 285 285 285 285 285 286 285 285 284 283 282 282 283 283 282 282 282 283 283 283 283 282 282 283 282 282 282 282 283 285 287 288

GFSMA_850_thetae_012.txt.gz
Theta_e
322 329 331 330 326 324 325 326 324 311 309 309 306 304 303 303 303 305 305 306 305 306 307 308 309 309 310 310 311 311 311 312 313 313 314 315 316 317 318 320 321 321 321
329 331 330 325 325 326 326 325 312 310 310 307 304 303 303 302 303 303 305 305 304 305 306 306 307 306 306 306 305 304 303 303 304 305 306 307 309 311 312 313 314 316 316
330 330 327 327 327 326 325 312 311 311 309 307 304 302 302 302 302 303 304 304 303 303 302 301 300 299 299 299 299 298 298 298 298 299 299 299 298 298 299 299 300 302 304
331 330 328 328 327 326 315 311 312 311 309 306 303 301 301 301 302 302 302 302 302 302 302 301 299 299 300 300 299 299 298 298 298 298 298 298 298 298 298 299 303 300 299
332 327 328 327 326 323 310 312 312 312 309 306 302 301 301 301 302 302 301 302 301 301 298 298 298 298 298 298 298 298 298 298 297 297 297 297 298 298 298 299 310 310 309
329 329 328 327 325 310 312 312 313 312 309 305 301 301 301 300 302 301 303 302 299 299 298 298 298 298 298 298 297 297 297 296 296 296 296 298 301 300 299 300 308 309 309
329 329 328 327 321 311 312 313 313 312 309 304 301 301 302 301 301 303 303 299 299 298 297 297 298 298 297 297 296 295 295 295 295 295 295 296 300 303 304 306 307 307 308
330 329 327 325 310 313 313 313 313 312 310 305 301 300 301 301 301 300 299 299 298 297 297 297 297 297 297 296 295 294 294 293 293 294 294 297 300 301 303 304 305 306 306
330 329 326 316 310 313 313 313 312 311 310 306 301 300 299 301 300 299 298 298 297 297 297 297 297 296 295 294 294 293 292 292 292 294 297 298 299 300 301 302 303 304 305
330 328 322 310 311 312 312 312 311 310 309 305 302 299 298 297 297 297 298 298 297 297 296 296 296 295 294 293 293 292 292 292 292 293 296 297 298 299 300 301 302 302 303
328 323 315 310 311 312 311 311 310 310 308 305 301 298 297 296 296 295 295 296 296 295 295 294 294 293 292 292 291 291 291 291 291 293 295 296 297 298 298 299 300 300 300
324 316 311 310 311 311 310 310 309 309 307 305 301 298 297 296 295 295 294 295 294 294 293 293 292 292 291 291 290 290 290 290 291 292 293 294 295 296 296 296 296 296 297
320 317 311 310 310 310 310 309 308 308 306 304 300 297 296 295 294 294 293 293 292 293 292 291 291 290 291 290 290 290 289 289 290 290 292 293 294 294 293 293 294 295 295
322 314 311 309 309 309 308 308 307 306 305 302 299 296 295 294 293 293 292 291 291 290 290 290 289 289 290 290 290 289 288 288 289 290 291 292 292 291 291 291 292 293 292
318 313 309 309 309 308 307 307 306 305 303 301 297 295 294 293 292 291 291 290 289 289 289 288 288 288 288 287 287 287 287 287 288 289 290 289 289 290 290 290 291 291 291
315 308 309 308 307 306 306 305 304 303 301 298 295 294 292 291 291 291 290 289 288 288 288 287 287 287 287 287 287 287 287 287 288 288 288 288 289 289 289 289 290 290 291
309 307 308 307 306 305 305 304 303 302 299 296 293 291 290 290 291 290 289 287 287 287 287 286 287 287 287 287 286 286 287 287 287 286 287 288 288 288 289 289 289 290 290
307 306 306 305 305 304 304 302 301 299 296 293 291 290 290 290 290 288 287 286 286 286 286 287 287 286 286 285 286 287 287 286 285 285 286 287 287 287 288 288 288 289 289
305 304 304 303 303 303 302 301 300 297 293 290 289 290 290 289 288 287 286 286 286 286 286 286 285 285 285 286 287 285 284 285 284 284 285 285 286 286 287 287 288 288 288
303 303 302 303 303 302 301 300 297 293 290 290 290 290 289 288 287 287 286 286 286 286 286 285 285 285 285 286 285 284 284 284 284 284 284 285 285 285 286 286 286 286 286
302 302 302 302 301 301 300 296 292 289 290 290 289 287 287 287 287 287 287 287 287 286 286 286 285 286 285 285 284 284 284 283 284 284 284 285 284 285 285 286 285 285 286
302 302 302 301 301 300 296 291 290 291 289 287 287 286 286 286 286 286 286 286 286 286 285 285 286 285 285 284 284 283 284 285 284 284 283 284 284 285 285 285 285 285 286
302 301 301 301 299 295 291 291 290 288 287 286 286 286 286 286 285 285 285 285 285 285 285 285 284 284 284 284 283 284 285 284 283 283 283 284 284 284 285 285 285 285 286
301 302 301 298 294 291 291 290 287 287 286 285 285 285 286 285 285 286 286 286 286 285 284 284 283 283 284 284 285 284 284 283 283 283 283 283 284 284 284 284 285 286 287
301 300 298 292 291 289 288 288 287 286 284 284 284 285 285 285 285 286 286 286 285 284 283 282 283 283 284 283 284 283 283 283 283 283 283 282 283 283 283 285 285 285 285
300 294 291 290 289 287 286 285 285 284 283 283 283 284 284 285 285 286 285 285 285 283 283 283 283 283 283 283 283 282 282 282 282 282 283 282 282 281 282 282 284 285 286

GFSMA_850_thetae_015.txt.gz
Theta_e
322 325 329 328 326 327 323 325 325 314 310 310 308 305 304 303 303 304 304 305 305 305 306 307 307 307 307 307 307 307 307 306 306 307 307 309 310 311 313 315 317 318 320
322 327 329 330 328 324 325 325 319 310 312 309 306 304 303 303 303 303 304 305 304 304 305 305 305 303 302 301 299 299 299 299 299 299 299 299 299 300 301 304 306 309 313
323 327 329 330 324 326 326 324 311 312 310 309 306 303 302 302 302 302 303 303 303 302 302 302 302 301 300 300 300 300 300 300 299 299 299 299 299 299 299 298 298 301 300
329 329 329 327 327 326 325 314 312 311 311 309 305 302 301 301 301 302 302 302 302 302 302 301 299 299 298 298 299 299 299 299 298 298 298 298 298 298 299 299 299 301 310
330 330 330 327 327 326 323 311 312 313 311 308 304 302 301 301 302 302 302 302 301 300 299 299 298 298 298 299 298 298 298 297 297 297 297 297 298 298 299 302 304 304 310
331 330 329 327 326 326 316 312 313 313 311 307 303 301 301 301 302 301 301 303 301 299 299 298 298 298 298 298 297 297 296 296 298 296 297 298 300 302 302 303 305 307 308
331 331 328 328 326 325 311 313 313 313 311 307 302 302 302 301 301 302 303 302 299 299 298 298 298 297 297 297 296 296 295 294 296 294 295 299 301 302 302 303 304 306 307
332 331 328 328 326 321 312 313 313 313 312 309 304 301 301 301 301 301 301 299 299 298 298 298 297 297 296 296 295 294 294 293 293 294 298 299 300 300 301 302 303 304 305
332 330 329 327 323 313 312 313 313 313 312 310 306 303 300 301 300 299 299 299 298 298 297 297 296 296 295 294 293 293 293 292 292 296 298 299 299 300 301 301 302 303 304
332 330 328 325 318 311 312 313 313 312 312 311 308 304 301 300 299 298 298 298 298 297 296 296 296 295 293 293 292 292 292 291 292 296 296 297 298 299 300 300 301 302 302
329 329 327 321 311 311 312 312 312 312 311 311 308 304 301 299 298 297 297 298 297 296 295 295 295 293 292 292 291 291 291 291 291 293 294 295 296 297 298 299 299 299 300
327 326 325 319 311 311 311 312 311 311 311 310 308 304 300 298 296 295 295 295 294 295 294 294 293 292 290 290 290 290 290 290 292 292 293 294 295 296 296 297 297 297 297
326 326 320 320 310 311 310 310 310 310 309 308 307 303 299 297 295 294 293 293 292 293 293 293 292 290 289 289 290 290 290 289 289 290 291 293 293 294 293 293 293 294 295
326 325 320 313 310 310 309 309 309 308 308 307 305 301 297 296 294 293 292 291 291 291 291 290 290 289 288 288 288 288 287 287 287 289 290 291 291 291 291 291 292 292 293
324 321 316 310 309 310 307 308 308 307 307 306 304 299 296 294 292 291 291 291 290 289 288 288 288 287 287 287 287 287 287 285 287 288 289 290 290 289 290 290 291 291 292
319 317 313 309 312 306 306 306 306 305 305 304 301 297 294 292 291 291 291 290 289 287 287 287 287 286 286 286 286 285 285 286 286 287 288 288 288 289 289 290 290 291 291
316 313 309 312 306 306 304 305 304 304 303 302 297 294 291 290 291 291 290 289 288 287 286 286 286 286 286 285 285 285 286 286 285 285 286 287 288 288 288 289 289 289 290
311 310 311 306 305 304 303 304 304 303 301 298 294 291 290 291 291 290 288 287 287 286 286 286 286 286 285 285 285 286 285 284 284 284 285 286 286 287 287 288 288 288 289
310 306 305 304 303 303 303 303 302 301 298 294 291 290 291 290 289 288 287 287 286 286 286 286 286 285 285 285 286 285 284 284 284 284 284 285 285 285 286 286 287 287 287
308 303 304 303 302 302 302 301 301 298 294 291 291 290 289 288 287 287 287 286 287 287 286 286 286 285 285 285 284 284 284 284 284 284 284 285 284 284 285 285 285 285 286
303 304 302 302 301 302 301 301 297 293 291 291 290 288 287 287 286 286 286 287 287 286 286 286 285 285 285 284 283 283 283 283 284 284 284 284 284 285 285 286 286 286 286
301 301 300 301 301 301 301 296 292 292 291 290 288 287 286 286 286 286 286 286 286 286 286 285 285 285 284 283 283 283 283 285 284 284 284 283 284 285 285 285 285 285 285
298 300 300 301 301 300 295 292 292 291 289 288 287 286 285 285 285 285 285 286 286 286 286 285 284 283 283 283 283 284 284 284 283 283 283 283 285 285 285 284 285 286 286
299 300 300 300 297 294 292 292 290 288 288 287 285 284 285 285 285 285 286 286 286 285 285 284 284 283 283 284 284 284 283 283 283 284 284 282 284 284 284 284 285 286 286
299 299 297 294 292 292 290 290 289 288 286 285 284 283 284 284 284 286 286 286 285 285 284 284 283 283 283 283 283 282 283 282 282 283 285 283 284 283 283 285 285 285 285
297 294 292 292 290 289 288 287 286 286 284 284 284 284 284 284 285 285 286 286 285 284 283 283 283 283 284 284 284 283 283 282 282 281 285 282 282 282 282 282 284 285 286

GFSMA_850_thetae_018.txt.gz
Theta_e
322 323 325 323 323 324 324 323 324 323 312 310 309 306 304 303 303 304 304 305 305 305 307 306 306 306 306 305 304 302 301 300 299 299 300 300 301 303 306 310 313 315 317
322 324 325 327 324 325 324 324 325 317 310 310 308 305 303 303 302 303 303 304 304 304 304 304 303 300 299 299 299 299 300 300 300 300 300 299 299 299 299 299 299 303 306
323 320 324 326 327 328 323 325 323 312 311 310 308 305 302 302 302 302 303 303 302 302 301 302 301 299 298 298 299 299 299 299 299 299 299 299 299 299 299 299 299 299 300
323 322 325 327 329 326 325 325 318 312 312 311 307 303 301 301 301 302 302 302 302 301 301 300 299 299 298 298 299 299 299 299 298 298 298 298 298 299 299 301 305 304 301
329 325 325 329 329 326 326 324 312 312 312 309 305 302 301 301 302 302 302 302 302 300 299 299 298 298 298 298 298 298 297 297 298 298 297 297 297 298 299 302 304 306 308
331 329 329 329 329 326 326 321 312 313 311 308 303 301 301 302 302 302 301 302 302 299 299 298 298 298 298 298 297 297 296 296 297 299 296 300 302 303 303 304 304 305 306
332 329 329 330 329 327 325 316 313 313 311 308 303 302 302 302 302 302 301 303 300 299 299 298 298 298 297 297 296 295 295 294 296 298 297 300 302 302 302 303 304 304 305
331 329 329 330 329 326 325 313 313 313 312 309 304 302 302 301 301 302 302 301 300 298 298 298 297 297 296 296 295 295 293 293 293 296 298 300 300 301 302 302 303 304 304
331 330 330 330 328 326 321 312 313 313 313 311 308 305 302 302 301 300 300 299 298 298 298 297 297 295 295 295 294 294 293 292 292 296 298 299 299 300 300 301 302 302 303
331 330 330 331 328 325 315 312 313 313 313 312 311 308 306 303 301 299 299 299 298 298 297 296 295 295 295 294 293 292 292 292 292 295 297 298 298 298 299 300 301 301 302
330 330 330 331 328 323 313 312 313 312 312 312 312 310 307 304 301 300 299 298 298 297 296 295 295 294 293 292 292 291 291 291 291 293 295 296 296 297 298 299 299 300 300
331 330 331 328 327 321 312 312 312 311 311 311 311 309 306 303 300 299 297 297 296 296 295 295 294 293 291 291 290 290 290 290 289 291 293 294 294 295 296 296 297 297 297
330 330 329 327 322 316 311 311 311 310 310 310 309 309 306 302 298 297 296 294 293 293 294 294 292 291 290 290 289 288 288 288 287 289 291 292 293 293 294 294 294 294 294
328 328 327 323 321 312 310 310 309 308 309 308 308 307 304 300 297 295 293 292 292 292 292 292 291 289 289 288 288 287 287 287 286 287 289 290 291 291 291 291 291 292 293
328 326 326 320 312 312 309 309 308 308 306 306 307 305 302 298 296 293 292 291 291 290 289 289 289 288 287 287 286 286 286 285 285 286 288 289 289 289 289 290 291 292 292
327 324 323 315 310 309 308 308 310 310 305 305 305 304 299 296 293 291 291 291 291 289 287 287 287 287 286 286 286 285 285 285 286 285 286 287 288 288 289 290 290 290 291
327 321 321 311 308 306 308 311 308 303 303 303 303 301 296 293 291 291 291 291 290 288 287 287 286 286 286 286 285 285 286 285 285 285 285 286 287 287 288 288 289 289 290
323 321 317 308 305 308 307 308 304 301 302 302 301 297 294 292 292 291 290 289 288 287 286 286 286 286 286 285 285 285 284 284 285 285 285 286 286 286 287 287 288 288 288
321 317 311 306 306 310 303 303 301 302 302 301 297 293 292 292 291 289 288 287 287 286 286 286 286 286 285 285 285 284 283 284 284 285 285 285 286 285 286 286 286 287 287
317 310 305 305 305 302 298 299 302 301 300 297 294 292 291 290 288 287 287 286 286 287 287 286 286 285 285 285 284 283 283 284 284 285 285 285 286 284 285 285 285 286 286
306 303 305 302 300 299 299 299 300 300 296 293 293 291 289 287 287 286 286 286 287 286 286 286 286 285 285 284 283 283 283 284 284 285 285 284 284 284 286 285 286 286 286
302 303 301 300 300 300 298 299 297 295 293 292 290 288 287 286 286 285 285 286 286 286 287 286 286 285 284 284 283 283 284 284 284 284 284 284 284 285 286 286 286 286 285
301 301 300 298 296 297 299 297 292 292 291 289 288 287 286 285 285 285 285 285 286 286 286 286 285 284 284 283 284 284 284 283 283 284 284 284 285 285 286 285 285 286 286
301 299 300 299 297 296 295 292 291 289 288 288 287 285 284 284 284 284 284 286 286 286 285 285 284 284 283 284 284 284 283 283 283 284 284 283 285 285 285 285 286 286 286
299 299 300 300 296 291 290 289 288 288 287 286 285 284 284 284 284 285 286 286 285 285 285 284 283 283 284 284 283 283 284 283 283 284 285 283 285 284 284 285 285 285 285
300 299 295 292 290 289 287 287 287 286 285 285 284 284 283 283 284 285 286 286 285 284 283 283 283 284 284 284 284 284 284 283 283 282 283 283 282 282 282 282 284 285 285

GFSMA_850_thetae_021.txt.gz
Theta_e
326 327 328 325 323 319 321 323 322 323 322 312 310 308 306 304 303 303 304 304 305 306 307 306 306 306 304 303 301 300 300 299 300 300 300 300 300 300 300 302 306 310 313
323 326 326 325 322 324 324 323 323 324 318 311 310 308 305 303 302 303 303 304 304 304 304 304 303 301 300 301 301 300 300 300 300 300 300 300 300 300 300 300 300 299 300
320 324 326 325 326 324 325 323 324 323 312 311 310 307 304 302 302 302 303 303 303 302 302 302 301 299 298 298 300 301 300 300 300 300 299 299 299 299 299 300 300 300 300
325 325 325 324 326 326 327 323 324 321 311 311 309 305 303 301 301 302 302 302 302 301 301 299 299 299 298 298 299 299 298 298 298 298 298 298 298 298 300 302 304 304 304
330 330 322 324 326 327 328 325 325 317 311 311 307 303 301 301 301 302 302 301 302 301 299 299 299 298 299 299 299 298 298 297 298 297 297 297 297 298 300 302 303 304 304
331 331 326 324 326 329 327 326 325 313 312 310 305 302 301 301 302 302 301 301 302 301 299 299 298 298 298 298 298 297 297 296 296 298 297 298 299 301 302 303 304 305 306
332 332 330 328 328 329 328 326 323 312 312 309 304 302 302 302 302 302 301 301 303 300 300 299 298 298 298 298 297 296 296 295 295 297 299 300 302 302 302 303 304 304 305
332 332 330 329 328 328 329 326 322 312 312 310 305 303 302 302 302 302 302 302 301 300 299 298 298 298 297 297 296 296 295 294 294 295 299 301 301 301 301 302 303 303 304
332 331 330 329 327 328 329 326 321 312 313 311 309 305 303 303 302 302 301 301 300 299 298 297 297 297 296 295 295 294 293 293 293 296 299 300 300 300 301 301 302 302 303
331 331 330 330 329 329 329 326 317 312 313 312 311 309 308 305 302 300 300 299 298 298 298 297 297 295 295 295 294 293 292 292 291 294 297 298 299 299 300 300 300 302 302
329 330 330 330 330 330 328 326 316 312 313 312 312 312 310 307 304 302 300 299 298 298 297 297 295 295 295 294 293 292 291 290 290 290 293 296 296 297 298 299 299 299 300
328 328 329 330 330 329 328 325 314 312 312 312 311 311 310 308 307 303 300 299 298 297 296 295 295 294 293 292 291 290 289 289 289 288 291 294 295 296 296 296 297 298 297
328 328 328 328 329 329 328 322 312 311 311 311 310 310 309 309 306 302 300 298 296 295 295 295 294 293 292 291 290 289 289 289 288 288 288 291 293 293 293 294 295 295 295
327 326 327 328 328 328 327 318 311 310 310 310 309 309 307 307 304 300 298 296 294 293 293 294 293 291 290 289 288 288 288 287 287 287 287 289 290 290 291 291 291 292 293
327 326 326 327 325 325 326 315 311 308 309 309 308 307 306 306 303 298 295 294 292 291 291 292 291 290 288 288 288 287 287 286 286 286 286 286 287 288 289 290 291 291 292
326 326 326 325 322 322 319 315 310 306 307 308 310 310 306 304 301 295 293 292 292 291 290 289 289 289 288 287 287 286 286 285 285 285 285 286 287 288 289 289 290 290 291
326 326 325 322 322 319 313 310 307 305 308 310 306 305 304 301 297 292 292 292 291 290 288 288 288 287 287 287 286 286 286 285 285 285 286 286 286 287 288 288 289 289 290
325 325 324 322 316 310 308 306 303 307 307 307 304 304 300 297 292 291 292 291 290 288 288 287 287 287 286 286 285 285 285 285 284 285 286 286 286 286 287 287 288 289 289
324 324 322 316 310 306 305 304 307 309 301 303 301 300 295 294 292 291 290 289 288 288 287 286 287 286 286 286 285 285 284 284 285 286 286 286 286 285 286 286 287 286 286
320 318 315 311 305 304 303 306 307 302 300 301 300 296 293 291 290 289 288 288 287 286 286 286 286 286 286 285 285 284 284 284 285 285 286 285 285 285 286 286 286 286 286
315 312 313 303 303 302 305 304 302 301 297 297 295 292 292 289 288 287 287 287 286 287 286 286 286 286 285 285 284 284 283 284 284 285 286 286 286 286 287 286 286 286 286
313 306 304 302 302 303 303 301 300 298 299 293 294 291 288 287 287 286 286 286 287 286 286 287 286 286 285 285 284 283 284 284 284 284 285 286 286 286 286 286 286 286 286
302 301 301 301 301 300 300 300 299 296 295 292 288 288 287 286 285 285 285 285 284 285 286 286 286 285 285 284 283 284 284 284 283 284 285 285 285 286 286 286 286 286 286
300 301 301 300 301 302 302 298 298 293 288 288 288 287 285 284 284 284 284 285 286 285 285 285 285 284 284 284 284 284 284 283 284 285 285 284 286 285 286 286 286 286 286
302 302 302 301 300 298 295 290 290 288 288 287 285 284 284 284 283 284 285 285 285 285 285 285 284 283 283 283 283 283 284 283 284 285 285 283 285 284 285 285 286 286 286
301 300 300 300 294 289 288 288 287 287 286 285 284 284 283 282 282 285 285 285 285 284 283 283 283 283 283 283 284 284 284 284 283 282 283 283 283 283 282 284 285 285 286

GFSMA_850_thetae_024.txt.gz
Theta_e
327 329 331 331 329 326 321 320 322 322 323 320 311 310 307 305 303 303 304 304 305 306 306 306 305 305 304 302 301 300 300 300 300 301 301 301 301 301 300 300 300 301 305
324 326 327 328 326 323 320 323 322 322 323 317 311 309 308 305 303 303 303 304 304 304 304 303 302 301 301 301 301 300 300 300 300 300 300 300 300 300 300 301 301 301 300
321 323 326 326 325 322 324 324 322 323 323 314 311 310 306 304 302 302 303 303 303 302 301 301 301 300 299 299 299 299 299 300 300 300 299 299 299 299 299 299 300 300 300
322 320 322 326 325 325 324 326 323 324 322 312 311 309 305 303 301 302 302 302 302 301 301 300 299 299 299 299 299 299 299 299 299 299 298 298 298 298 300 300 300 300 299
328 321 321 324 325 324 325 327 324 324 321 312 311 307 303 301 301 302 302 302 302 301 301 300 300 299 299 299 299 298 298 298 298 298 298 297 297 300 301 302 303 305 305
330 327 328 328 323 323 326 328 325 324 318 311 309 305 303 302 301 302 302 301 302 302 301 299 299 299 299 299 298 298 297 297 296 296 298 297 299 302 303 304 305 305 306
333 331 330 329 324 324 326 328 325 324 317 311 308 303 302 302 302 302 302 302 302 302 301 300 299 299 299 299 298 297 297 296 296 296 298 300 302 302 303 303 304 304 305
333 332 331 330 328 326 327 327 327 325 318 311 308 304 303 303 302 302 302 302 302 302 301 300 299 299 298 298 297 296 296 295 295 294 298 301 301 302 302 303 303 303 304
334 333 329 330 329 327 326 327 328 325 318 312 310 306 304 305 304 303 302 302 302 301 300 299 298 298 298 297 296 295 295 295 294 293 296 299 300 301 301 302 302 303 303
330 333 331 329 330 328 327 327 328 326 319 312 311 309 307 306 304 304 303 303 302 301 300 298 298 298 297 295 295 294 294 293 292 292 294 296 298 299 300 300 301 302 302
328 329 331 330 330 329 328 327 328 326 323 313 312 312 309 307 306 305 304 304 302 300 299 298 297 297 295 295 294 293 292 291 291 291 291 293 296 298 298 299 300 300 300
328 328 328 329 329 329 329 329 328 327 321 313 312 311 312 311 310 307 306 305 302 300 299 298 296 295 295 294 293 292 291 290 290 290 289 291 295 296 296 297 297 297 298
329 328 328 328 328 328 329 328 328 326 321 311 312 311 311 311 311 310 307 304 301 299 298 296 295 295 294 293 291 290 290 290 289 289 288 290 292 293 293 293 294 294 295
326 329 328 326 327 327 328 327 325 324 319 312 309 309 309 309 309 308 307 303 299 297 296 295 295 294 292 290 289 289 289 288 288 288 288 287 288 288 289 291 291 292 293
325 327 328 328 326 327 327 326 322 320 315 310 306 308 307 306 307 306 304 300 296 293 293 295 294 293 290 289 289 288 287 287 287 286 286 286 286 286 288 289 290 291 292
323 325 327 327 326 326 325 322 320 314 309 309 309 307 309 307 305 305 305 297 293 292 292 292 292 290 289 289 288 287 287 286 286 286 285 285 286 287 288 289 290 290 291
324 324 325 326 326 325 322 318 317 310 307 308 309 304 308 306 306 304 299 295 292 292 291 290 289 288 288 288 287 286 286 286 286 285 285 286 286 287 288 288 288 289 290
323 325 324 325 323 321 319 316 309 307 306 304 306 307 307 305 302 296 295 293 292 291 289 288 288 287 287 287 286 286 286 285 285 285 286 287 287 286 287 287 288 288 289
322 321 321 320 320 319 317 310 305 304 303 305 307 305 303 298 296 295 293 292 291 289 288 287 287 287 286 286 286 285 285 285 285 286 287 287 287 286 286 286 287 286 287
319 318 317 316 314 309 307 304 303 301 304 305 302 299 299 293 294 294 293 289 288 287 287 286 286 286 286 286 286 285 285 284 284 286 287 286 286 286 286 286 286 287 287
316 315 314 312 307 305 298 302 302 304 304 302 301 300 293 292 299 293 288 287 287 287 287 286 286 286 286 286 285 285 284 283 285 286 287 286 286 286 287 287 287 287 287
313 311 307 306 303 302 300 301 303 302 302 302 301 294 297 290 287 286 286 286 286 286 286 286 286 286 286 285 285 284 283 284 284 285 285 284 285 287 287 287 287 287 287
305 304 303 301 301 301 301 302 302 302 301 299 297 293 288 287 286 285 285 284 284 284 285 286 286 285 285 285 284 284 284 284 283 284 284 284 285 287 287 287 287 287 287
301 300 299 300 301 302 302 301 300 300 299 292 287 286 286 285 285 284 284 284 285 285 285 285 285 285 284 284 284 284 283 283 283 284 284 284 286 286 286 287 287 287 287
299 299 300 300 300 300 298 299 299 297 290 286 285 285 285 284 283 283 285 285 285 285 285 284 284 283 283 283 283 282 283 283 283 284 285 283 286 285 285 286 286 286 286
298 299 299 299 299 299 298 292 289 287 286 285 285 284 283 282 282 284 285 285 284 284 283 283 283 282 282 283 283 283 283 283 283 282 284 283 285 284 282 284 285 286 286

GFSMA_850_thetae_027.txt.gz
Theta_e
327 328 331 331 331 330 325 320 319 321 322 322 318 312 309 307 304 303 304 304 305 306 306 305 305 305 304 302 302 301 300 300 300 301 301 301 301 301 301 301 301 301 300
325 327 328 330 330 329 326 321 320 322 322 322 316 311 310 307 304 303 303 304 304 304 304 304 303 302 302 301 300 300 300 301 301 301 301 301 301 300 300 300 301 301 301
322 325 326 327 328 327 324 320 322 322 322 322 316 311 309 306 303 302 303 303 303 303 302 302 302 301 299 299 299 299 300 300 300 300 300 300 300 299 299 299 299 299 300
324 322 323 325 326 325 324 323 323 322 323 323 315 311 308 305 303 302 302 303 302 302 302 301 300 300 300 299 300 299 299 299 299 299 299 299 299 298 298 299 299 299 299
334 330 324 323 325 325 325 325 324 324 323 323 314 310 308 303 302 302 302 302 302 302 301 301 300 300 299 299 299 299 299 298 298 298 298 298 297 298 299 301 303 304 305
335 334 330 323 322 325 326 326 325 326 323 322 312 310 305 302 301 302 302 302 302 302 302 301 300 300 299 299 299 299 298 297 297 297 297 297 297 299 302 304 304 305 306
335 334 332 325 323 325 326 325 326 326 323 321 311 307 304 302 302 302 302 302 302 302 303 302 301 300 299 299 299 298 297 297 296 296 296 298 299 302 304 304 305 305 305
330 331 333 329 328 328 325 325 326 326 324 319 311 307 304 303 302 302 302 302 302 302 303 303 301 300 300 299 298 297 296 296 296 295 295 298 301 302 303 303 304 304 305
330 329 330 330 330 330 326 325 326 326 326 322 314 308 305 306 305 304 303 303 303 303 303 303 301 300 299 299 298 296 296 296 295 294 294 295 298 301 301 302 303 303 304
331 330 329 329 329 330 328 327 326 326 327 325 317 310 309 307 306 306 304 304 303 303 303 302 301 299 299 298 297 296 295 295 294 293 292 293 295 299 300 301 302 302 303
329 329 329 328 328 329 329 328 327 326 327 327 323 315 311 308 307 307 307 307 305 304 302 301 300 299 298 297 295 295 294 294 293 292 292 291 292 297 299 299 300 300 300
325 329 329 328 328 327 328 328 327 326 326 327 325 317 313 312 310 306 306 307 306 305 303 301 299 298 297 296 295 295 293 292 292 292 291 290 293 296 297 297 297 297 298
322 324 327 328 328 327 327 328 328 327 326 326 325 316 311 308 308 309 307 308 306 303 301 299 298 297 295 295 294 293 292 291 291 290 290 289 291 292 292 293 293 295 295
325 325 325 325 328 328 327 327 328 327 324 324 321 312 311 309 310 308 307 306 304 303 302 299 297 295 295 294 292 291 290 290 290 289 289 289 289 288 288 288 291 292 293
321 324 325 326 326 326 327 327 327 327 324 322 318 314 309 312 307 309 310 306 304 300 299 297 295 295 293 292 290 289 289 288 288 288 288 287 287 287 286 288 290 291 292
319 321 322 324 326 327 327 327 326 326 321 319 315 310 307 305 309 310 310 303 303 297 294 296 295 293 292 290 289 288 288 287 287 287 287 286 286 286 288 289 290 290 291
310 316 322 324 325 326 326 325 325 319 318 313 311 305 305 307 308 306 303 304 302 293 292 292 292 291 290 289 288 288 287 287 287 287 286 286 286 287 288 288 289 289 290
309 312 319 322 323 322 322 321 320 317 313 310 305 303 306 306 304 305 300 301 298 293 291 291 290 289 288 288 287 286 287 286 286 286 286 286 287 287 287 287 287 288 289
310 312 320 320 321 319 317 314 313 309 304 303 303 304 304 303 301 296 292 291 292 294 290 288 287 287 287 287 286 286 286 286 286 286 285 286 287 287 287 286 287 287 287
314 317 318 316 318 316 315 313 308 303 301 303 302 302 301 299 298 299 299 298 296 290 288 287 287 287 286 286 286 286 286 285 285 285 286 286 286 286 287 287 287 287 288
313 313 314 314 314 312 308 306 303 302 301 301 302 301 302 301 300 297 298 293 287 287 287 287 286 286 286 286 286 285 285 284 284 285 286 286 287 287 288 288 288 288 287
312 311 309 308 307 305 303 301 301 302 301 302 301 300 300 298 298 295 289 287 286 286 286 287 287 286 286 285 285 285 284 284 284 285 284 284 285 287 287 287 288 288 287
307 304 303 302 301 300 300 301 301 301 301 300 299 298 298 295 288 286 286 285 285 284 284 285 286 285 285 285 284 284 284 284 283 283 284 285 286 287 287 288 288 287 287
302 301 300 299 299 300 299 300 300 300 299 299 299 292 288 286 286 285 285 284 284 284 285 285 285 285 284 284 284 284 283 283 283 284 284 283 286 286 285 287 287 287 287
300 299 299 297 299 299 298 299 299 299 299 290 287 286 286 285 284 283 283 284 285 285 285 284 284 283 283 283 282 282 283 283 283 284 285 283 286 284 285 287 287 287 287
298 297 297 297 297 297 297 299 293 287 287 287 286 284 283 283 283 283 285 285 285 284 282 282 282 282 282 282 283 283 283 283 283 283 284 283 284 284 282 285 286 286 287

GFSMA_850_thetae_030.txt.gz
Theta_e
331 332 334 333 332 330 329 324 320 320 320 322 322 315 312 309 309 313 318 305 306 306 306 305 306 306 305 303 302 301 301 301 301 301 302 302 302 302 302 302 302 302 302
328 332 333 330 333 332 331 327 322 320 321 321 322 315 311 309 307 307 315 306 305 305 304 304 304 303 303 301 301 301 301 301 301 301 301 301 301 301 301 301 301 301 301
328 330 330 327 335 332 331 328 323 320 322 321 322 316 311 309 306 304 305 310 304 304 303 303 302 302 300 300 300 300 300 301 301 300 300 300 300 300 300 299 300 300 300
330 327 329 326 326 329 328 327 322 321 322 321 322 316 310 308 305 304 303 303 304 304 302 302 302 300 300 300 300 300 300 300 299 299 299 298 298 298 298 298 299 299 300
335 333 329 329 327 325 326 326 323 323 323 322 322 316 310 307 304 303 302 303 303 302 302 302 301 300 300 300 300 299 299 299 299 298 298 298 298 297 298 300 301 303 304
335 334 332 330 328 324 326 326 325 324 324 322 322 316 310 306 303 302 302 302 302 302 302 302 301 300 301 300 300 300 299 299 298 298 298 297 297 297 300 303 306 306 306
331 331 333 332 331 328 324 324 326 325 324 324 321 313 308 305 303 302 302 302 303 302 302 303 302 301 301 300 300 300 299 298 297 297 297 296 297 298 302 305 305 306 306
329 330 330 332 331 331 324 323 326 326 324 324 320 310 306 305 303 302 302 302 302 303 303 302 303 302 301 301 300 300 299 297 297 297 296 296 296 299 303 304 304 304 305
329 331 330 330 330 331 328 325 326 326 325 325 324 314 308 309 305 304 303 303 302 303 303 303 303 303 301 300 300 300 299 297 296 296 295 295 295 298 301 302 303 304 304
325 332 330 330 330 329 329 329 328 325 324 325 324 322 315 309 307 306 305 303 303 303 303 303 303 302 301 300 300 299 298 296 296 295 295 294 293 295 298 301 303 303 303
322 324 327 328 329 329 328 329 329 326 325 326 326 326 320 312 308 307 306 307 304 304 303 303 303 303 302 300 299 298 297 295 295 294 293 293 292 295 298 300 301 301 302
320 324 325 326 328 329 328 327 330 327 326 326 326 326 326 321 312 308 306 306 307 307 306 304 303 302 301 300 299 297 295 295 294 293 292 292 292 295 297 298 298 298 299
318 319 320 325 325 326 327 328 328 329 327 326 325 325 325 320 313 310 308 307 305 305 304 304 302 300 299 298 297 295 295 294 293 292 292 291 290 290 290 291 293 295 296
319 319 322 325 326 326 328 328 327 327 328 327 326 324 323 320 312 309 307 308 305 307 303 303 302 299 297 295 294 294 292 292 291 291 290 290 289 289 289 289 289 291 293
316 323 323 325 326 327 327 326 327 327 327 327 327 324 320 317 311 307 305 308 308 305 305 303 299 297 295 294 293 292 291 290 290 290 289 288 288 289 289 288 288 289 292
312 315 319 320 324 325 325 324 325 326 326 326 324 318 315 311 307 304 306 304 304 304 300 296 294 294 297 294 293 291 289 289 288 288 287 287 287 287 287 287 289 290 291
309 309 311 314 319 321 322 323 323 322 322 322 320 315 306 303 304 303 304 306 308 305 300 297 297 296 295 296 295 292 290 288 287 287 287 287 287 286 286 288 289 290 290
310 310 310 312 316 320 321 321 321 321 319 316 313 310 313 303 300 303 306 306 305 302 302 300 300 297 299 296 290 288 288 287 287 287 287 287 286 286 286 287 288 288 289
310 310 311 312 317 318 318 318 317 317 317 315 310 305 301 300 303 303 305 304 304 302 301 298 296 296 291 288 289 287 287 287 287 287 287 286 286 287 287 287 287 287 288
311 311 311 312 315 315 315 316 315 312 309 307 304 303 301 303 304 304 302 301 300 298 296 296 290 288 287 287 287 286 287 287 287 286 286 285 287 287 287 287 287 287 288
311 312 313 314 314 313 310 309 308 306 305 303 300 301 303 303 302 300 300 298 297 296 290 288 287 287 288 288 287 287 287 287 286 286 286 286 286 286 287 287 288 288 288
311 310 310 310 309 307 304 302 301 301 299 300 302 302 301 300 300 299 297 296 290 288 286 286 288 288 287 287 287 286 286 286 285 285 286 286 286 286 286 287 288 288 288
306 305 305 304 302 301 299 297 298 299 301 301 301 300 299 298 297 294 290 286 285 285 286 286 287 287 287 287 286 285 285 285 284 285 285 285 285 286 286 288 288 288 288
301 301 300 299 299 298 298 298 299 299 300 299 298 297 296 290 287 286 285 284 284 284 285 285 286 286 286 285 285 284 284 284 284 285 285 284 285 285 286 288 288 289 288
298 298 298 298 298 298 297 298 298 297 297 297 291 287 286 286 285 283 285 284 285 286 285 284 284 283 283 282 283 283 283 284 284 284 284 284 285 285 285 288 288 288 288
297 296 297 297 296 298 296 297 297 290 288 287 286 285 284 284 283 283 285 286 285 284 283 283 283 282 282 282 283 283 283 283 283 283 285 285 285 284 284 286 286 286 287

GFSMA_850_thetae_033.txt.gz
Theta_e
334 334 334 334 334 331 330 326 321 318 320 320 321 319 314 313 316 318 320 308 307 309 308 307 306 306 305 304 302 301 301 301 302 302 302 302 302 302 302 302 302 302 302
334 334 334 334 333 334 333 328 325 320 317 319 321 321 315 312 314 316 318 310 307 306 305 305 305 304 303 303 301 301 301 301 301 301 301 301 301 301 301 301 301 301 301
333 332 333 333 336 334 333 330 323 319 317 318 320 321 318 313 312 312 315 313 305 305 304 304 304 303 303 301 301 301 301 301 301 301 301 301 301 301 301 300 300 300 300
334 332 332 332 331 331 331 330 324 324 321 320 320 321 320 314 311 311 311 312 308 305 304 303 303 302 301 301 301 301 301 301 301 301 300 300 300 300 299 299 299 299 299
335 333 332 333 330 333 330 329 325 326 322 320 319 319 320 315 310 310 308 306 308 309 305 303 302 301 301 301 300 301 301 301 301 300 299 299 299 298 298 298 299 301 302
335 335 333 333 333 331 330 327 325 326 323 321 320 320 320 313 309 308 306 305 305 304 305 303 302 301 301 301 301 300 300 300 300 299 298 298 298 298 298 300 304 305 307
337 336 334 333 333 333 332 329 324 324 324 321 319 318 316 315 309 308 306 305 304 303 302 303 303 303 302 301 301 301 301 300 300 298 298 298 297 297 299 303 305 306 306
334 336 334 332 332 331 331 330 326 324 324 324 322 319 312 312 311 306 305 305 304 303 303 303 303 303 303 303 303 301 301 300 299 298 297 297 296 296 298 303 305 305 306
333 337 337 333 332 332 331 330 328 325 323 323 324 321 314 312 311 308 305 304 303 303 303 303 303 303 304 303 303 302 301 300 299 297 297 296 296 296 298 302 304 304 305
326 327 337 334 331 331 331 329 329 328 323 324 323 322 320 313 310 308 306 304 303 303 303 303 303 303 303 303 302 302 302 301 299 297 297 296 295 295 298 301 302 304 304
325 322 329 334 333 330 329 329 328 328 326 324 326 324 323 319 313 311 309 308 305 304 303 302 303 302 303 302 301 301 301 300 298 296 296 295 294 294 297 301 302 302 302
331 332 330 332 334 333 328 328 328 327 327 326 327 325 324 324 323 314 309 309 309 307 305 303 303 302 302 301 299 300 300 299 297 296 296 295 293 293 294 295 297 298 299
329 331 329 327 328 331 331 330 327 327 327 326 327 326 324 324 323 323 315 307 308 305 304 301 302 301 300 301 299 299 299 296 295 295 294 293 292 293 292 292 290 291 294
324 327 326 323 321 327 328 327 326 325 325 325 326 326 325 325 321 321 314 305 304 304 303 302 302 301 299 299 298 299 295 294 295 295 294 293 292 291 291 290 290 290 291
323 322 322 328 325 322 324 324 325 322 324 323 322 322 322 322 318 319 314 304 309 306 301 300 301 298 297 295 294 294 294 293 296 297 296 294 291 291 290 289 289 289 289
317 311 317 321 325 325 324 324 323 321 321 321 321 320 321 320 317 314 309 309 304 301 303 301 301 300 300 296 295 297 300 302 301 301 300 292 290 290 289 289 289 289 289
314 310 310 312 315 318 321 319 319 319 319 318 318 320 319 315 310 305 306 312 309 306 303 301 299 299 299 299 302 303 302 301 297 291 292 290 288 288 288 288 288 288 290
310 310 310 311 311 313 317 316 316 316 315 314 315 314 315 313 310 309 308 303 304 305 303 302 302 303 303 302 301 299 299 293 293 291 288 288 288 288 287 287 286 287 288
310 310 311 310 312 312 313 315 316 314 314 313 311 311 310 308 308 304 301 302 303 304 303 301 302 302 300 299 296 293 293 289 288 288 288 288 287 286 286 287 288 288 288
310 310 310 310 311 311 313 314 313 313 311 309 307 306 305 304 303 303 302 303 303 302 301 299 299 297 295 291 288 288 288 288 288 287 287 286 286 286 287 288 288 288 288
310 310 310 310 310 311 312 311 310 308 306 304 302 301 301 301 301 302 301 301 300 299 297 296 295 289 288 289 289 288 288 287 287 287 286 286 286 286 287 287 288 288 288
310 309 307 307 308 308 306 305 304 302 301 301 301 300 301 300 301 300 299 298 297 298 291 288 287 288 289 288 288 288 287 287 285 285 285 285 286 286 287 288 288 288 288
306 305 304 302 302 301 300 299 298 298 299 299 299 299 299 298 297 297 297 294 287 286 286 287 288 287 288 287 287 287 285 285 285 285 285 286 286 287 288 288 288 288 288
302 301 300 299 299 297 297 297 298 299 299 298 298 297 297 295 292 289 287 286 285 285 285 285 286 286 286 286 285 285 285 284 284 284 285 285 286 286 287 288 288 288 288
300 299 297 298 298 298 297 297 297 298 297 297 297 294 289 287 286 285 285 285 285 286 286 285 284 283 283 283 283 282 283 283 284 285 285 285 287 286 287 289 289 289 288
298 297 297 297 297 297 297 297 297 297 291 288 286 285 284 284 284 284 284 287 286 285 284 283 284 283 283 283 283 284 284 284 284 284 285 285 285 285 284 288 288 288 289

GFSMA_850_thetae_036.txt.gz
Theta_e
334 332 334 333 332 328 328 327 323 320 318 319 320 320 320 315 315 315 317 317 311 311 309 307 306 306 306 305 303 302 302 302 303 303 302 302 302 302 302 302 302 302 302
336 334 333 334 333 332 332 330 329 323 321 318 318 320 320 317 314 316 316 315 311 306 307 305 305 305 304 303 302 302 302 302 302 302 303 302 302 302 301 301 301 301 301
335 335 335 331 332 333 333 332 330 327 322 319 318 318 320 319 314 314 313 313 310 306 305 305 305 304 303 303 302 302 302 302 302 302 302 302 302 301 300 300 300 300 300
334 333 333 331 332 330 333 333 331 328 322 321 320 318 320 319 317 313 312 312 310 307 304 304 304 303 303 302 301 301 302 302 302 302 301 301 301 300 299 299 299 299 300
335 334 333 332 332 333 332 332 329 330 326 323 321 319 319 319 318 313 312 311 309 307 305 304 304 303 303 301 301 301 302 303 303 303 302 301 301 300 299 298 299 301 304
335 334 333 333 332 332 332 330 328 330 328 324 321 317 318 318 318 313 311 310 308 306 306 305 304 303 302 301 301 302 302 302 303 303 302 301 299 299 298 298 300 303 307
338 333 331 330 333 332 333 331 330 329 326 322 318 316 315 317 317 315 311 310 308 306 305 304 304 303 303 302 302 302 302 302 302 302 301 300 300 299 298 298 300 303 305
337 338 335 332 330 332 332 332 330 330 327 322 320 317 314 315 318 317 312 309 308 307 305 304 303 303 303 304 304 304 303 302 302 301 300 300 300 299 298 298 298 301 305
331 332 336 334 335 332 332 332 331 330 329 323 322 320 316 318 318 318 315 310 307 307 306 304 303 302 303 304 304 304 303 302 302 301 301 299 299 298 298 297 299 302 304
323 324 328 332 332 334 333 332 329 328 329 327 321 321 320 319 316 314 314 310 306 306 305 304 303 302 302 302 304 304 304 302 302 301 301 298 298 298 298 297 299 301 304
329 328 328 326 332 331 332 331 332 328 327 327 327 324 320 319 316 316 316 314 308 306 305 304 303 302 302 301 302 303 304 303 301 301 300 297 297 296 296 296 296 297 298
329 329 329 330 328 328 329 329 330 330 328 326 326 324 323 322 320 314 313 315 313 311 307 304 302 302 301 301 301 301 302 302 301 300 298 296 296 296 296 295 295 294 293
329 328 328 328 329 326 326 326 328 328 326 326 324 324 322 320 321 322 318 312 312 308 305 302 301 300 299 299 299 299 299 299 298 298 296 295 294 295 295 295 294 293 292
326 327 326 326 325 326 325 323 324 324 326 324 323 322 320 320 320 320 317 316 308 307 304 305 305 299 298 298 298 297 299 296 295 294 294 294 297 299 298 295 292 292 290
324 323 322 322 322 321 322 322 321 322 322 322 322 320 318 318 319 317 316 314 312 307 304 301 303 302 300 302 298 299 300 295 300 296 297 302 304 302 296 293 294 295 290
319 317 312 311 314 319 320 320 319 320 320 321 321 319 318 317 317 316 314 311 309 308 304 303 306 309 307 305 305 302 301 297 300 301 302 301 300 296 296 294 290 289 289
316 315 312 310 310 310 313 314 316 316 318 318 317 317 316 316 315 313 312 309 306 305 305 307 308 305 304 305 304 303 299 300 301 301 300 297 294 290 289 288 288 289 288
313 311 310 310 311 310 310 310 312 312 312 314 314 313 313 312 311 309 307 306 304 305 304 304 304 304 302 302 300 298 299 300 299 295 294 290 288 289 288 288 287 287 288
311 310 310 310 310 310 310 311 311 312 311 314 313 311 308 307 306 305 303 302 304 303 305 303 303 301 300 299 298 299 299 296 290 288 289 288 288 287 287 287 288 288 289
310 310 310 310 310 310 310 310 311 312 312 312 310 308 305 303 303 302 302 300 301 302 301 301 300 300 299 299 297 290 289 289 288 288 287 287 286 286 286 287 287 288 288
309 309 308 308 308 308 309 310 309 309 308 306 304 303 302 302 300 300 299 300 299 299 299 299 298 297 295 289 289 289 288 288 288 287 286 286 285 285 287 287 287 287 288
307 308 308 308 309 308 307 306 305 303 302 301 301 300 300 300 299 299 298 299 298 298 298 297 291 288 288 289 288 288 288 287 286 285 285 286 286 288 288 288 288 288 288
305 306 305 305 304 303 301 300 299 300 299 299 298 298 298 298 298 298 298 297 295 290 287 287 287 287 287 287 287 286 286 285 284 284 284 287 287 288 288 288 288 288 288
303 302 301 301 300 299 298 298 298 299 298 298 297 297 297 296 296 295 291 286 286 285 285 285 285 285 286 286 285 285 284 283 284 284 284 286 287 288 288 288 289 289 289
299 299 299 299 299 298 297 297 297 297 297 297 296 293 290 287 286 285 285 285 285 286 286 286 285 284 284 283 283 283 283 283 285 286 286 286 287 287 288 289 289 289 288
299 298 298 298 298 297 296 296 296 294 289 287 286 285 285 284 284 284 284 285 285 286 285 284 283 283 283 283 283 284 285 285 284 285 285 285 286 286 286 290 289 289 289

GFSMA_850_thetae_039.txt.gz
Theta_e
329 330 332 329 328 329 321 321 320 320 318 318 319 319 319 319 317 316 316 315 316 314 310 307 306 306 305 305 304 303 302 303 303 303 303 303 303 303 303 302 302 302 302
335 333 333 333 332 333 331 327 329 328 325 320 318 318 318 319 318 316 316 315 315 314 309 307 305 305 305 304 303 302 302 303 303 303 303 303 302 302 302 302 302 302 301
334 336 336 335 332 330 333 332 331 330 330 325 323 319 317 318 317 317 316 315 314 313 309 307 305 305 304 304 303 302 302 302 302 303 303 303 303 302 302 302 301 301 301
333 333 334 333 333 332 331 332 331 330 328 328 324 320 318 317 316 317 317 315 314 313 310 306 305 304 304 304 303 302 302 303 303 303 304 303 303 303 302 301 301 300 300
335 334 333 333 333 333 331 332 330 331 330 328 328 323 320 318 318 316 317 316 314 313 311 307 305 304 304 303 302 302 302 303 304 304 304 304 303 303 301 301 300 300 300
335 335 335 335 333 333 332 332 333 332 331 328 329 327 321 318 316 317 316 316 316 313 311 308 306 304 304 303 302 302 302 302 303 304 305 305 304 304 302 300 300 300 301
335 336 333 332 334 333 332 332 332 332 331 328 326 326 320 317 316 317 315 314 315 315 312 309 307 305 304 303 302 301 301 301 302 303 304 303 304 303 302 300 299 299 301
331 333 335 335 332 333 333 332 331 331 330 329 328 324 314 315 317 318 317 316 314 313 312 310 307 305 304 303 302 301 301 301 301 301 302 302 301 301 301 300 299 299 300
326 328 328 329 332 333 333 331 328 328 328 328 328 325 315 316 320 320 318 317 315 313 312 310 307 306 304 303 302 302 301 301 301 300 300 300 300 299 299 299 299 299 301
324 325 325 327 327 329 330 331 330 329 330 329 328 327 324 321 319 319 319 318 315 313 311 309 308 306 304 303 302 302 302 301 301 300 299 299 299 298 297 298 299 301 301
327 326 326 325 328 327 329 332 332 331 329 329 329 327 323 319 317 316 317 319 316 314 311 308 307 306 304 303 302 301 301 300 300 299 299 298 297 296 296 299 300 297 297
323 326 327 327 327 327 327 327 328 328 329 330 329 328 326 323 319 316 315 316 317 316 313 312 307 306 304 303 302 301 300 300 299 298 298 298 297 296 296 296 296 296 297
324 326 327 328 327 326 326 325 325 325 327 327 328 327 325 322 319 319 317 314 312 311 310 309 308 303 302 302 301 300 300 299 297 297 298 296 297 295 295 296 296 298 298
316 320 324 323 324 324 323 320 322 322 322 323 323 323 323 323 322 320 317 316 311 309 308 306 305 302 301 299 298 297 298 298 298 301 301 302 297 298 297 302 303 300 297
322 322 321 320 321 320 316 319 320 320 320 320 319 320 320 319 320 321 318 317 314 309 307 305 304 305 302 302 302 302 297 301 306 305 304 304 302 302 303 301 296 295 296
318 319 320 316 313 310 310 312 315 316 317 318 318 319 318 318 318 317 316 315 312 309 307 307 306 305 308 305 303 303 301 303 303 302 301 300 300 298 295 293 293 292 292
313 315 315 313 310 310 310 311 311 310 310 310 311 312 314 315 315 313 313 311 309 307 306 306 306 306 304 305 304 304 304 301 300 300 301 298 298 295 291 290 289 291 291
314 314 313 311 310 310 310 311 311 311 312 312 312 312 311 311 313 311 309 307 306 304 302 303 304 304 304 304 304 302 301 300 299 299 298 296 294 289 290 289 288 288 289
310 310 310 310 310 310 309 309 310 310 311 311 311 310 310 311 309 307 306 305 304 302 302 301 302 303 302 302 300 299 299 297 297 296 290 289 289 288 287 286 287 289 289
309 310 310 309 309 309 308 309 308 308 310 309 309 308 308 306 304 304 303 302 301 301 300 300 301 300 299 299 297 296 296 292 290 288 288 288 287 286 285 285 286 287 287
309 309 309 308 308 308 307 308 308 308 308 308 307 306 305 303 301 300 299 300 300 300 299 299 299 298 297 296 294 290 289 288 288 288 287 286 285 285 286 287 287 287 288
306 307 307 308 307 307 307 306 306 305 304 303 303 302 301 300 300 299 298 298 298 298 297 296 296 296 290 288 289 288 287 287 286 286 285 285 286 288 288 288 288 288 288
306 307 305 304 304 302 300 300 300 301 301 301 300 299 299 298 297 297 296 296 295 293 292 290 288 288 288 288 287 286 286 286 285 284 284 287 287 289 288 289 289 289 289
303 302 302 301 301 300 299 298 297 298 298 298 298 298 297 296 296 296 295 289 286 285 285 285 285 285 285 285 286 285 285 284 284 284 284 287 288 289 289 289 289 289 289
300 300 300 299 299 299 298 296 296 296 296 296 296 294 291 287 286 285 285 285 285 286 286 286 286 285 284 284 284 283 283 283 285 286 286 287 287 288 289 290 290 289 289
299 298 296 295 293 291 289 289 288 287 287 287 286 286 285 285 284 284 284 284 285 285 285 285 284 283 283 283 283 284 285 285 285 286 286 286 287 286 288 290 289 289 289

GFSMA_850_thetae_042.txt.gz
Theta_e
324 325 327 329 329 326 326 320 318 319 319 319 318 318 319 319 318 316 316 316 316 316 316 313 308 307 306 306 305 303 303 303 303 303 304 304 304 304 303 303 303 303 303
332 332 332 331 332 332 331 331 327 326 326 324 321 319 318 318 319 318 317 316 316 316 315 314 309 306 305 305 305 303 302 303 303 303 304 304 304 303 303 303 302 302 302
332 332 333 333 334 334 333 331 332 329 328 328 328 325 321 317 317 318 318 317 317 316 315 314 310 307 305 305 304 303 302 303 303 304 304 304 304 304 303 303 302 302 302
334 333 333 332 333 334 334 332 330 331 330 330 329 328 325 320 318 317 318 317 316 316 315 313 311 307 305 305 304 303 302 302 303 303 304 304 304 304 303 302 302 301 301
336 335 334 333 333 333 333 333 332 331 330 330 330 329 327 326 320 318 317 317 317 316 315 314 312 308 305 305 305 304 302 302 302 302 303 303 303 303 303 303 302 301 301
337 337 335 334 334 334 333 333 333 332 332 332 331 330 328 326 324 320 318 316 317 316 315 314 312 309 306 305 304 304 303 302 302 302 302 302 302 302 302 301 301 300 300
333 332 333 334 335 335 334 333 332 332 330 330 330 331 329 325 325 326 320 317 316 316 315 314 313 311 307 306 304 303 303 304 301 301 301 301 302 301 300 300 299 300 300
333 332 331 330 331 333 333 332 332 332 329 328 330 329 327 326 326 327 324 321 320 316 316 315 313 311 309 307 305 303 302 301 302 301 301 301 300 300 300 298 299 299 300
328 331 329 329 330 329 329 329 329 331 330 328 327 327 325 323 324 324 324 322 319 317 316 315 314 311 309 308 306 305 302 300 300 306 305 302 300 299 299 298 298 299 302
319 319 322 325 324 326 329 328 328 329 329 329 328 328 327 327 322 321 322 322 319 315 314 313 312 311 309 308 307 305 303 300 299 303 307 304 301 300 298 298 301 302 304
315 316 320 324 325 324 323 327 327 327 327 327 327 328 328 327 325 322 320 319 320 318 316 314 311 310 308 307 306 305 303 301 300 299 300 304 303 303 302 303 304 304 302
312 313 316 320 323 327 326 325 326 326 326 326 326 326 324 324 323 319 318 318 317 314 315 314 312 310 307 307 307 305 303 300 300 299 298 300 301 301 301 302 301 300 297
311 313 320 325 328 326 326 325 324 323 322 321 322 323 322 322 322 321 319 319 314 317 316 312 313 310 309 307 307 303 302 301 299 298 298 299 298 300 301 302 303 298 298
313 314 316 321 325 323 322 321 322 321 318 320 319 320 319 320 321 322 320 318 315 314 314 311 312 310 307 306 309 305 301 301 303 300 299 299 301 300 305 305 302 300 300
314 319 320 320 320 320 321 320 317 315 317 318 317 318 317 317 317 317 317 317 313 311 311 311 310 310 309 308 307 304 303 302 301 302 302 301 300 302 301 302 301 301 301
312 316 318 318 319 315 311 309 309 309 311 311 313 314 315 315 313 315 315 313 312 311 309 308 308 308 307 306 305 303 301 301 301 301 300 300 300 300 300 298 298 298 295
313 313 314 315 314 312 310 310 310 310 310 310 310 310 312 312 315 314 313 313 312 309 308 306 304 305 305 304 302 302 300 301 301 300 300 299 298 297 296 297 295 293 293
312 313 313 313 312 310 310 310 310 310 310 311 311 311 311 310 311 309 308 308 308 306 304 304 301 303 301 302 301 301 301 298 298 299 297 296 297 297 295 291 292 291 290
309 310 310 310 310 309 309 309 309 309 309 309 309 308 308 308 307 308 308 306 305 304 302 301 300 300 299 300 300 299 298 297 297 296 297 294 290 290 290 289 288 289 288
309 309 309 309 309 308 308 308 308 308 308 307 307 306 307 307 306 305 304 303 303 301 300 300 299 299 299 299 298 297 297 298 295 291 290 288 288 288 287 286 286 286 286
308 308 309 308 308 307 307 307 307 307 307 307 307 307 306 304 303 303 303 301 300 299 298 298 298 298 298 297 297 296 295 292 289 288 288 287 286 286 285 285 286 287 287
307 307 307 306 306 306 306 305 305 304 303 302 302 303 302 302 301 301 301 301 299 299 298 297 296 296 296 295 291 289 288 287 287 287 286 285 285 286 287 287 288 288 288
305 304 304 303 303 302 301 301 300 300 300 300 300 299 299 298 298 298 298 297 297 296 296 295 292 289 288 288 288 287 286 286 286 285 284 285 287 288 288 288 288 288 288
302 302 302 301 301 301 299 298 296 297 298 298 298 298 298 297 296 296 296 294 291 288 286 286 286 286 285 285 285 285 285 285 284 284 284 286 288 289 289 288 289 289 289
301 301 301 300 298 295 292 291 290 289 290 290 290 289 288 287 286 286 286 285 285 285 286 286 286 285 285 284 284 284 284 283 283 285 286 287 288 288 289 290 290 289 289
296 293 291 290 290 289 288 288 287 287 287 287 286 286 285 285 285 285 284 284 284 284 284 284 284 284 283 283 283 283 283 284 284 286 286 286 286 286 288 289 288 288 288

GFSMA_850_thetae_045.txt.gz
Theta_e
325 319 320 325 326 328 325 325 323 319 319 319 319 319 318 318 318 318 318 317 316 316 317 317 316 313 308 306 306 305 303 303 303 304 304 304 303 303 303 303 303 303 303
331 330 330 330 329 330 332 331 330 330 327 327 326 324 320 319 319 318 318 317 317 317 316 317 316 315 311 306 305 305 303 303 303 303 303 304 303 303 303 303 303 303 303
332 332 332 331 332 333 333 333 333 331 330 330 329 329 328 326 323 319 317 317 317 317 317 316 315 315 313 308 307 305 303 302 303 303 303 303 303 303 303 303 302 302 302
336 335 333 332 332 333 333 334 334 333 332 331 330 330 329 329 327 325 321 318 316 316 316 316 315 314 313 312 311 312 305 302 302 302 302 303 303 303 302 302 301 301 301
336 336 335 333 333 333 333 333 333 333 333 332 331 331 330 330 329 328 327 325 322 318 317 316 316 315 313 312 313 315 313 306 302 301 301 302 302 303 302 302 301 300 301
337 337 337 336 335 335 335 334 333 333 333 332 331 331 331 330 328 327 327 326 326 324 319 316 316 315 314 312 312 315 314 313 305 301 301 301 301 301 301 300 300 300 301
335 335 334 334 334 334 334 334 334 332 332 331 330 329 328 329 329 329 328 326 326 327 322 317 315 314 314 312 310 311 313 313 312 306 301 301 301 299 300 300 300 301 302
333 331 331 331 331 331 331 331 330 329 330 330 330 329 329 327 326 325 326 325 325 325 324 319 315 314 314 313 311 309 308 312 313 311 307 304 302 301 301 302 301 300 303
333 333 332 331 332 331 329 330 330 329 329 329 329 329 326 326 325 325 325 324 323 322 320 315 313 312 312 312 311 309 309 307 310 311 310 309 308 306 305 302 303 305 307
320 321 319 319 321 323 323 325 326 326 328 328 327 327 328 328 326 325 324 323 323 322 323 318 312 311 311 311 311 310 308 307 305 302 308 310 309 307 306 305 305 306 307
315 316 316 316 316 320 323 324 325 327 326 326 325 326 324 325 325 323 320 321 321 321 319 319 318 317 315 309 310 309 308 307 305 301 305 308 308 307 306 305 305 306 306
311 311 311 312 313 319 323 326 327 326 325 323 321 321 323 324 323 322 322 321 320 319 319 319 317 318 317 315 309 309 308 308 308 304 304 302 305 305 304 304 304 303 303
311 311 311 312 318 324 325 328 325 324 322 321 321 320 319 319 318 319 320 319 317 317 317 317 316 316 314 313 311 310 307 307 307 306 303 302 302 301 301 300 299 300 303
312 312 312 314 317 321 327 325 323 320 320 321 317 319 317 317 317 316 316 317 316 315 315 314 314 313 312 312 313 308 307 306 307 303 302 301 300 300 300 301 299 302 303
312 312 314 318 318 319 319 320 320 320 317 313 314 316 317 318 318 314 315 315 315 313 312 310 309 309 308 309 308 308 305 304 305 304 301 301 301 300 299 300 299 299 300
311 311 312 318 317 316 317 314 311 310 310 310 310 311 311 311 314 314 314 312 311 311 309 309 310 308 306 305 305 304 303 302 302 300 300 300 299 299 298 298 298 298 298
311 312 313 314 315 314 313 311 309 309 310 310 310 310 310 310 311 311 309 309 309 309 309 309 308 306 303 300 300 300 299 299 299 299 299 298 298 297 298 298 297 297 297
310 311 312 312 312 311 311 310 310 310 310 309 309 309 309 309 308 308 307 307 307 307 306 306 303 303 302 300 299 298 297 297 298 297 298 298 298 297 298 297 297 295 293
308 309 310 310 309 309 309 309 309 309 309 308 308 307 307 306 306 306 306 306 305 305 303 302 301 302 300 299 298 298 297 297 297 297 297 297 297 297 296 293 292 291 290
307 308 308 309 309 308 308 308 307 307 307 307 307 306 307 307 307 306 305 304 303 302 302 301 300 300 299 299 298 297 296 296 296 296 296 296 294 290 289 289 288 288 287
307 308 308 307 307 307 307 307 307 307 307 306 306 306 305 304 302 302 301 300 300 300 300 299 299 298 298 297 297 296 296 295 295 292 290 288 288 288 287 286 286 286 286
305 306 306 306 306 305 305 305 304 304 303 303 303 302 301 300 300 299 300 300 300 298 298 298 297 296 295 295 293 291 290 289 288 288 287 287 286 286 285 285 287 287 288
304 304 305 304 304 302 302 302 302 301 300 300 300 299 298 298 298 298 298 297 296 296 296 295 293 290 288 288 287 287 287 286 285 285 285 285 285 286 287 287 288 288 288
303 303 302 301 301 300 298 295 294 294 294 295 295 296 295 294 293 292 290 289 288 287 286 286 286 286 286 285 285 285 285 285 284 284 283 285 287 288 288 288 288 288 288
301 300 299 294 291 291 290 289 290 289 289 288 288 287 287 286 286 287 286 285 285 285 285 285 285 285 285 285 284 284 284 284 283 284 285 286 287 288 289 289 289 289 289
294 291 290 290 289 289 288 288 288 287 287 286 286 285 285 285 284 284 285 284 284 284 284 284 284 284 283 283 282 283 283 283 284 285 286 286 286 287 288 289 288 288 288

GFSMA_850_thetae_048.txt.gz
Theta_e
325 323 317 319 322 324 327 325 327 328 326 323 321 320 319 318 318 318 318 317 317 316 317 317 317 317 316 313 307 306 305 303 303 303 304 304 303 303 303 303 303 303 304
330 330 327 327 328 329 330 331 331 331 330 329 329 328 327 326 325 323 320 318 317 317 317 317 317 317 317 317 312 306 305 304 302 303 303 303 303 303 303 303 303 303 303
333 332 331 331 331 331 332 332 332 332 332 332 330 330 329 329 329 328 326 323 320 318 317 316 316 316 316 318 317 315 308 305 303 303 303 302 302 302 302 302 302 302 303
335 335 334 333 332 332 332 332 332 333 333 333 332 332 331 331 330 330 329 329 326 325 321 318 317 316 316 315 317 318 318 313 304 302 302 302 301 301 302 302 301 301 302
336 335 334 334 335 335 334 334 334 333 333 333 333 333 332 332 330 329 327 327 327 326 326 324 319 316 316 315 315 318 319 318 314 304 302 302 301 301 300 301 301 301 301
337 337 336 336 337 336 335 334 334 334 334 333 332 331 330 330 329 329 328 328 328 327 326 325 325 319 315 315 314 316 318 318 316 312 305 302 301 301 300 300 300 301 303
336 337 336 335 334 332 332 332 332 331 331 330 330 329 328 328 328 328 327 326 325 325 326 324 321 320 315 314 314 313 316 317 316 315 312 305 302 301 302 303 305 304 307
334 336 336 334 331 332 330 330 331 331 330 329 330 331 329 327 326 326 325 325 325 324 324 323 321 318 314 312 313 313 312 315 316 315 314 311 309 307 307 307 308 308 308
334 335 334 333 333 333 331 329 330 328 328 327 328 329 326 325 324 324 324 324 324 324 323 321 321 319 314 312 312 312 312 312 312 314 315 313 310 309 308 309 307 307 307
320 321 321 322 321 320 319 320 323 325 326 325 326 326 324 324 324 323 322 322 323 322 321 321 320 321 318 315 315 313 312 311 310 310 313 313 312 310 309 308 307 307 307
315 315 315 315 315 315 315 316 324 325 325 326 325 324 322 323 324 323 321 321 319 319 320 318 317 318 318 317 317 313 311 311 311 310 309 306 307 311 309 308 307 307 308
311 311 311 311 311 311 313 314 325 325 325 324 324 321 321 321 319 320 319 317 318 317 316 316 316 315 315 314 315 315 315 313 310 310 309 307 305 308 308 307 305 304 305
311 311 311 311 311 311 314 320 322 325 324 325 321 319 319 318 318 318 317 317 316 314 315 314 314 313 313 313 311 311 312 311 310 310 309 308 307 305 306 305 305 304 303
311 312 312 312 313 316 318 322 323 326 324 321 320 321 317 316 320 319 318 316 314 312 311 312 312 312 310 310 310 309 308 309 308 308 308 307 306 305 305 304 304 302 302
310 310 311 312 317 319 319 319 319 320 320 320 319 314 313 314 317 315 316 312 313 311 310 309 309 309 310 309 308 306 306 307 305 305 306 303 304 305 303 301 301 301 301
310 311 311 312 315 318 316 316 315 312 310 310 311 311 310 310 310 309 312 310 309 309 309 309 309 308 306 305 305 304 303 302 302 304 302 301 302 301 300 300 299 299 299
310 311 312 313 314 315 314 313 311 310 310 310 310 310 309 309 309 308 307 308 308 307 307 307 307 306 304 304 303 302 302 299 299 300 299 299 299 299 299 298 298 298 298
309 310 311 311 312 312 311 311 310 310 309 309 309 308 308 308 307 306 306 306 306 306 305 304 305 304 303 302 301 300 300 299 298 298 298 298 298 298 297 297 297 297 297
307 308 308 309 310 309 309 309 308 308 308 308 308 307 307 306 306 306 306 306 304 303 303 303 302 302 301 301 300 299 298 297 297 297 297 297 297 296 296 296 296 295 295
305 307 308 308 308 308 308 307 307 307 307 307 306 306 306 305 305 305 305 304 303 301 301 301 301 301 300 300 299 298 298 297 297 297 297 297 296 296 296 295 293 292 290
304 307 308 307 307 306 306 306 306 306 306 306 305 305 304 304 303 302 302 300 298 299 300 299 299 299 298 298 297 297 296 295 295 295 294 292 290 289 288 288 288 287 286
304 306 306 305 305 304 304 304 304 304 304 303 303 303 302 301 300 300 299 299 299 298 297 297 297 297 296 295 293 291 290 289 288 288 287 287 286 286 286 286 285 285 286
304 304 304 303 303 302 301 301 301 300 300 300 299 299 299 299 298 297 296 296 295 294 292 290 289 288 287 287 286 286 286 286 286 286 285 286 285 285 285 286 287 288 288
303 303 302 302 298 294 292 291 290 290 289 289 289 289 289 288 288 287 287 286 286 286 286 286 286 286 286 285 285 285 285 284 284 284 284 285 286 287 288 288 289 289 289
300 300 296 291 291 290 290 289 289 288 288 287 287 287 286 286 285 286 285 285 285 285 284 284 284 284 284 284 284 284 283 283 283 283 285 286 287 288 289 289 289 289 289
296 291 290 290 289 289 289 288 288 288 287 287 286 286 285 285 285 285 285 284 284 284 284 283 283 283 283 282 282 282 282 282 283 285 285 285 286 287 287 288 288 288 288

GFSMA_850_thetae_051.txt.gz
Theta_e
324 323 318 317 319 320 325 328 327 329 329 329 327 326 327 326 324 322 322 321 319 317 317 317 317 317 317 317 317 313 306 305 303 303 303 304 304 304 304 304 304 304 305
328 330 329 324 326 328 329 330 331 331 331 331 330 330 329 329 329 328 328 326 324 321 319 317 317 317 318 317 318 317 313 306 304 303 303 303 303 303 303 303 303 304 304
333 333 332 331 331 331 331 331 331 332 331 331 331 331 331 331 330 330 330 329 329 327 325 322 318 317 317 318 320 320 319 314 309 304 303 303 303 303 303 303 303 303 304
334 335 334 333 334 333 332 332 332 332 332 332 332 332 332 332 332 331 330 328 327 326 327 326 325 321 316 318 320 322 320 319 316 309 307 303 302 302 302 302 302 303 303
335 335 335 335 335 335 335 335 334 334 334 333 333 333 332 331 330 329 329 328 328 328 328 327 325 323 319 316 316 321 321 319 318 316 311 307 304 302 301 301 302 301 302
335 335 336 336 336 336 336 335 334 333 332 331 330 330 329 327 328 328 328 329 328 328 327 327 325 322 320 317 315 316 320 319 319 317 316 310 306 303 302 302 301 301 302
335 335 336 336 336 335 332 330 330 330 330 329 330 327 326 327 326 325 325 325 326 325 325 325 324 322 320 317 315 314 315 318 319 318 317 315 313 307 307 307 308 307 306
334 334 333 331 333 334 334 332 332 331 331 330 329 330 327 324 323 323 323 323 323 323 324 324 323 321 320 317 316 313 313 316 318 319 319 316 315 313 308 310 309 310 309
335 335 333 333 334 334 333 332 333 329 328 329 326 326 325 324 323 322 322 323 321 322 323 322 321 321 321 320 317 312 312 313 314 315 318 318 315 313 310 309 309 309 309
321 321 321 320 320 320 320 320 319 320 323 326 326 326 325 325 324 322 321 321 321 321 319 319 319 318 317 318 317 317 313 313 313 315 314 313 316 313 312 309 308 309 308
314 314 314 314 313 313 313 313 313 315 319 327 325 325 324 323 321 321 318 317 318 315 317 317 316 316 316 316 316 315 316 316 313 313 314 313 312 313 313 311 309 308 305
310 310 310 310 310 310 310 311 312 313 322 327 325 325 324 322 321 321 317 316 315 316 314 314 314 314 314 313 313 313 313 314 314 313 313 313 312 310 310 309 311 308 307
311 311 311 312 312 311 311 311 312 320 322 326 325 324 322 319 320 320 316 315 315 314 312 310 311 312 312 311 310 310 310 310 310 310 311 312 312 311 308 307 309 308 307
310 310 310 311 311 313 315 316 317 325 323 325 325 322 320 320 320 315 316 314 313 311 311 310 309 309 309 309 309 309 307 308 308 307 310 310 311 310 308 308 307 306 305
310 310 310 310 311 315 318 318 318 319 321 322 320 319 319 317 312 313 314 313 312 311 310 309 308 307 307 306 305 307 307 306 305 306 306 307 309 308 307 306 304 304 304
310 310 310 311 312 313 316 317 315 315 314 314 312 310 310 311 310 311 309 310 309 309 308 307 306 306 305 304 304 304 304 303 303 304 304 305 307 304 305 304 304 301 302
309 310 310 311 312 313 314 314 313 312 311 310 310 310 309 309 308 308 308 307 306 306 305 305 304 304 304 304 304 304 303 300 301 303 304 305 303 302 302 302 301 300 299
308 309 309 310 311 311 312 311 311 310 310 309 309 308 308 308 307 307 306 306 305 305 304 304 304 304 304 303 303 302 302 301 300 300 301 300 299 299 299 299 299 298 298
307 307 308 309 309 310 309 309 308 308 308 308 307 307 307 307 306 306 306 306 304 302 302 303 303 303 303 302 302 302 301 301 300 299 298 299 299 298 298 298 298 297 296
304 305 307 308 308 308 308 307 307 307 307 307 306 306 306 306 305 305 305 304 302 300 300 302 301 300 300 300 300 299 299 299 300 299 299 298 298 298 298 298 297 297 296
302 304 306 307 307 306 306 306 306 306 306 306 305 305 305 304 304 303 302 301 300 299 298 297 297 298 298 298 297 297 296 295 295 295 295 295 294 293 291 290 289 289 289
303 305 306 305 305 305 305 305 305 304 304 303 303 303 302 301 300 300 300 300 299 299 298 297 296 296 295 294 291 289 288 288 287 287 287 287 286 286 286 286 286 286 286
304 304 304 303 303 302 302 302 301 300 299 298 297 297 297 296 296 294 292 290 288 288 288 287 287 287 287 286 286 286 286 286 285 285 285 286 285 285 285 286 286 287 287
302 302 302 301 298 294 292 290 290 289 289 289 289 288 288 288 288 287 287 287 286 286 286 286 286 285 285 285 285 285 285 284 284 284 284 284 286 287 287 288 288 289 289
301 301 299 292 291 290 289 288 288 288 287 288 287 287 287 287 287 286 286 286 286 285 285 284 284 284 284 284 284 284 283 283 283 284 286 286 287 288 288 289 289 289 289
300 293 291 290 289 288 289 288 288 288 287 287 287 286 286 286 285 285 285 285 284 284 284 284 283 283 283 283 283 283 283 283 284 285 286 286 286 287 288 288 288 289 289

GFSMA_850_thetae_054.txt.gz
Theta_e
324 323 317 316 317 318 320 327 328 328 329 329 329 329 329 329 328 328 328 327 325 321 318 317 318 318 318 318 318 317 317 310 305 303 303 304 304 304 304 304 304 304 305
327 329 329 322 321 325 327 328 330 331 331 331 331 331 331 330 330 330 329 329 329 329 325 322 319 317 319 322 321 320 318 317 312 305 303 303 303 303 303 304 304 304 305
330 331 332 331 331 331 331 331 331 331 331 331 331 331 331 331 331 330 330 330 329 327 327 326 326 323 319 322 322 322 321 320 318 314 306 304 303 303 303 303 304 304 306
333 334 334 334 334 334 333 333 332 332 333 333 333 333 333 332 331 331 330 329 328 328 328 328 327 326 323 321 321 321 321 321 319 318 317 308 304 303 303 302 303 304 306
333 334 335 335 335 335 335 335 335 335 335 334 333 332 332 331 330 328 327 328 328 328 329 328 328 327 324 321 320 320 322 321 321 319 318 317 311 304 302 302 302 303 304
335 335 335 335 336 336 335 335 335 335 333 332 332 330 328 328 326 326 327 325 325 325 327 328 328 326 325 322 320 319 320 320 320 320 319 318 317 314 304 303 302 301 303
336 335 334 334 335 335 336 336 334 332 331 331 330 329 329 328 328 327 323 323 323 324 324 324 324 324 323 322 320 317 317 318 319 321 320 319 318 317 315 307 307 307 309
335 335 334 333 333 333 331 333 334 333 332 332 332 331 328 325 325 323 323 322 322 323 322 322 323 323 321 321 320 318 316 315 318 319 321 321 320 317 315 314 310 309 310
331 331 332 333 334 334 333 334 333 332 332 330 326 329 327 323 323 323 323 322 322 322 321 321 320 320 320 319 318 319 316 313 313 314 317 319 320 317 315 314 312 309 306
321 321 322 322 322 322 321 319 318 319 321 323 322 324 326 326 324 323 322 321 320 320 320 319 318 317 318 316 316 317 317 317 315 313 315 316 317 316 314 312 311 311 310
313 313 313 314 314 313 313 312 312 312 313 314 318 327 326 325 325 323 321 320 318 317 317 315 315 315 315 315 314 314 314 314 315 315 315 316 316 317 314 313 312 311 310
310 310 310 310 310 310 310 310 310 311 312 314 315 328 326 324 323 321 319 318 316 315 315 314 312 312 313 313 313 312 312 312 312 313 314 315 315 317 315 312 313 312 311
311 311 311 311 311 311 312 312 312 312 313 319 318 326 327 325 324 320 318 317 315 315 314 312 311 309 309 311 310 310 310 309 309 308 310 311 313 313 316 313 310 309 312
311 310 310 310 310 311 312 314 315 315 315 324 327 327 326 324 321 318 319 316 314 313 312 313 311 310 309 308 308 308 308 309 308 308 308 308 309 312 315 312 310 310 310
310 310 310 310 310 311 313 318 319 319 320 321 321 322 321 319 318 317 314 313 312 312 311 311 309 308 307 307 305 305 307 307 307 306 306 306 308 309 311 311 310 309 308
310 310 310 310 311 312 313 315 316 316 315 316 317 317 316 313 311 310 309 310 310 309 309 309 307 306 305 304 304 304 305 304 304 304 305 305 306 306 307 306 308 307 306
309 309 310 310 311 312 313 314 314 313 313 312 311 310 310 309 309 309 308 308 307 306 306 306 306 305 303 303 303 304 303 303 303 303 303 304 305 305 304 304 304 304 304
308 308 309 309 310 311 311 312 312 311 311 310 310 309 309 308 308 307 307 306 306 304 304 305 304 303 303 303 303 303 302 302 301 302 303 303 304 303 302 301 302 302 302
306 307 307 308 309 309 310 310 310 309 309 308 308 308 307 307 307 306 306 306 305 303 303 302 303 302 302 302 302 302 301 301 301 301 300 301 301 301 300 300 300 299 300
304 304 305 306 308 308 309 308 308 307 307 307 307 307 306 306 306 305 305 305 304 302 300 301 301 300 299 300 300 300 299 299 299 299 300 299 299 299 299 299 299 299 298
303 303 304 305 307 307 307 307 306 306 306 306 306 306 306 305 305 305 304 303 301 300 299 298 297 296 297 296 296 296 295 294 292 293 293 293 294 293 292 292 292 292 292
303 303 304 305 305 305 305 305 305 305 304 304 304 304 303 303 302 301 301 300 300 299 298 297 297 295 293 291 288 288 287 287 289 288 287 288 287 287 287 287 287 287 287
302 303 303 303 303 303 303 303 303 302 301 300 299 297 296 295 294 292 291 289 288 288 288 287 287 287 287 287 286 286 286 286 286 286 285 286 285 285 286 286 287 287 287
301 302 302 302 301 300 295 292 292 291 291 290 290 289 289 288 288 287 287 287 286 286 286 286 286 286 285 285 285 285 285 285 285 285 284 285 286 287 288 288 289 289 289
301 302 301 298 292 291 290 290 290 290 290 289 289 288 287 287 287 286 286 286 285 285 285 285 285 285 285 284 284 284 284 284 285 285 286 286 287 288 289 289 289 289 289
301 300 295 291 290 289 289 289 289 289 289 288 288 287 287 287 286 286 285 285 284 284 285 284 284 284 284 284 283 283 283 284 284 286 286 286 287 287 288 289 289 289 289

GFSMA_850_thetae_057.txt.gz
Theta_e
325 325 327 327 328 329 330 331 333 332 332 333 332 331 330 329 328 326 328 328 329 328 326 322 320 322 322 321 321 320 319 318 317 308 305 304 304 304 304 304 304 305 305
332 328 331 328 327 328 331 332 333 334 334 334 334 333 333 332 330 329 329 329 329 329 328 327 326 324 322 325 324 324 322 320 319 317 309 304 304 304 304 304 304 305 305
333 333 334 334 333 331 332 333 333 334 334 334 334 334 334 333 333 333 331 330 328 328 327 327 327 327 326 324 325 325 324 322 321 320 318 312 305 304 303 304 304 304 305
332 335 336 336 336 335 334 334 334 334 334 334 335 335 333 332 333 333 332 332 331 328 328 328 328 328 327 326 324 325 325 324 323 321 320 319 318 309 303 303 303 304 305
333 334 336 336 336 336 336 335 335 336 335 335 334 333 333 332 332 331 331 330 330 330 326 326 328 328 328 327 324 322 323 324 323 322 321 320 319 318 316 304 303 302 304
337 336 336 336 337 339 337 337 335 334 334 335 332 331 331 330 329 329 329 329 327 326 325 325 325 326 325 325 324 322 320 322 323 323 321 321 319 319 318 316 306 303 302
336 336 336 338 337 338 339 336 335 334 334 333 333 330 330 330 328 328 328 326 324 323 321 323 323 323 323 322 322 321 320 319 320 321 322 321 321 320 319 317 314 310 305
338 341 339 339 339 338 335 335 336 335 335 334 333 333 329 325 325 326 324 323 322 322 322 322 321 321 322 321 320 321 320 318 319 319 321 322 322 321 318 316 315 314 313
333 333 333 333 333 335 334 333 333 335 330 330 330 330 327 324 324 324 324 323 322 321 321 320 321 320 319 318 318 317 317 318 318 316 316 318 319 320 319 317 315 313 313
327 325 323 320 319 319 319 319 319 318 318 322 327 328 329 326 324 323 323 322 321 320 319 318 317 315 315 316 316 316 315 316 316 316 317 315 316 319 318 318 315 313 312
316 315 313 313 312 313 313 313 313 312 312 312 320 324 325 322 325 322 322 321 320 318 317 318 315 314 312 313 314 314 313 313 313 313 314 315 316 316 317 318 317 315 312
312 311 311 310 310 310 310 310 310 310 311 313 314 323 321 321 324 323 322 320 319 318 317 315 314 312 310 309 311 312 312 310 311 311 311 312 314 316 316 316 317 314 313
311 311 311 311 311 311 311 311 311 312 312 313 316 325 323 321 322 322 322 319 318 317 315 314 313 311 310 309 309 309 309 308 308 309 309 308 309 311 314 314 315 315 313
311 311 311 311 311 310 310 311 314 315 316 317 318 320 322 323 322 321 320 318 318 315 313 313 312 311 310 309 308 308 307 307 308 308 308 308 309 309 309 311 312 311 311
312 312 311 310 310 310 310 312 316 318 319 320 320 320 319 319 321 320 318 316 315 314 312 311 311 310 308 306 306 306 306 306 306 306 307 307 307 306 308 311 312 310 310
312 311 310 310 310 311 311 312 315 317 317 318 319 318 319 319 318 315 311 311 310 310 311 310 309 308 307 305 304 304 305 304 304 304 304 304 305 306 307 309 309 310 309
310 310 310 310 310 311 312 313 314 314 314 314 313 312 311 310 310 309 309 309 308 308 308 307 307 306 305 304 304 304 304 303 302 302 302 302 304 305 305 306 306 306 307
308 308 308 308 309 310 311 311 312 312 312 311 311 310 310 309 309 308 308 307 307 306 305 304 304 303 304 304 304 303 303 302 302 302 301 302 302 303 304 303 303 303 303
306 307 307 307 307 308 309 310 310 310 310 309 309 308 308 308 307 307 307 306 306 304 303 303 302 303 303 303 303 302 301 301 300 300 301 301 301 301 302 301 301 300 300
305 305 305 305 306 307 308 309 309 308 308 308 307 307 307 307 306 306 305 305 304 302 301 300 300 300 300 301 300 300 299 299 298 298 299 299 299 299 299 299 299 300 300
304 304 304 304 304 306 307 307 307 307 307 306 306 306 306 305 305 304 304 303 301 301 300 299 297 297 297 296 296 296 294 292 289 290 289 289 290 290 290 292 292 294 295
303 303 303 303 304 306 306 306 305 305 305 305 305 305 304 304 302 301 300 300 299 299 299 298 297 295 294 292 289 288 288 288 288 288 288 287 287 287 287 287 288 287 287
303 303 303 304 304 304 304 304 304 304 304 303 302 300 297 295 293 292 291 290 289 289 288 288 288 289 289 288 287 287 286 286 286 286 286 286 286 286 287 287 287 287 287
302 302 302 303 302 302 302 302 301 297 294 292 291 291 290 290 289 289 289 288 288 288 287 287 287 287 286 286 286 286 285 285 285 286 285 286 287 288 288 289 289 289 289
300 300 301 302 301 297 292 291 290 289 289 289 289 289 289 289 289 288 288 287 288 287 287 286 286 285 285 285 285 284 284 285 285 286 286 287 288 289 289 289 290 289 289
299 299 300 299 293 290 289 289 289 289 289 289 289 289 288 288 288 287 287 287 286 285 286 286 286 286 285 285 284 284 284 285 285 287 288 287 287 288 289 289 289 289 290

GFSMA_850_thetae_060.txt.gz
Theta_e
324 319 323 325 322 325 328 329 330 331 332 333 332 332 331 330 329 329 328 327 327 328 328 328 327 325 324 325 326 325 325 324 322 319 316 307 304 304 304 304 304 305 305
329 325 327 325 324 324 326 329 330 334 333 333 334 333 333 332 332 331 331 330 329 328 328 328 327 326 325 325 326 326 325 325 324 323 321 317 308 304 304 304 304 305 305
332 331 332 334 332 329 329 331 332 331 331 331 331 332 333 333 332 331 331 331 331 331 329 327 327 328 327 326 325 326 326 325 324 323 322 322 320 316 306 304 304 304 305
330 333 333 334 334 335 334 332 332 333 334 334 333 332 332 332 332 333 332 332 332 331 330 329 327 326 327 326 326 325 325 325 325 324 323 322 321 319 318 309 303 303 304
332 333 334 335 335 334 335 335 335 334 333 333 333 333 332 332 329 328 327 326 325 328 328 328 325 325 325 326 327 326 324 323 324 324 323 323 321 320 319 318 314 303 303
336 335 335 336 336 335 335 334 334 333 333 333 333 334 331 329 330 327 324 325 327 326 326 324 322 322 323 323 323 323 323 321 322 323 324 323 322 321 320 319 318 317 309
338 338 335 336 335 334 334 334 333 334 333 333 333 332 333 329 327 325 327 327 326 325 323 322 322 321 321 321 320 320 321 320 320 322 321 322 323 321 320 320 319 318 316
338 337 336 338 335 335 334 333 333 332 331 330 330 330 327 326 323 323 326 327 324 322 321 321 320 320 320 319 320 320 320 320 320 320 320 321 321 321 320 320 318 317 316
337 335 334 334 334 336 336 333 334 331 330 330 330 328 326 325 325 325 325 324 323 321 320 319 317 317 317 317 317 316 316 317 316 315 317 316 316 318 319 320 320 317 315
332 332 330 325 322 318 316 315 314 315 316 318 322 323 325 325 323 322 321 322 321 321 319 318 317 317 315 313 312 314 315 314 313 313 315 316 316 316 318 319 319 318 316
324 318 316 315 313 312 312 312 312 312 312 312 314 317 324 322 322 321 320 321 321 319 319 317 317 315 314 311 310 311 312 313 312 312 311 311 312 314 317 317 318 318 317
314 313 312 312 311 310 310 310 310 310 311 312 317 321 320 320 320 320 321 322 320 319 318 316 315 314 312 310 309 309 308 309 309 309 308 309 309 310 312 314 316 316 318
312 312 311 311 310 310 311 311 311 311 311 312 312 315 317 321 321 321 320 320 321 319 317 315 314 313 312 311 309 308 308 308 307 307 307 307 308 308 308 308 310 314 313
311 311 311 311 311 311 311 310 310 311 313 317 318 319 318 318 318 321 321 321 319 318 316 314 313 312 311 310 308 307 306 307 307 307 308 308 308 308 308 309 310 310 313
312 312 312 312 311 311 310 310 310 311 317 320 318 318 319 320 321 320 319 319 318 317 314 313 312 311 310 309 307 306 305 305 306 306 306 306 306 306 308 310 312 311 312
312 312 312 311 311 311 310 311 312 313 316 316 316 316 317 317 317 317 318 317 313 312 313 311 310 310 308 307 306 304 304 304 304 305 304 303 303 304 306 309 309 310 310
311 311 310 309 310 310 310 311 312 313 314 314 314 314 314 314 314 313 311 309 309 309 309 309 309 308 306 305 304 304 304 304 303 303 302 300 302 303 304 305 306 307 308
309 308 307 307 308 309 309 310 311 311 312 312 311 310 310 309 309 309 308 308 308 307 307 306 306 304 303 304 304 304 303 302 302 301 301 300 301 301 302 303 303 304 303
307 306 306 306 306 307 308 309 310 310 310 310 310 310 309 309 308 308 307 307 306 306 305 303 302 301 303 303 302 302 302 301 301 300 299 300 300 300 301 301 301 301 301
306 306 306 305 305 305 306 307 308 309 309 309 308 308 307 307 307 306 305 305 305 304 302 301 300 299 299 301 300 300 299 299 298 295 294 294 296 298 298 299 299 299 300
305 305 304 304 303 303 304 306 307 307 307 307 306 306 306 305 305 305 305 305 304 303 302 300 298 297 297 295 296 295 293 290 289 289 289 289 289 289 289 289 290 290 290
304 304 303 303 303 303 304 306 306 305 305 305 305 304 304 304 304 303 301 301 300 300 299 298 296 294 293 293 291 289 289 288 288 288 288 287 287 287 287 287 287 287 287
303 303 303 302 303 303 304 304 304 304 303 303 303 302 301 299 296 293 292 290 289 289 289 289 289 289 289 289 288 287 287 287 287 287 287 287 287 287 287 288 288 288 288
302 302 302 302 302 302 301 302 302 302 301 299 296 294 292 291 290 289 289 289 288 289 288 287 288 287 287 287 287 287 287 287 286 287 287 287 288 289 289 289 289 289 289
301 301 300 300 301 300 298 297 294 292 290 290 289 289 290 289 289 288 288 287 288 288 287 287 287 287 286 286 286 286 286 286 285 286 287 288 288 289 289 290 290 290 290
299 300 300 299 300 297 291 289 289 289 289 289 289 289 288 289 289 288 287 287 287 287 287 286 286 286 286 286 286 286 286 286 286 287 289 288 288 289 289 290 290 290 290

GFSMA_850_thetae_063.txt.gz
Theta_e
322 319 319 321 320 319 320 322 324 328 330 331 331 331 331 330 330 329 329 328 328 329 328 327 328 327 325 325 326 326 326 325 324 323 322 319 313 306 304 304 304 305 305
327 323 322 323 322 321 322 324 327 331 333 332 332 333 332 331 331 331 330 331 331 330 330 329 328 327 327 326 326 327 326 326 325 324 323 322 320 316 307 304 304 305 305
328 326 325 328 330 327 326 328 330 331 332 331 331 331 332 331 331 331 331 330 331 329 328 329 328 327 326 326 326 326 327 326 326 325 324 322 321 320 318 308 304 304 304
328 328 329 331 332 332 332 332 331 331 332 333 332 331 331 331 331 331 331 331 332 331 328 326 327 327 325 325 324 325 326 326 326 325 324 324 322 321 320 318 316 306 304
328 330 331 333 334 334 334 334 333 333 332 331 331 331 332 332 331 330 329 329 329 326 325 325 324 324 322 323 324 324 325 325 325 324 324 324 323 322 321 320 319 315 311
334 331 332 334 335 335 334 334 333 332 332 330 331 330 330 330 329 329 329 328 327 326 326 325 322 321 322 321 321 322 322 323 323 323 323 323 323 322 321 320 320 319 318
336 336 335 335 335 334 333 333 333 332 331 330 329 329 328 328 327 324 323 329 327 325 326 324 321 321 320 320 320 320 320 320 320 320 320 322 322 322 322 322 320 320 319
337 336 336 335 334 334 333 333 333 331 330 329 329 328 327 325 325 322 323 327 327 325 322 320 320 317 318 318 318 319 318 318 317 318 318 318 319 320 321 321 321 319 318
337 337 336 336 336 335 333 333 331 333 329 326 325 326 326 324 324 324 326 325 324 323 320 319 318 317 317 316 314 313 313 315 316 315 315 314 315 316 316 318 319 319 318
334 332 332 333 334 330 323 318 315 314 314 314 316 318 324 325 324 322 321 322 321 321 319 318 318 317 316 315 313 309 310 312 313 313 311 312 313 315 317 318 318 319 319
333 331 328 320 316 314 313 312 311 311 311 312 312 313 315 318 322 319 320 320 321 321 320 318 318 317 316 313 311 309 308 308 308 310 310 309 309 311 315 315 316 317 320
330 319 315 313 312 312 311 311 310 310 310 311 311 313 318 318 317 321 320 321 319 320 320 319 318 316 315 313 311 310 308 307 307 308 307 307 307 308 308 308 310 313 316
315 313 313 312 311 311 311 311 311 311 311 311 311 313 317 318 317 319 321 321 321 321 320 319 317 315 314 312 311 309 308 306 306 309 309 308 308 308 307 307 308 308 310
313 312 312 311 311 311 311 311 311 311 310 311 313 320 319 318 318 319 319 319 320 320 319 317 316 314 313 311 310 308 307 305 305 306 306 307 307 307 308 310 311 312 312
311 311 312 312 312 312 312 311 311 311 310 311 316 317 317 317 317 318 318 319 320 319 318 316 314 313 312 311 309 307 305 304 304 305 306 306 305 306 310 312 312 310 311
312 312 312 312 311 311 311 311 311 311 311 312 315 315 315 315 317 318 316 317 316 317 315 312 312 311 310 309 307 305 304 304 303 303 304 304 303 304 306 309 309 309 310
313 312 312 312 310 309 309 309 310 311 311 311 313 313 314 313 314 314 315 315 315 312 311 311 310 309 308 306 305 304 303 303 303 302 302 302 302 303 303 305 306 307 308
312 312 313 312 309 307 308 308 309 310 311 312 312 312 312 312 312 312 310 309 309 308 308 308 308 307 305 304 303 303 303 303 302 302 301 301 301 301 301 302 303 304 305
312 311 310 308 307 306 306 307 308 309 309 310 310 310 310 310 309 309 308 308 307 307 306 306 305 303 302 303 302 302 302 302 301 300 300 300 300 300 301 301 301 302 302
311 308 307 306 306 305 305 305 305 307 307 308 309 309 308 308 308 307 306 306 305 305 304 304 301 300 300 301 301 300 299 299 298 295 293 291 291 292 294 297 298 299 299
307 306 306 305 305 304 303 303 303 304 305 307 307 307 306 306 306 306 305 304 304 304 303 301 300 298 297 297 296 296 294 291 290 290 289 289 289 289 289 289 289 289 289
306 306 305 304 303 303 303 303 304 304 304 305 305 305 305 304 304 304 304 303 302 301 300 299 299 296 294 293 293 291 289 288 288 289 288 288 288 288 288 288 287 287 287
305 304 303 303 303 302 303 303 304 303 303 302 301 301 302 303 301 298 295 293 291 291 290 290 290 290 290 290 289 288 288 287 287 287 287 287 287 288 288 289 289 289 289
304 303 302 302 302 302 302 302 302 301 301 301 301 300 298 295 293 291 290 290 289 289 289 289 288 288 288 288 287 287 287 287 287 287 287 288 288 289 289 289 290 290 290
303 302 301 301 301 301 301 300 300 300 298 295 293 291 290 289 289 289 289 289 289 288 288 288 288 287 287 286 286 286 286 286 285 287 288 289 289 289 290 290 290 290 290
300 300 300 299 299 300 298 292 290 289 289 289 289 288 288 288 288 288 288 288 288 288 288 287 287 287 286 286 286 286 285 285 286 288 289 289 289 289 289 289 289 289 289

GFSMA_850_thetae_066.txt.gz
Theta_e
323 319 318 320 320 318 319 321 323 325 328 329 329 329 330 329 329 330 330 329 330 331 330 329 328 327 326 326 326 326 326 326 325 325 323 322 320 314 307 304 304 305 305
328 323 319 320 321 320 322 323 326 328 330 330 331 331 330 330 331 331 331 330 330 330 328 328 327 327 326 326 326 326 326 327 326 325 324 323 321 320 318 310 305 304 305
330 327 322 323 325 325 324 325 328 330 330 331 331 331 331 330 330 330 331 330 329 327 328 328 325 325 326 324 324 324 325 326 326 325 325 324 323 322 320 319 311 305 304
330 329 327 327 331 332 331 331 331 331 331 332 331 330 330 330 330 330 331 331 331 328 329 328 324 324 324 322 322 324 323 324 326 325 325 324 324 323 322 320 319 317 309
333 329 329 330 332 333 333 333 333 332 331 331 330 330 330 330 330 330 328 331 331 330 326 324 324 325 322 321 321 322 323 323 324 325 324 324 323 322 322 321 320 319 317
335 332 330 333 333 334 333 333 332 331 331 331 329 327 329 327 328 326 327 326 328 329 324 324 325 323 320 321 320 320 320 320 321 321 322 323 323 323 322 321 320 319 319
335 335 334 334 333 333 333 333 332 331 330 330 328 328 326 327 324 325 324 324 325 325 325 324 324 320 319 317 318 319 319 319 320 320 320 320 320 321 322 322 321 321 320
335 335 335 334 334 334 333 332 331 331 330 330 328 328 327 324 324 323 322 321 325 323 324 323 320 318 317 317 316 314 313 315 316 315 315 316 317 317 318 319 321 321 319
335 335 334 334 334 334 334 333 332 331 328 327 326 326 326 324 323 323 322 324 323 323 322 321 319 318 318 317 316 312 311 309 311 313 314 314 313 312 315 316 317 319 319
335 335 335 334 334 334 335 334 333 324 320 314 313 313 317 325 323 323 321 322 322 321 320 320 318 318 318 317 315 311 310 308 308 309 311 311 310 311 317 316 317 318 319
333 330 329 331 332 331 323 316 313 312 311 311 311 311 313 314 318 325 321 319 320 319 318 319 318 318 318 316 315 311 310 309 308 307 307 308 309 308 309 312 314 316 317
325 326 328 329 319 314 312 312 311 311 310 310 311 311 312 314 315 318 320 320 319 319 319 318 317 318 317 315 314 311 309 308 307 309 309 307 307 307 307 307 308 308 313
324 327 326 315 313 313 311 311 311 311 311 311 311 311 312 314 318 319 318 318 318 321 320 319 317 317 316 314 313 311 309 308 306 306 307 308 307 308 308 308 307 307 307
327 319 313 313 313 314 311 311 311 311 311 311 311 311 311 315 317 318 318 318 320 319 318 318 316 316 315 313 312 311 309 307 305 305 305 306 306 308 310 313 312 311 312
315 312 312 312 312 311 312 312 312 311 311 311 311 312 312 316 316 317 316 318 317 318 318 317 315 315 314 312 311 310 308 306 305 304 304 304 305 308 310 311 311 310 311
313 312 312 312 312 312 312 311 311 310 310 311 311 314 314 315 315 315 316 316 318 319 317 315 315 314 313 311 310 308 306 305 304 304 303 303 303 304 307 308 308 308 309
312 312 315 313 312 312 311 310 309 309 309 310 312 313 312 312 313 314 314 314 313 314 314 314 312 310 308 308 307 306 304 304 304 303 302 302 302 303 304 305 306 307 307
313 314 314 311 310 310 309 308 307 308 308 309 311 310 311 311 310 311 312 312 313 313 313 309 308 308 307 306 305 303 303 303 302 301 300 301 301 301 302 303 303 304 306
311 311 312 311 309 308 308 307 307 307 307 308 310 310 310 310 309 309 309 309 309 308 308 307 306 305 304 303 302 302 302 302 301 301 300 299 299 299 300 301 301 302 303
311 311 311 308 307 307 307 306 306 305 305 306 307 308 307 307 307 307 308 307 307 306 305 305 304 303 301 300 301 300 300 299 299 297 294 292 291 291 293 295 298 299 300
310 310 309 307 306 306 305 304 304 303 303 303 305 305 306 305 306 306 306 305 304 304 303 302 301 299 299 299 298 298 296 294 291 290 289 289 289 289 289 289 289 289 290
310 309 306 306 306 305 303 303 303 303 302 303 304 304 303 303 304 304 303 303 303 302 302 301 299 299 297 295 294 293 291 289 288 288 288 288 288 288 288 288 288 288 288
308 306 306 305 304 303 303 302 303 303 302 302 302 302 300 300 301 302 301 300 297 296 296 295 294 293 292 292 291 290 289 288 288 288 287 288 287 288 288 289 289 289 289
306 305 304 303 302 302 302 303 303 302 302 300 300 299 299 299 299 296 293 291 290 289 289 289 289 289 289 289 288 288 288 288 287 287 287 288 288 289 289 289 290 290 290
305 304 304 302 301 301 301 302 302 302 300 300 299 299 297 294 291 289 288 289 289 288 288 288 288 287 287 287 287 287 287 287 287 287 288 289 289 289 290 290 290 290 290
304 302 302 300 300 300 299 300 299 299 297 294 291 290 289 289 289 289 288 288 288 288 288 288 287 287 287 287 287 287 287 286 286 287 288 289 289 289 289 289 290 289 289

GFSMA_850_thetae_069.txt.gz
Theta_e
324 322 319 319 319 317 320 322 323 325 328 329 329 328 328 328 329 330 330 330 330 329 329 327 327 326 323 324 324 325 325 325 325 325 325 323 322 321 318 311 306 305 305
326 326 320 321 321 320 322 323 325 326 329 330 330 330 330 330 330 329 328 329 329 328 327 325 326 325 322 325 323 323 325 325 326 325 324 324 323 322 321 319 313 306 305
330 328 326 321 323 322 323 324 326 328 329 330 330 331 330 329 329 328 329 329 328 329 327 326 327 325 323 321 321 321 323 323 324 325 325 324 323 323 322 321 319 317 308
334 330 328 323 325 328 329 328 329 330 331 331 330 329 329 329 329 328 328 329 331 329 328 329 327 324 323 322 320 320 321 323 321 322 324 324 324 323 322 322 320 319 316
335 333 329 327 328 331 332 333 332 332 331 330 330 329 329 328 328 326 327 326 327 327 328 327 323 323 324 321 320 321 320 320 320 321 322 324 324 322 322 321 321 320 318
335 335 332 329 330 332 332 332 332 331 331 330 329 329 328 327 326 327 325 325 325 325 327 327 323 324 323 319 319 318 318 318 318 319 320 320 322 323 324 323 321 320 319
335 335 335 331 333 334 332 332 332 331 331 330 329 328 328 325 326 321 323 323 323 323 325 324 323 323 320 317 317 316 315 313 317 317 317 318 318 319 320 321 322 322 320
334 332 333 333 332 332 333 332 330 330 330 330 329 328 327 325 320 321 322 322 320 324 323 321 322 320 318 317 317 316 312 311 311 310 311 313 314 315 316 317 318 320 322
333 334 334 334 333 333 332 332 332 331 330 329 329 328 326 323 322 321 322 322 322 322 321 321 321 319 318 318 317 316 312 310 308 308 309 311 313 312 312 315 315 317 319
332 332 332 332 331 331 332 332 331 332 332 327 319 315 314 318 323 322 321 322 322 322 320 320 319 319 318 318 317 315 312 310 308 308 307 307 309 310 314 315 315 317 317
331 332 332 328 328 324 324 324 330 323 314 312 311 311 311 312 315 318 322 319 321 320 320 318 318 318 318 318 317 315 312 309 308 308 307 307 307 307 307 308 308 313 316
329 330 327 325 323 323 326 319 313 312 311 311 310 310 311 312 313 315 317 320 321 320 319 319 317 317 318 317 316 314 312 309 308 307 310 310 308 307 307 307 306 307 308
329 327 325 323 323 325 314 312 312 311 311 311 311 311 311 311 312 314 319 317 319 318 319 319 318 317 317 317 315 314 312 310 308 306 305 306 305 306 310 311 308 307 307
325 326 322 324 319 313 313 312 311 311 311 311 311 311 311 311 313 314 315 317 317 318 318 318 317 317 316 315 314 313 312 309 307 305 305 306 306 307 311 312 311 311 312
325 325 321 314 313 313 313 315 313 312 311 311 311 311 311 312 313 314 314 315 317 318 317 316 316 316 315 314 313 313 311 308 306 305 305 305 306 306 309 309 309 309 310
318 315 313 314 315 313 314 313 313 312 311 310 310 310 311 311 312 313 313 314 316 317 316 316 316 314 314 313 312 311 309 307 305 304 303 303 304 305 306 307 307 308 308
317 318 314 312 312 312 312 312 311 310 309 309 308 309 309 311 311 312 312 314 314 316 316 315 313 313 312 310 309 307 307 305 304 303 302 302 302 303 304 305 306 306 306
313 311 311 312 313 311 311 310 310 308 307 307 307 309 310 309 310 310 310 311 311 312 311 311 312 311 309 307 306 305 305 303 303 302 302 301 300 301 302 303 303 304 306
311 312 313 311 311 310 309 308 307 307 307 306 307 308 308 309 309 308 309 309 310 310 309 309 308 307 306 305 305 304 303 302 302 301 300 300 299 299 299 300 301 302 303
312 311 311 311 310 309 307 307 306 306 305 304 303 306 305 306 306 307 308 307 307 306 307 306 305 305 304 303 301 301 301 301 300 299 298 295 292 291 291 294 297 299 301
310 310 310 309 309 307 306 306 305 304 303 303 302 303 304 304 305 305 305 304 305 305 304 303 302 301 301 300 300 299 299 299 297 294 291 290 289 290 290 290 290 290 291
310 310 309 309 307 306 305 304 303 303 303 302 302 302 303 304 304 304 303 304 303 302 301 300 300 300 299 298 296 295 294 292 289 289 289 289 289 289 289 288 288 288 288
309 309 308 308 306 305 304 302 302 302 303 302 302 302 302 302 301 300 300 300 301 302 301 299 299 298 297 295 294 293 291 289 288 288 288 288 288 288 288 289 289 289 289
308 308 308 306 305 304 302 302 302 302 302 302 301 300 300 299 299 299 299 296 293 291 289 290 290 291 291 291 290 289 288 288 287 288 288 287 288 289 289 290 290 290 290
308 307 306 304 304 302 301 301 302 302 300 299 299 298 298 298 297 294 291 290 289 289 288 289 288 289 288 288 288 287 287 287 287 287 287 288 288 289 290 290 290 290 290
307 306 305 303 302 301 300 300 300 301 300 299 298 297 294 292 290 289 289 288 288 288 288 288 288 288 287 287 286 286 286 286 286 286 287 288 289 289 289 290 290 290 290

GFSMA_850_thetae_072.txt.gz
Theta_e
324 322 321 319 318 317 317 319 322 322 325 328 329 328 328 328 329 329 329 329 329 327 327 325 325 325 325 322 324 321 324 324 325 324 324 324 323 322 321 320 315 308 305
323 325 322 319 321 319 321 322 323 325 327 329 329 329 329 329 329 328 328 328 328 327 327 326 326 325 325 323 322 320 320 322 323 324 324 324 323 323 322 321 319 314 307
329 329 328 322 323 323 322 323 324 326 328 329 329 329 330 328 328 328 327 327 327 328 328 325 326 326 325 322 321 320 319 319 322 320 322 325 324 323 323 322 321 319 316
334 333 330 328 324 324 324 325 326 328 330 330 329 329 329 328 327 327 327 325 326 326 326 327 328 326 322 322 320 319 320 320 320 321 322 323 324 323 322 322 321 320 318
334 334 332 329 325 326 330 331 332 332 331 330 329 329 329 329 327 326 326 325 325 323 324 324 325 323 323 323 319 318 318 317 318 318 319 320 322 323 322 321 321 321 320
334 334 334 332 330 329 331 332 332 330 330 330 329 329 327 327 328 324 326 324 326 324 323 324 326 322 322 321 317 317 316 315 315 315 317 318 320 320 322 323 323 321 320
333 333 334 334 332 332 332 331 331 331 330 329 329 327 327 326 322 319 317 318 320 320 321 325 322 321 321 319 317 317 316 313 312 312 313 313 315 316 319 320 321 324 321
333 333 334 333 332 332 332 331 331 330 328 329 328 328 326 324 318 318 319 320 321 319 324 324 320 320 320 319 317 317 316 314 310 310 308 309 310 311 313 316 317 318 320
334 333 333 333 331 331 331 331 330 330 329 329 330 329 326 323 321 318 319 321 321 321 321 321 320 320 319 318 318 317 317 313 310 309 308 307 307 310 313 315 315 315 316
332 331 331 331 331 331 330 328 329 331 329 330 329 324 319 317 318 318 319 320 320 321 321 321 319 319 317 317 316 318 317 314 310 308 308 307 308 311 313 311 312 314 315
332 332 330 330 330 329 326 324 323 321 321 325 313 311 311 311 312 316 316 315 320 319 319 320 319 318 317 317 317 317 317 314 310 311 313 311 310 309 308 308 307 309 314
328 329 330 330 329 325 324 324 321 321 318 312 311 311 311 311 312 313 316 316 318 318 317 318 318 318 317 317 317 317 316 314 311 308 307 307 305 306 312 311 307 307 307
328 328 329 329 327 325 324 323 323 313 313 311 311 311 311 311 311 312 315 315 315 316 315 316 316 317 317 317 316 316 315 314 311 308 306 305 305 306 311 313 314 313 310
328 329 328 325 323 322 324 315 313 312 312 312 312 311 311 311 311 312 313 314 314 315 315 315 315 315 316 316 315 315 313 313 311 308 306 305 306 306 309 310 310 310 311
327 326 323 321 322 323 313 312 311 312 313 313 312 311 310 310 311 313 314 312 314 315 316 316 316 315 315 314 314 313 312 312 310 307 305 304 304 305 308 308 308 308 308
325 324 324 324 319 313 312 312 312 312 312 311 311 310 309 309 310 311 312 313 313 313 315 314 315 314 314 314 312 312 311 310 309 306 304 304 303 305 305 306 306 306 307
325 321 316 313 312 312 311 312 314 312 311 310 309 308 308 308 308 310 310 311 312 312 315 313 313 314 313 313 312 310 309 307 306 305 303 303 302 303 304 304 305 305 306
315 313 313 313 312 311 312 312 311 310 309 308 307 307 307 307 308 308 309 310 310 312 312 311 311 311 310 311 310 308 305 305 304 303 302 302 301 301 301 303 303 303 304
312 311 311 310 311 312 311 311 310 308 307 307 307 306 306 306 307 307 307 308 308 309 309 309 308 309 308 307 306 304 304 303 301 301 301 300 300 299 299 299 300 302 303
311 310 311 312 311 311 310 310 308 307 306 306 305 304 303 304 305 305 306 306 306 306 306 306 306 306 305 305 304 303 301 300 300 300 300 299 298 295 293 293 296 298 300
311 310 311 310 310 310 310 309 307 306 305 304 303 303 302 303 304 304 304 304 304 304 305 304 303 303 303 303 302 300 300 299 299 298 297 293 290 290 290 290 290 290 292
310 310 310 310 310 309 308 306 305 304 303 302 302 302 302 302 303 303 303 303 303 302 302 301 301 300 300 300 299 298 296 297 295 292 290 289 289 289 288 288 288 288 289
309 309 309 309 309 308 306 305 304 303 302 302 302 303 302 302 302 301 301 301 299 298 298 299 299 298 298 297 297 295 294 293 291 289 289 288 288 288 288 288 288 288 289
308 308 308 308 308 307 305 304 303 302 302 302 302 302 301 300 300 299 298 298 298 296 294 293 295 296 295 294 293 292 291 290 288 288 288 287 288 288 288 289 289 289 290
308 307 307 307 307 306 304 303 301 301 301 300 300 300 299 298 297 297 297 295 292 289 289 289 289 289 289 290 289 289 289 288 287 287 287 287 287 288 289 289 289 289 290
307 306 306 306 305 305 303 301 300 299 300 299 298 298 297 296 296 293 289 289 288 288 288 288 288 287 287 287 287 287 287 287 287 286 287 287 288 288 289 289 289 290 290

GFSMA_850_thetae_075.txt.gz
Theta_e
321 321 320 319 318 317 318 319 321 322 323 327 328 328 327 327 328 329 329 327 326 327 327 326 325 325 325 325 322 322 319 320 323 324 323 323 323 323 322 320 317 310 306
323 325 324 321 320 318 317 319 323 324 326 328 329 329 329 328 328 328 327 327 326 326 326 327 326 325 324 324 322 321 319 318 319 321 320 323 324 323 323 322 320 318 310
319 324 325 325 321 322 320 322 323 325 326 328 329 329 329 328 327 327 326 327 326 324 325 326 327 326 326 326 322 320 318 318 320 320 321 322 323 324 323 322 322 320 318
326 331 330 328 324 325 323 323 324 326 328 329 329 328 328 328 328 328 327 327 325 325 323 324 325 325 324 323 322 320 318 318 317 317 318 320 322 323 323 322 321 321 320
333 334 333 331 329 324 325 325 326 328 331 330 329 328 328 328 328 328 326 325 326 325 325 324 324 324 322 323 323 319 316 316 315 315 315 316 318 321 323 322 321 321 320
334 334 334 333 331 326 326 330 331 331 330 329 329 328 328 327 327 325 324 323 319 318 321 321 324 324 322 321 319 318 317 317 315 312 311 313 317 318 320 322 323 322 321
333 333 333 334 333 330 329 331 331 330 330 329 328 327 327 327 321 319 315 315 315 317 319 320 326 322 321 320 318 317 317 316 314 311 310 309 309 312 316 319 321 323 323
332 333 333 333 332 333 331 331 330 329 329 329 327 327 326 325 320 318 316 318 318 318 318 322 323 321 320 319 318 318 317 317 315 311 309 308 307 308 310 313 317 319 319
333 333 333 332 332 332 330 330 330 330 329 328 328 327 326 324 324 318 315 315 319 319 319 321 321 321 320 319 318 318 317 317 316 314 309 308 307 309 313 311 313 316 316
333 331 331 332 332 331 330 330 329 328 327 328 328 328 325 324 322 318 314 317 317 318 320 320 321 320 319 318 316 316 316 317 316 314 313 314 313 311 311 309 309 314 316
329 330 330 330 330 330 330 329 328 324 323 322 321 314 311 311 311 312 316 313 315 317 320 318 317 319 319 317 317 316 317 316 316 313 310 311 308 307 312 313 314 309 312
328 327 324 327 329 329 329 327 324 324 324 322 318 312 311 311 311 312 313 312 314 315 317 317 315 318 317 317 317 316 317 316 315 313 309 308 307 305 311 315 312 308 307
328 329 329 328 329 330 327 325 324 323 324 315 312 311 311 311 311 311 312 314 314 314 314 314 315 315 315 315 315 316 316 315 314 313 310 307 306 305 310 312 313 313 312
327 327 327 328 328 326 324 322 324 323 314 312 311 312 312 312 311 311 312 313 314 314 313 314 314 314 315 314 314 315 315 315 313 312 310 307 305 305 309 310 309 309 311
327 328 327 328 325 323 321 321 319 313 311 311 313 313 312 311 311 310 311 316 314 314 314 314 315 316 315 315 314 315 314 313 312 311 309 306 304 304 306 308 307 308 308
326 327 326 323 321 322 323 322 313 311 311 312 313 311 311 310 309 309 310 312 312 312 313 313 314 314 315 314 313 313 311 311 311 310 308 305 303 303 304 306 305 305 307
325 327 324 324 324 324 319 312 312 311 313 312 311 311 309 308 308 308 308 310 310 311 311 314 312 313 312 312 313 311 310 309 308 307 306 304 303 302 303 303 304 304 305
325 325 325 324 318 313 312 312 311 313 311 311 310 309 308 307 307 306 308 308 309 309 311 312 311 311 311 312 311 310 309 307 306 305 304 303 302 302 301 302 303 303 303
317 316 314 313 313 312 310 311 311 310 310 310 308 308 307 306 306 305 306 307 307 308 309 309 309 309 309 309 309 309 306 305 303 303 302 301 302 301 300 299 300 302 303
312 312 311 310 310 310 311 310 310 310 310 308 307 306 305 304 303 303 304 305 305 306 306 306 306 306 306 306 306 305 304 303 302 301 300 301 300 299 298 296 296 298 300
310 310 310 310 310 310 310 310 310 309 308 307 306 304 303 302 302 303 304 304 304 304 304 304 303 303 303 304 303 303 302 301 300 299 299 298 297 293 291 290 290 290 293
311 310 310 310 310 309 309 309 309 309 307 305 304 303 302 302 303 303 303 303 303 303 303 302 301 301 302 301 301 299 299 298 298 298 297 294 290 289 289 289 289 289 289
309 309 308 308 308 308 308 309 309 307 306 305 303 303 303 303 302 302 302 302 302 302 300 301 301 300 299 298 298 298 297 295 295 293 289 289 289 288 288 288 288 288 288
309 308 308 308 308 308 308 308 308 307 305 304 303 302 303 302 302 301 300 300 299 299 298 298 298 298 298 297 297 296 294 293 292 290 288 288 288 288 288 288 288 289 289
308 308 307 307 307 308 308 308 307 305 303 302 301 302 302 301 300 299 299 298 298 296 292 290 289 290 292 292 293 292 291 290 289 288 288 288 288 288 288 289 289 289 289
307 307 307 307 306 306 307 307 306 303 302 300 300 300 300 299 298 297 296 295 291 289 289 288 288 288 288 289 289 289 288 288 287 287 288 288 288 288 289 289 289 289 290

GFSMA_850_thetae_078.txt.gz
Theta_e
317 317 317 317 317 317 317 317 318 320 322 327 328 330 331 331 330 330 331 328 327 327 326 327 325 326 324 324 324 322 321 317 317 318 321 322 323 323 323 322 320 313 308
321 320 320 319 320 318 318 319 325 328 329 329 331 331 331 331 331 331 330 330 327 325 325 326 327 326 325 325 326 322 319 317 318 319 321 321 322 324 323 323 322 319 314
323 325 328 326 323 321 319 318 322 325 329 331 332 332 332 332 331 330 330 329 329 327 324 324 323 324 325 326 326 322 319 317 318 318 319 320 321 322 324 323 322 322 319
332 322 326 326 328 322 323 321 326 328 329 330 332 332 331 330 330 330 330 329 329 329 329 326 325 324 324 323 324 323 320 316 316 315 315 315 317 320 323 323 322 321 321
325 325 331 332 330 326 324 324 325 328 329 331 332 331 330 329 330 329 329 329 329 325 326 326 324 324 323 323 323 322 319 317 316 316 313 313 314 316 320 323 323 322 321
332 333 334 334 333 330 326 325 326 327 330 332 330 328 328 330 329 328 326 320 316 315 316 320 321 323 324 322 322 319 318 316 316 315 313 310 311 315 317 321 322 323 321
332 333 333 334 333 333 329 325 328 330 331 329 329 329 330 328 328 323 317 314 314 314 318 319 323 325 323 322 321 318 317 317 317 316 313 309 308 309 312 317 319 321 323
329 330 331 332 334 333 332 328 330 332 329 329 330 328 328 327 326 317 318 314 313 316 316 317 322 325 322 321 319 317 318 318 317 317 316 311 308 307 307 309 313 318 320
327 327 328 329 332 333 332 331 330 330 330 328 328 328 328 325 325 323 316 314 313 316 315 315 322 324 321 320 318 318 317 316 316 316 315 314 309 309 312 314 313 315 317
329 328 328 328 330 332 332 332 331 331 329 329 328 327 326 327 324 320 319 316 314 316 316 318 319 321 320 320 318 317 315 315 316 316 316 314 311 308 311 313 311 310 315
325 327 327 329 330 331 331 330 330 329 329 328 325 323 320 314 312 318 317 317 318 315 314 315 319 318 318 319 318 316 316 315 316 316 315 313 311 308 306 314 315 314 313
325 326 326 326 325 328 328 328 329 329 326 324 323 323 319 317 314 313 316 316 317 317 316 314 317 318 316 316 317 316 316 316 316 315 315 315 311 307 306 314 316 314 314
325 325 326 327 326 326 326 328 329 327 324 323 323 318 313 312 311 312 312 316 317 317 316 314 314 314 315 314 315 315 314 315 315 314 314 314 310 307 305 311 313 312 313
327 327 327 328 327 328 328 328 328 324 323 322 319 317 312 312 312 312 312 314 315 315 316 316 314 313 314 314 315 314 313 314 315 314 313 312 310 306 305 306 310 310 311
325 327 328 327 328 328 327 323 322 322 322 321 315 311 312 313 313 311 311 310 313 315 315 315 314 313 314 315 315 315 314 314 314 313 312 311 309 305 304 305 307 307 308
319 324 327 327 327 327 324 323 322 321 320 313 311 311 313 312 311 310 310 309 311 313 314 314 313 313 312 314 314 314 313 312 312 311 311 310 308 305 303 304 306 306 305
319 322 326 328 326 321 321 321 322 319 312 311 311 313 311 311 310 309 309 308 310 311 312 310 312 311 312 312 312 312 312 310 309 310 309 308 306 303 303 303 304 304 304
320 323 326 327 323 322 323 323 318 312 311 311 312 311 310 310 309 308 307 307 307 308 309 310 311 311 311 311 311 310 309 308 308 308 307 306 303 302 302 302 303 303 303
316 322 324 325 324 323 319 313 311 311 311 311 311 310 309 308 307 307 307 306 306 307 308 308 309 309 309 309 309 309 309 308 306 305 305 303 301 301 300 300 300 301 303
312 314 316 315 314 313 312 312 311 311 311 310 310 309 308 307 306 305 304 304 304 305 306 306 307 306 306 306 307 306 306 305 304 303 303 301 300 300 300 299 298 298 299
312 311 311 311 311 311 310 310 311 310 310 309 308 307 306 305 304 303 303 303 304 305 305 305 305 304 304 304 304 305 304 303 302 301 300 299 299 298 298 294 292 291 292
311 311 310 309 309 309 309 310 309 309 309 309 308 306 306 305 304 303 302 303 303 304 304 303 303 303 303 302 302 302 302 301 300 300 298 298 298 295 291 290 290 290 290
309 309 309 310 309 309 308 308 308 308 308 307 306 306 304 303 303 303 303 303 303 303 302 302 302 301 301 301 301 300 300 298 297 297 293 294 291 289 289 289 289 289 288
309 308 308 308 308 307 307 307 308 308 307 306 305 304 303 303 303 303 302 302 301 301 301 301 300 300 300 299 299 297 297 297 295 294 292 289 288 288 288 288 288 288 289
307 308 308 307 307 307 306 306 307 307 306 304 304 303 303 303 302 302 301 301 300 300 299 298 295 296 297 297 297 296 295 294 293 291 290 288 288 288 288 288 289 289 289
306 307 307 307 306 306 306 306 306 305 305 303 303 301 301 303 301 301 299 298 297 298 295 291 289 289 289 290 292 293 292 291 290 288 288 288 288 288 288 288 289 289 289

GFSMA_850_thetae_081.txt.gz
Theta_e
326 328 328 326 324 322 324 324 325 324 324 326 328 329 331 331 331 331 331 331 328 327 326 326 326 327 326 325 325 325 321 319 316 316 320 320 321 323 323 323 321 319 313
321 325 327 326 322 322 321 324 324 326 327 329 331 332 332 332 331 331 331 330 329 327 326 324 323 324 325 326 325 326 322 319 316 317 319 320 321 322 324 323 322 321 319
323 320 322 320 321 327 325 325 326 329 330 330 331 332 332 332 332 331 330 330 329 329 328 327 325 323 323 325 326 325 322 320 316 315 315 316 318 322 322 324 323 322 321
325 323 326 331 332 331 328 325 327 329 330 331 331 332 332 332 331 330 330 330 329 329 329 328 327 325 324 323 324 323 322 319 317 316 316 315 315 316 320 322 323 322 321
334 332 326 331 333 332 330 328 328 330 330 330 331 332 331 331 329 329 329 329 329 328 328 328 326 321 323 323 323 323 321 318 317 316 316 313 312 312 315 319 323 323 322
331 325 325 332 334 333 330 330 329 329 329 330 330 331 331 329 331 329 328 327 324 317 315 316 323 319 322 323 322 322 320 318 317 317 316 314 310 310 312 316 320 322 323
332 332 333 332 333 333 332 331 330 329 328 330 331 330 328 328 330 329 327 323 322 314 313 317 323 324 323 324 322 322 318 317 318 318 317 316 313 309 308 309 314 318 320
328 329 330 332 333 333 333 332 329 329 329 331 331 330 331 329 328 326 323 319 314 313 313 313 316 324 324 322 322 321 318 318 317 316 316 316 315 310 308 307 308 311 316
330 329 328 328 328 329 330 332 332 329 330 330 329 330 328 328 327 325 324 319 315 314 316 313 314 319 324 323 321 319 318 317 315 316 316 316 315 311 309 309 309 309 312
328 328 329 329 328 328 328 328 327 332 330 329 329 329 329 328 325 323 323 319 317 317 320 316 314 316 320 322 320 320 318 317 316 315 317 316 315 313 308 306 315 315 313
325 325 326 328 327 328 326 326 327 328 331 329 329 328 327 326 323 318 320 318 320 319 319 318 316 317 318 319 319 319 318 316 316 315 315 315 315 314 308 312 315 316 314
324 323 324 323 326 325 324 324 325 327 327 329 329 326 323 322 319 317 315 316 316 318 318 317 315 316 318 318 318 315 317 316 315 315 315 315 315 313 309 309 313 315 314
323 323 323 323 324 324 324 323 325 325 327 326 327 325 323 324 323 313 314 314 316 317 318 318 316 315 314 315 315 314 315 315 314 314 315 314 314 313 310 306 310 313 312
326 325 325 325 324 325 327 326 326 326 327 327 327 325 325 322 323 315 312 313 313 315 314 317 316 316 314 313 314 314 314 314 313 313 314 313 313 312 311 306 305 308 309
327 327 326 327 327 327 327 328 327 327 327 325 323 322 321 320 312 312 312 312 311 314 315 315 316 316 314 313 313 315 315 315 314 314 314 313 312 311 310 306 305 306 306
322 321 323 326 327 327 327 328 327 326 324 322 322 321 315 312 311 312 312 311 310 313 314 313 315 314 313 313 312 312 313 313 313 312 312 311 311 310 310 305 304 305 306
317 319 320 322 326 327 327 327 325 324 322 322 320 313 311 311 312 311 310 310 309 310 311 312 313 313 311 311 311 311 311 312 311 311 310 310 309 308 306 304 303 304 305
315 316 319 322 326 325 327 325 322 321 321 318 312 311 311 312 311 310 309 308 308 308 309 311 309 308 309 310 311 311 311 310 310 309 309 309 307 307 305 303 302 302 303
313 314 319 324 325 324 323 321 322 322 319 313 311 311 311 311 310 309 308 308 308 308 307 307 309 308 308 308 309 309 309 309 308 307 307 306 305 303 301 301 301 300 301
311 312 314 320 322 322 323 323 322 317 311 311 311 311 310 309 308 307 307 307 307 306 305 305 307 306 306 307 307 307 307 307 306 305 305 304 303 302 300 300 300 299 298
310 311 311 312 316 317 317 315 312 311 311 310 310 310 309 308 307 306 306 305 304 304 304 304 305 305 305 305 305 305 305 304 304 303 303 302 301 300 299 299 298 296 293
308 310 310 310 310 311 311 310 310 309 309 309 309 309 308 307 306 305 304 303 303 302 304 304 304 304 304 303 303 303 303 302 302 302 301 300 299 299 298 297 292 290 290
307 308 309 309 310 309 309 309 309 309 309 309 308 308 307 305 305 304 304 303 303 303 302 303 303 303 303 303 302 302 302 301 300 300 299 296 297 296 295 290 289 289 289
307 306 307 309 308 308 309 308 308 308 307 307 307 307 307 306 304 303 303 303 302 302 302 302 302 302 301 301 301 300 299 298 298 297 296 292 290 289 289 288 288 289 288
306 306 306 307 308 308 308 308 307 307 307 307 307 306 306 305 303 302 301 300 300 301 301 301 301 300 299 299 299 298 297 296 296 296 294 292 290 288 288 288 288 289 289
305 306 306 305 306 307 307 306 306 306 306 306 306 306 305 303 301 300 299 299 300 299 298 299 298 292 290 294 295 295 295 295 295 292 291 289 288 288 288 288 288 289 290

GFSMA_850_thetae_084.txt.gz
Theta_e
331 330 323 317 317 318 319 321 320 322 323 321 322 325 328 330 330 330 330 330 330 328 326 324 324 324 326 326 326 324 325 321 317 315 317 319 321 320 322 323 322 321 318
331 330 327 321 321 322 320 322 321 323 324 324 328 329 330 331 331 330 331 329 329 329 327 326 323 321 322 325 325 325 325 322 318 316 315 315 319 321 321 323 323 322 321
323 323 325 323 321 320 319 320 323 325 327 328 329 331 332 331 331 330 330 329 329 329 329 328 326 324 323 322 324 325 324 322 319 317 315 315 315 315 320 322 323 323 321
322 320 320 320 320 322 324 324 324 326 329 330 330 331 331 332 330 331 329 329 329 329 328 327 326 327 324 324 323 323 323 321 318 317 315 316 315 313 314 317 321 323 322
324 324 326 329 332 332 330 327 325 325 328 329 330 330 331 331 330 330 329 329 328 329 328 323 320 320 319 322 323 323 323 320 318 317 316 316 315 311 310 313 317 322 323
332 332 330 328 332 332 332 330 327 327 329 330 329 330 330 330 330 328 329 329 328 327 320 314 315 317 318 320 323 323 321 320 318 317 318 317 316 315 310 309 314 318 321
331 333 328 326 332 332 333 332 330 329 328 328 330 329 329 329 329 328 329 329 326 319 314 313 314 319 319 322 323 321 321 319 317 318 316 316 316 315 313 309 308 311 316
332 332 332 332 332 332 332 332 332 330 329 329 329 331 330 329 328 329 329 328 319 315 313 314 315 318 315 319 323 322 322 318 318 316 315 316 316 314 310 309 311 309 309
329 328 328 328 328 329 330 332 332 331 329 329 329 329 329 329 329 329 327 319 318 315 313 314 315 316 317 321 323 321 320 318 317 316 315 315 316 316 314 309 307 316 314
328 328 328 328 328 328 328 328 328 328 328 329 328 329 329 328 327 325 325 323 319 317 316 315 314 313 316 320 321 322 319 318 317 315 315 315 316 315 315 310 313 315 315
327 326 327 327 326 325 324 324 327 326 327 327 326 325 328 329 327 323 322 320 321 319 318 318 317 316 315 317 318 319 319 318 317 316 315 315 315 315 314 311 313 315 316
325 324 324 324 324 325 324 324 326 324 324 326 326 326 329 328 327 323 322 323 318 316 318 318 317 317 316 315 316 318 317 315 316 316 315 314 314 314 313 312 309 312 313
324 324 323 323 323 323 324 325 325 325 325 325 325 325 325 327 325 323 324 321 318 317 317 318 318 317 316 314 314 314 315 314 314 315 314 313 314 314 313 313 311 307 307
325 324 323 323 323 324 323 324 323 324 325 325 325 323 324 325 326 324 322 321 315 313 315 315 316 317 316 315 314 313 313 314 314 314 314 313 314 313 312 312 311 308 306
327 327 326 325 325 326 325 324 325 326 326 326 325 326 326 325 324 322 321 318 312 313 313 313 315 316 316 316 313 312 312 314 314 314 313 313 313 313 312 312 310 308 305
325 326 327 325 324 325 326 326 327 326 326 327 325 325 324 322 321 318 312 312 312 312 312 312 314 316 316 315 313 312 312 311 312 312 311 312 312 311 310 309 309 307 304
316 317 318 318 319 321 323 325 326 326 327 325 324 322 322 321 316 311 311 312 311 310 311 312 312 311 313 311 311 310 310 310 310 311 311 311 310 310 309 308 307 304 303
311 313 314 316 317 320 324 325 326 325 325 324 323 322 322 316 311 311 311 311 310 310 309 312 310 310 310 310 308 309 310 309 310 310 310 310 309 309 307 307 304 303 302
310 311 312 314 317 322 323 324 324 324 323 322 321 320 315 311 311 311 310 309 308 308 308 309 309 309 307 307 308 308 308 309 308 309 309 309 308 307 305 305 302 301 301
308 310 310 311 314 320 321 321 322 322 321 321 320 316 311 310 310 310 309 308 308 307 309 309 308 306 306 307 306 306 306 307 306 307 306 305 305 304 304 302 301 300 300
306 308 310 310 311 313 319 320 320 321 320 320 314 311 310 310 310 309 309 308 307 306 306 306 305 305 306 304 304 305 305 305 305 305 304 304 303 302 302 300 300 300 299
305 306 307 309 309 310 311 314 315 314 312 311 310 309 309 309 309 308 307 306 306 305 303 305 303 302 304 304 304 304 303 303 303 303 303 302 302 300 299 299 298 295 292
305 306 306 307 308 309 309 309 310 309 309 309 308 308 308 308 308 307 307 305 303 303 302 302 302 302 302 303 303 302 303 302 302 302 301 300 299 297 298 297 292 290 290
305 306 306 306 306 307 307 308 308 308 308 308 307 308 307 307 307 306 305 304 303 303 303 302 301 302 301 302 302 302 301 300 300 299 298 297 296 292 291 289 288 289 289
301 304 305 306 306 305 306 307 307 307 307 307 307 307 307 306 307 305 304 303 302 302 301 302 302 301 301 301 301 301 300 300 298 296 296 296 293 291 289 288 288 289 289
297 300 303 303 304 305 303 305 306 306 305 305 305 306 306 306 305 304 303 301 301 302 301 300 299 299 299 299 298 298 298 297 295 295 295 293 292 289 288 288 288 288 289

GFSMA_850_thetae_087.txt.gz
Theta_e
329 317 316 317 318 317 317 317 318 318 317 319 319 322 324 328 328 329 329 330 328 329 328 325 323 322 322 325 327 326 325 324 320 317 315 315 318 320 320 321 323 322 320
327 321 320 317 316 317 318 318 319 320 321 321 321 324 326 329 331 330 329 329 328 328 328 327 327 324 322 321 325 325 325 324 321 319 317 314 314 317 320 321 322 322 321
331 326 325 318 317 319 319 319 320 321 323 325 326 329 329 330 330 329 329 329 329 329 329 328 327 325 324 323 322 323 325 323 321 319 317 315 315 314 314 319 321 322 322
332 329 324 322 321 321 321 320 321 324 325 327 328 329 331 330 329 329 330 329 328 329 329 328 328 327 323 323 322 322 323 322 320 318 317 315 315 313 312 313 317 322 322
331 327 324 324 322 321 322 323 324 324 326 328 329 330 330 330 330 330 329 329 328 328 328 328 326 318 317 319 322 323 322 322 319 317 317 317 316 316 314 310 313 317 322
323 323 324 326 330 331 331 330 327 324 324 326 327 329 330 331 331 329 329 328 328 328 328 327 317 314 316 317 321 322 322 321 320 317 317 316 316 315 315 313 309 313 318
325 326 329 331 331 332 331 330 330 328 326 328 330 329 329 330 329 329 328 328 328 328 327 316 312 314 315 317 321 322 322 321 319 317 316 315 315 315 314 311 309 308 309
331 332 332 329 329 330 332 332 331 331 330 329 328 329 329 330 329 328 329 328 328 329 324 314 313 313 313 313 318 323 322 322 319 317 316 315 314 315 315 313 308 310 311
328 328 329 328 329 331 331 331 331 332 331 330 329 328 329 330 328 328 327 329 329 326 316 314 313 313 313 314 317 321 322 321 318 317 316 315 315 315 315 315 312 316 316
328 329 328 328 328 328 328 328 328 327 328 329 329 329 328 327 329 326 327 328 323 319 317 316 316 315 314 314 316 320 322 320 318 317 317 316 315 315 315 315 313 317 316
327 327 327 327 327 327 327 327 327 325 324 323 327 328 327 327 327 327 324 323 323 320 319 319 319 319 318 316 315 316 319 319 318 317 316 314 316 315 314 314 313 312 314
324 322 323 325 325 326 325 326 326 327 326 326 327 326 326 326 326 327 325 323 321 322 322 320 317 318 318 317 315 315 317 317 316 315 315 315 314 313 314 313 313 311 309
322 323 324 325 325 324 324 325 325 325 327 325 325 325 325 326 327 327 327 321 322 323 321 317 319 318 317 317 316 314 314 315 315 314 314 314 314 313 313 314 313 313 312
323 324 324 324 324 323 323 323 324 325 325 325 325 325 326 325 323 326 325 322 323 323 318 318 317 317 316 316 316 315 313 313 313 314 314 313 313 313 313 313 312 312 312
325 326 325 325 325 325 325 325 324 323 323 324 324 324 325 324 324 324 324 324 321 320 319 314 314 314 315 316 315 315 313 312 312 312 313 313 313 313 313 312 311 311 309
324 325 327 327 326 326 326 326 325 325 325 325 326 325 325 325 325 324 324 322 321 317 313 313 313 314 315 315 314 313 312 312 311 311 311 312 310 312 311 310 310 308 308
316 316 317 317 318 318 318 319 323 324 325 326 324 325 324 325 324 322 321 316 312 312 312 312 312 313 313 313 313 312 309 310 310 309 309 310 311 310 310 309 308 307 307
310 310 311 312 313 314 316 317 322 323 325 326 325 325 324 322 322 321 316 311 311 311 311 310 310 311 311 309 310 309 309 307 307 308 310 310 310 308 309 308 306 306 304
307 309 310 310 311 313 315 318 321 322 323 325 323 323 323 322 322 319 311 311 311 311 310 309 308 308 309 308 307 306 307 308 307 307 308 308 308 308 307 306 305 305 303
304 306 307 309 310 311 313 316 319 321 321 322 323 321 321 321 317 311 311 311 310 309 309 308 307 308 308 307 306 305 305 306 306 306 306 306 306 306 305 304 304 303 301
304 304 305 307 309 310 310 313 317 319 319 320 320 319 319 316 312 310 310 310 309 308 308 307 306 307 306 305 304 305 304 305 305 305 305 304 304 304 303 303 303 301 300
304 304 305 305 306 308 309 310 311 314 316 317 318 316 313 312 309 309 309 309 308 307 307 306 305 304 303 303 304 303 303 303 303 303 303 303 303 302 302 301 300 298 298
301 304 305 305 306 306 307 308 308 309 309 310 310 311 311 309 309 309 308 308 308 306 306 305 304 303 302 303 302 303 303 303 303 302 302 302 301 301 300 298 298 296 292
295 297 301 304 305 306 305 306 307 307 307 307 307 307 307 307 307 309 307 307 307 306 305 304 303 302 302 301 301 302 301 301 301 301 301 300 299 298 297 294 295 291 289
292 293 294 298 301 303 304 305 305 305 306 306 306 306 306 306 307 307 307 307 306 305 305 304 302 301 301 301 301 301 301 302 301 300 300 298 297 296 293 290 289 289 288
291 291 291 291 293 296 300 302 302 303 304 305 306 306 305 305 305 306 306 305 305 305 304 302 302 300 301 301 300 300 300 300 300 298 297 296 296 293 290 289 289 288 288

GFSMA_850_thetae_090.txt.gz
Theta_e
339 336 326 318 320 320 320 318 318 317 317 318 319 319 321 324 326 326 328 329 328 327 328 326 324 322 321 320 324 327 326 325 322 319 317 315 314 316 319 320 321 322 321
336 337 325 319 320 320 319 318 317 317 317 317 318 320 322 326 329 329 329 328 328 328 328 328 327 326 323 322 320 325 325 325 323 320 318 316 314 314 316 319 320 321 321
333 332 319 318 319 320 318 317 318 319 320 321 320 321 324 325 329 330 329 328 329 328 328 329 328 327 326 324 322 321 322 324 322 319 318 316 314 314 314 314 319 320 320
332 330 322 320 317 316 317 318 321 321 321 322 324 326 328 329 329 329 329 329 329 327 327 328 328 328 326 321 322 323 322 323 322 319 317 316 315 315 315 312 312 315 321
333 332 328 325 319 317 319 319 321 321 322 324 326 327 329 330 330 330 330 329 329 327 328 328 328 327 322 316 318 323 324 323 322 319 317 317 316 315 315 315 312 311 314
327 331 330 327 321 322 322 321 321 322 323 325 327 329 329 330 330 330 330 328 328 327 327 328 328 325 313 314 316 324 323 322 321 319 317 317 314 314 315 315 313 310 310
330 331 331 327 324 323 321 322 325 324 324 324 326 327 328 330 330 331 330 329 328 327 328 328 327 316 312 314 316 321 323 322 321 320 317 317 315 314 315 314 310 308 308
328 330 329 326 326 325 328 329 329 328 326 325 327 329 329 329 330 330 329 328 327 327 328 327 328 314 313 314 314 321 322 323 321 320 317 317 316 315 315 315 315 315 317
327 326 324 324 329 330 330 329 330 330 330 329 328 328 328 328 328 328 329 328 328 328 328 328 324 313 313 315 316 318 321 323 322 320 317 316 316 315 315 315 314 316 317
324 325 325 327 330 329 329 328 330 329 329 328 328 328 328 327 328 327 327 328 328 326 325 322 315 315 317 316 316 316 319 322 321 318 317 317 317 315 315 315 314 315 315
327 327 327 327 327 328 328 328 328 328 327 326 326 325 326 328 328 328 328 326 326 326 321 319 318 319 318 318 317 316 316 318 319 318 317 317 316 313 315 314 314 313 313
326 327 326 326 326 327 326 326 326 326 326 326 325 326 328 328 327 327 327 326 326 325 323 319 320 321 321 318 317 316 315 315 317 317 316 315 314 314 314 313 313 313 313
323 322 322 322 322 323 324 325 324 324 325 326 327 327 327 327 328 327 327 326 325 324 321 322 322 322 319 319 318 316 315 313 314 315 315 314 313 313 313 313 313 314 312
322 322 323 324 324 323 324 325 324 323 324 325 325 326 325 325 326 326 326 326 323 322 322 322 321 319 318 318 318 316 315 314 312 312 313 313 313 312 312 312 312 312 312
324 324 324 325 324 324 324 323 323 323 324 324 324 324 324 323 325 325 324 325 322 322 322 320 319 318 318 317 317 316 316 315 313 312 312 312 312 312 313 312 312 312 310
323 323 324 326 326 325 325 325 324 326 325 324 324 323 324 325 324 323 323 324 323 322 321 320 319 315 314 314 314 314 314 313 312 311 311 311 310 311 311 310 311 310 309
315 316 316 315 316 317 319 321 324 325 323 323 325 324 324 325 324 324 324 323 323 322 321 317 313 313 313 314 314 314 313 312 311 308 309 309 309 309 310 311 310 309 308
308 309 310 310 311 312 313 314 319 322 321 321 323 324 324 322 324 323 323 322 322 319 315 314 313 312 312 313 312 312 310 309 309 308 307 307 308 309 309 309 309 307 306
304 305 306 308 309 310 311 313 314 318 318 319 321 322 323 321 323 322 322 321 317 312 312 312 311 311 311 311 309 308 308 307 306 306 307 307 307 308 308 308 308 306 304
303 304 304 304 306 308 309 310 312 318 317 317 319 321 320 321 322 322 320 320 313 311 311 311 310 310 309 308 307 307 307 306 306 305 306 305 305 306 307 307 306 304 304
302 303 303 304 304 305 307 309 310 311 315 316 318 318 320 320 320 319 317 314 311 310 310 310 309 309 308 307 306 305 305 304 303 304 304 304 304 305 305 305 304 302 303
296 298 302 304 304 305 305 307 308 309 311 314 316 316 317 317 317 316 312 311 310 309 309 309 309 308 308 306 305 303 302 303 303 304 303 304 304 304 303 303 302 302 301
294 294 294 297 301 304 305 305 306 308 308 308 311 312 313 313 313 312 313 311 309 308 308 308 308 307 306 305 303 303 303 303 303 303 303 303 303 303 302 301 301 299 299
293 293 293 293 293 295 300 305 305 305 306 307 307 307 307 308 309 309 309 309 310 310 308 306 306 306 304 303 303 302 303 302 302 302 302 302 302 301 300 300 299 297 298
291 291 291 291 291 292 292 295 299 302 303 304 305 306 306 306 306 306 306 306 308 307 306 305 305 304 303 302 301 301 302 301 301 302 302 301 300 299 299 298 292 291 290
290 290 290 290 290 290 291 291 296 299 301 302 303 305 305 305 305 305 305 305 306 305 305 305 304 303 303 301 301 300 301 302 301 301 301 300 299 298 296 294 291 289 289

GFSMA_850_thetae_093.txt.gz
Theta_e
334 335 338 337 329 331 326 324 320 318 318 317 317 317 319 321 323 324 326 328 328 327 327 327 325 324 322 321 319 325 327 326 324 322 319 317 315 314 316 317 319 320 321
329 337 336 337 331 323 324 322 320 318 318 317 318 318 319 321 324 326 328 328 327 328 327 328 327 326 325 323 321 320 326 325 325 322 319 317 314 314 314 317 320 319 320
325 330 333 334 322 319 326 321 319 318 317 317 318 319 320 321 325 329 329 328 328 328 327 328 328 328 326 325 323 321 321 322 323 322 319 316 315 314 314 313 313 317 320
326 326 330 334 328 329 326 322 318 317 317 317 318 320 320 322 324 327 330 329 329 328 327 327 327 328 327 325 319 321 323 322 323 321 319 317 316 315 315 315 315 311 313
325 326 329 331 322 318 326 323 317 317 318 319 321 323 324 326 327 329 329 329 329 329 327 327 327 328 327 325 317 318 326 324 323 322 319 317 316 314 314 314 314 314 311
326 329 330 327 323 324 321 321 318 319 321 320 321 323 326 327 329 329 330 330 330 328 328 327 327 327 327 319 313 317 326 325 322 321 319 318 317 316 314 314 313 311 310
331 330 329 330 325 324 322 318 320 323 322 322 324 325 328 328 329 329 330 330 330 329 328 327 327 328 327 315 313 316 324 324 323 322 320 318 317 316 315 315 315 314 317
329 328 328 328 328 319 320 322 324 323 322 323 324 326 327 327 328 329 329 330 330 329 328 327 327 328 327 317 313 317 323 323 323 322 321 319 317 316 315 315 315 316 316
324 325 324 327 329 324 324 325 324 323 323 324 324 326 328 328 327 327 329 330 329 328 327 327 328 327 327 315 313 314 317 321 321 322 321 319 317 316 315 315 315 314 315
326 323 324 326 327 328 326 324 324 328 328 328 325 326 328 328 327 328 328 327 327 328 328 328 328 327 325 313 315 315 315 316 320 321 320 317 316 317 316 313 315 314 314
322 324 322 323 324 325 326 323 325 326 327 328 328 327 327 328 327 327 327 327 327 327 327 327 327 327 322 317 318 317 316 316 316 318 319 318 317 317 315 313 314 313 313
324 326 325 326 325 324 324 324 325 326 327 327 327 327 326 325 325 325 327 327 327 327 326 325 325 323 318 319 318 318 317 315 314 315 317 316 316 315 314 313 313 313 313
325 323 322 322 323 325 326 326 327 327 327 326 326 326 325 325 325 326 327 328 327 326 325 324 324 320 319 320 320 320 316 315 314 313 315 316 315 314 313 312 312 312 313
323 323 323 322 321 324 323 324 324 323 324 324 324 324 324 324 325 327 327 327 325 325 324 323 322 320 320 321 319 318 317 315 315 313 312 313 313 313 313 312 311 312 312
324 324 322 320 323 324 324 323 323 323 323 324 324 323 324 325 325 325 324 324 325 323 321 320 321 321 322 320 319 318 317 315 315 314 312 312 312 310 312 311 312 311 310
322 322 322 323 323 324 325 324 324 324 323 323 323 323 324 324 324 324 324 324 323 323 322 321 322 322 321 318 318 317 316 315 315 313 312 311 311 310 310 310 311 310 310
312 313 315 319 320 316 320 323 323 321 324 324 324 324 324 324 325 324 324 324 323 323 321 322 321 320 318 317 317 316 315 314 314 313 311 310 308 309 310 309 310 309 310
306 307 308 309 310 310 311 312 314 316 318 318 320 321 321 322 323 323 323 324 324 321 322 321 319 317 315 314 314 314 314 314 312 311 309 308 308 308 308 308 309 310 309
303 304 304 304 305 307 309 310 310 312 313 317 318 318 319 320 322 323 323 322 322 320 321 320 318 315 313 313 312 312 312 311 310 308 307 305 306 306 306 307 308 308 308
301 302 303 303 304 304 305 307 309 310 310 316 315 315 318 319 320 320 321 320 321 321 319 315 314 313 312 312 311 311 310 308 307 306 306 305 305 305 305 306 306 307 306
295 295 296 299 303 304 304 304 305 308 309 312 314 316 315 317 318 319 320 321 320 318 314 312 312 311 311 311 310 309 308 306 306 305 303 303 304 304 303 304 304 305 304
294 294 294 294 294 296 302 304 305 306 307 308 309 313 313 316 317 317 317 318 317 317 313 311 311 311 310 310 309 308 306 305 304 303 303 303 303 302 302 302 303 304 303
292 292 292 292 292 292 293 294 299 304 305 306 307 308 310 312 314 314 315 316 314 313 311 311 310 310 309 309 308 307 306 304 303 302 303 303 303 303 302 302 303 303 302
291 291 291 291 291 291 291 291 292 293 297 303 304 305 307 308 310 311 310 310 310 311 310 310 309 310 308 307 307 306 304 303 303 302 302 301 302 303 302 302 302 301 301
290 290 290 290 290 290 290 290 290 291 293 295 299 302 303 305 306 306 307 307 307 307 308 309 309 308 309 307 305 303 303 302 302 302 301 300 300 301 301 301 300 300 298
289 289 289 289 289 289 289 289 289 290 290 295 296 298 301 302 304 305 305 305 305 306 306 307 306 306 306 305 304 303 302 302 301 300 300 300 300 301 299 300 299 298 292

GFSMA_850_thetae_096.txt.gz
Theta_e
327 327 332 334 335 334 331 334 333 323 319 318 317 317 317 319 320 322 324 326 327 327 326 326 325 324 323 322 321 321 327 327 325 324 320 318 314 313 313 315 316 317 319
327 327 327 331 334 334 334 331 331 327 320 318 317 317 317 317 320 322 323 325 327 326 327 327 327 326 325 324 323 320 323 327 324 324 320 318 315 314 313 313 316 318 319
327 326 325 326 330 335 334 329 330 327 323 318 318 317 317 317 320 322 325 327 327 327 327 327 327 327 327 326 324 320 320 321 321 322 321 318 316 315 314 314 314 313 313
323 324 327 328 327 327 334 329 325 327 323 319 318 317 318 319 320 321 327 328 328 328 327 327 327 326 327 326 325 320 320 325 322 322 320 318 316 315 314 313 314 314 313
323 322 325 328 330 328 330 324 321 324 323 319 317 317 319 319 320 322 324 328 328 328 329 328 327 327 327 327 326 318 320 324 324 323 321 319 317 316 316 314 314 313 312
326 327 324 326 330 330 330 325 322 321 320 319 318 317 320 321 322 324 326 328 329 329 329 329 327 327 327 327 326 314 320 324 326 322 321 319 318 317 317 315 314 314 314
326 327 327 326 328 330 331 327 323 325 324 319 320 323 323 323 325 327 328 328 329 330 330 329 328 327 327 327 326 314 319 325 326 322 321 320 319 317 317 315 314 314 314
326 328 328 326 330 327 326 323 321 320 320 319 324 325 323 323 325 326 328 329 329 330 330 330 328 327 327 327 327 321 313 324 323 322 321 321 320 318 317 315 315 314 314
326 325 330 330 330 328 324 319 319 323 321 319 325 324 325 326 326 326 327 328 328 329 329 329 328 327 327 327 327 323 313 321 323 320 318 320 320 317 316 315 314 314 314
326 327 327 329 330 329 323 322 319 317 320 321 324 324 324 327 327 326 326 325 327 329 329 329 328 327 327 327 327 321 313 316 314 315 318 318 319 317 317 316 314 314 314
326 326 327 325 323 324 326 325 317 317 321 325 324 324 324 325 327 327 327 327 327 327 326 326 327 328 327 327 324 316 314 316 316 316 317 319 318 319 316 317 314 314 314
328 327 325 324 325 324 325 325 324 323 322 323 324 325 326 325 326 327 327 326 325 325 326 326 326 327 327 326 323 316 317 316 316 315 315 318 317 317 316 315 313 313 312
326 325 322 324 321 322 322 322 322 321 323 323 324 325 324 325 327 326 325 325 325 325 326 326 326 327 326 324 320 319 318 318 317 315 314 315 316 316 316 315 313 312 311
322 325 324 323 324 322 323 323 323 323 323 324 324 324 326 325 325 325 325 324 324 325 326 326 326 326 325 323 320 320 319 318 316 315 314 313 314 314 313 313 312 312 311
321 323 322 322 322 322 321 321 320 321 322 323 323 324 323 324 323 323 324 324 325 324 324 323 324 324 322 321 320 320 319 318 317 315 314 313 312 312 312 312 310 310 311
321 321 321 321 322 320 323 323 323 324 323 323 323 323 323 322 321 323 325 325 324 323 323 322 322 322 321 321 321 320 319 317 317 315 315 313 312 312 311 310 310 310 311
308 310 312 313 315 318 318 316 320 323 323 323 323 323 323 323 323 323 324 323 323 323 322 323 322 321 321 320 321 319 317 317 317 315 314 312 312 311 310 309 309 309 309
303 304 304 305 306 308 309 310 311 314 320 321 322 322 321 320 320 322 321 322 323 322 323 323 322 321 320 320 319 318 317 317 316 315 314 312 311 310 308 307 309 308 308
299 301 302 303 303 304 304 305 308 309 310 312 314 315 317 318 318 319 320 320 322 322 321 322 322 320 320 319 318 317 316 315 314 313 313 311 310 307 305 307 307 307 308
296 295 295 295 297 301 303 304 304 305 307 309 310 311 315 314 316 317 318 318 320 320 320 321 320 319 319 316 315 314 313 313 312 312 310 308 306 305 305 305 305 305 307
294 294 294 295 294 294 294 296 300 303 304 305 307 309 312 313 315 314 315 317 318 318 318 319 317 318 317 314 313 312 312 312 311 309 307 306 305 303 304 304 304 304 304
293 293 293 293 293 293 293 293 293 294 294 300 304 305 307 309 312 314 315 316 316 317 317 317 317 316 313 312 312 312 311 310 309 307 306 305 303 302 303 303 302 302 302
292 292 292 292 292 292 292 292 291 292 292 293 293 299 304 306 307 309 312 313 313 315 314 317 316 314 312 312 311 310 310 309 307 306 304 303 302 302 302 302 301 301 302
291 290 290 290 290 290 290 291 291 291 291 291 291 293 294 301 304 306 307 309 310 312 312 313 313 313 311 311 310 309 308 307 306 305 303 302 302 302 301 301 301 301 302
289 288 288 288 288 288 288 288 289 289 289 290 290 291 292 296 300 303 304 305 307 308 309 310 310 310 310 309 308 309 308 308 306 303 303 302 301 301 301 301 301 301 301
287 287 287 287 287 287 287 287 287 287 288 288 289 289 290 292 297 300 302 303 304 305 306 307 308 308 308 308 308 309 309 309 306 302 302 301 301 300 300 301 301 300 299

GFSMA_850_thetae_099.txt.gz
Theta_e
328 327 328 331 331 333 333 334 331 330 329 324 319 319 319 320 321 321 321 323 324 326 326 327 326 323 323 321 321 321 325 328 327 324 322 318 314 313 313 313 315 317 317
329 328 328 329 332 332 333 334 334 331 333 326 321 319 318 318 319 321 322 323 325 327 325 326 328 326 326 324 323 321 322 325 327 323 322 319 315 314 313 313 313 313 316
322 323 327 327 328 333 333 333 334 333 332 332 324 319 318 317 317 319 321 322 324 327 326 327 327 327 327 326 325 323 318 321 321 321 321 319 316 315 314 313 313 313 313
324 322 322 327 326 328 333 334 333 334 330 324 327 321 318 317 316 317 320 322 324 327 327 327 327 326 326 326 326 325 318 321 323 322 321 320 317 316 316 315 313 313 313
324 325 323 322 325 326 328 329 333 334 328 325 328 323 319 318 317 318 320 321 326 328 328 327 327 327 326 326 326 327 319 321 324 324 322 320 318 317 316 316 315 313 313
324 325 324 324 324 325 326 330 329 329 329 325 324 320 319 318 317 320 321 321 323 328 328 328 329 327 327 326 327 327 321 315 322 325 323 320 319 318 317 317 314 313 314
324 324 326 325 325 327 326 328 329 330 331 324 320 318 320 319 318 318 320 321 323 325 328 329 329 329 327 327 327 327 325 314 319 324 324 320 319 318 318 317 315 314 313
325 325 326 326 327 327 327 325 327 329 329 322 320 321 321 320 318 320 322 324 326 327 329 329 329 329 328 327 327 327 326 317 314 321 322 320 320 319 319 317 316 315 314
324 325 325 327 326 330 329 326 327 329 328 323 322 324 322 324 323 322 321 323 325 327 328 329 330 329 329 328 327 327 327 324 314 319 322 321 317 318 319 316 315 315 314
324 324 325 327 327 329 329 327 327 328 325 322 323 322 318 323 325 323 323 323 324 326 328 328 328 329 329 328 327 327 327 326 318 325 323 318 317 318 318 316 316 316 314
325 324 324 326 326 327 327 325 325 323 323 322 322 320 320 320 323 325 326 326 326 325 326 327 328 328 327 328 327 327 326 324 318 321 323 321 318 319 318 318 316 316 313
324 325 325 326 326 327 326 326 323 322 321 320 320 318 319 321 322 323 325 326 326 326 326 326 327 326 326 327 327 326 326 322 318 319 319 320 320 320 320 318 316 315 313
324 325 327 327 327 326 325 326 325 324 319 320 318 317 319 320 322 324 323 324 324 326 326 324 324 324 324 325 326 326 325 319 317 318 318 319 318 319 319 318 316 315 313
321 323 323 323 323 324 323 322 322 323 321 319 321 320 322 322 322 321 322 323 325 325 324 324 323 323 324 325 326 326 324 320 320 317 317 316 318 317 317 316 316 314 313
320 319 322 321 322 322 323 322 322 322 321 320 321 320 321 322 322 322 323 324 324 324 324 323 324 324 324 323 324 324 322 322 319 318 317 315 314 315 314 313 313 312 311
318 320 320 320 321 321 321 322 321 322 322 321 319 320 322 322 322 323 322 321 322 323 323 324 324 323 323 322 323 322 323 321 319 319 316 315 314 313 312 312 311 311 310
304 304 307 308 311 313 316 318 317 318 318 321 321 323 323 323 321 323 323 323 322 323 323 322 323 322 322 322 322 321 321 321 320 317 316 315 315 313 312 311 311 310 309
298 300 302 303 304 304 305 307 309 310 312 313 317 321 320 320 320 321 321 320 321 321 321 321 321 321 321 321 321 320 320 320 319 316 316 315 315 313 312 310 309 308 307
295 295 295 296 296 298 301 303 304 304 306 308 309 310 312 313 315 316 316 317 318 319 320 320 321 320 321 321 321 320 319 319 318 317 316 316 314 313 311 309 307 306 308
294 294 294 294 294 294 294 294 295 297 301 303 304 306 308 310 311 312 315 315 316 316 318 318 320 320 320 320 320 320 317 317 317 316 316 314 313 312 310 307 304 305 306
293 293 293 294 294 294 294 294 294 294 294 294 294 297 303 306 308 309 311 313 313 315 315 316 318 318 318 318 319 318 318 317 316 315 314 313 311 310 308 304 304 304 304
293 293 293 293 292 292 292 293 293 294 294 294 294 294 294 294 302 306 307 309 311 313 314 314 315 315 315 318 317 317 316 314 313 313 312 311 310 308 305 304 303 302 302
290 289 289 289 289 289 289 289 289 290 290 291 291 292 293 293 293 293 301 306 307 310 310 312 313 314 315 317 318 316 316 314 312 312 311 310 308 306 304 302 302 301 301
288 288 287 287 287 287 287 288 288 288 288 288 289 289 290 291 292 293 295 295 304 306 307 310 310 312 314 316 316 315 313 312 312 311 309 306 305 304 302 301 301 301 301
287 287 287 286 286 286 286 286 286 287 287 287 288 288 288 289 289 290 296 298 299 301 305 306 308 309 311 311 313 312 312 311 310 308 307 305 304 303 301 301 301 300 301
286 286 286 286 286 286 285 285 285 285 286 286 286 287 287 287 288 289 292 295 297 299 302 305 305 306 309 309 312 311 310 310 309 307 306 305 304 302 300 300 300 300 300

GFSMA_850_thetae_102.txt.gz
Theta_e
327 328 329 336 336 336 336 333 333 335 334 335 330 325 324 326 326 326 327 322 321 322 325 325 326 323 321 321 320 321 321 327 328 327 324 320 315 313 312 313 313 315 317
330 331 330 328 330 337 336 334 334 335 333 333 332 330 323 320 323 323 325 324 322 323 325 326 329 327 325 325 324 322 321 327 326 327 323 321 318 314 313 313 313 313 313
330 329 324 324 326 328 335 335 334 334 334 332 331 329 323 320 319 320 320 322 323 324 326 326 325 328 328 328 326 324 322 318 320 323 321 321 319 315 314 314 313 313 313
328 323 323 324 323 329 328 331 332 333 334 334 333 332 328 323 321 319 319 320 321 322 323 326 326 327 327 327 327 326 324 321 322 321 321 321 319 317 315 315 315 314 313
323 323 324 325 326 324 324 328 329 332 333 334 334 330 325 326 320 320 320 319 319 321 323 325 326 327 327 327 326 326 326 326 318 324 325 322 319 318 316 316 316 315 313
323 323 324 325 327 328 328 327 334 333 332 332 333 333 327 321 325 319 318 319 321 322 322 326 327 327 327 327 327 326 327 327 321 317 323 324 320 318 317 317 317 315 313
324 323 324 324 325 327 328 328 328 326 330 331 332 331 326 324 329 320 318 317 318 320 321 322 328 328 328 328 327 326 327 327 326 316 321 325 323 319 318 318 317 317 314
323 324 324 324 324 327 328 328 327 328 327 331 330 329 328 326 325 320 319 319 318 318 320 321 323 327 328 329 328 327 326 327 327 326 320 324 324 320 319 318 317 317 315
323 323 323 323 324 326 327 328 327 327 327 328 329 328 325 323 323 321 319 318 319 318 320 322 324 327 329 329 329 328 327 327 327 325 326 322 324 321 320 319 318 316 315
325 324 323 323 324 326 327 327 327 328 329 328 327 328 326 323 322 322 322 320 321 322 321 322 325 327 328 329 330 329 328 327 327 325 326 324 324 322 320 319 318 316 316
323 326 325 325 326 326 327 327 326 329 328 327 327 326 325 322 323 323 323 322 321 320 322 323 322 326 327 327 326 326 327 327 327 325 326 325 324 322 319 320 319 317 317
323 325 327 325 325 326 326 326 326 327 327 326 326 325 324 323 322 321 320 322 322 323 323 323 324 325 325 325 325 326 326 327 327 326 325 324 323 321 320 321 320 318 317
320 322 323 326 327 326 326 326 326 326 325 325 324 323 322 322 321 320 320 319 319 320 322 322 323 322 325 325 325 325 326 326 326 326 325 325 322 322 322 322 321 319 317
320 320 322 322 323 324 324 323 323 324 324 323 322 322 321 321 320 319 318 319 323 322 322 320 322 322 324 324 324 324 323 323 325 325 325 324 321 321 321 321 321 319 317
318 320 318 319 320 321 322 322 323 323 322 322 322 320 320 320 318 317 318 320 322 322 321 320 322 322 322 322 323 323 323 323 323 326 324 322 321 319 319 319 318 318 316
304 308 313 314 315 317 318 320 320 321 322 321 322 322 321 320 320 320 320 321 321 322 323 322 321 321 320 322 323 323 323 323 324 324 324 322 320 318 317 316 316 317 315
298 300 302 304 305 306 311 313 314 316 318 318 318 318 319 321 321 321 320 321 322 322 322 321 321 321 323 323 322 322 321 323 321 322 325 323 318 317 315 314 314 313 312
295 295 295 295 295 296 298 301 303 304 306 309 312 315 317 320 319 319 319 320 321 321 322 322 321 321 320 321 321 321 321 320 321 322 320 319 318 315 314 313 313 312 311
295 295 295 295 295 295 295 295 294 295 296 300 303 305 307 308 310 312 314 316 317 318 318 317 319 319 319 319 320 320 321 320 320 318 319 319 316 315 314 313 312 311 311
294 294 294 294 294 294 294 295 295 295 295 295 295 294 295 298 303 306 309 310 312 314 315 316 316 317 318 319 319 320 320 320 320 319 318 317 316 316 314 313 312 311 310
293 293 292 292 292 291 291 291 292 292 293 293 294 294 294 295 294 294 299 305 308 310 311 312 314 315 316 317 318 318 319 320 318 318 317 316 316 315 314 313 312 310 309
289 289 289 288 288 289 289 289 289 289 290 290 290 291 292 293 293 293 293 295 301 306 308 309 310 311 313 313 316 317 318 316 313 315 316 316 316 314 314 312 311 309 305
287 287 287 287 287 287 287 287 287 287 288 288 288 289 289 289 290 291 292 292 294 296 303 306 308 309 309 311 312 314 315 316 317 317 314 313 316 314 313 311 309 305 303
287 287 287 287 287 287 286 286 286 286 286 286 287 287 288 288 288 289 290 292 292 293 295 301 303 305 307 308 309 311 313 315 313 314 313 313 314 312 312 310 307 304 302
287 287 287 286 286 286 286 286 286 285 286 286 287 288 288 287 288 287 287 292 293 294 292 296 299 302 304 306 307 308 309 309 308 311 312 311 312 311 309 308 305 303 301
286 286 286 286 286 286 286 286 286 285 287 288 288 289 289 287 286 286 287 290 291 292 293 291 292 298 301 304 306 307 307 307 306 306 310 309 311 308 305 304 303 302 301

GFSMA_850_thetae_105.txt.gz
Theta_e
330 329 332 335 336 335 336 336 336 335 335 335 334 328 330 329 328 328 329 329 327 320 320 322 327 322 321 320 319 319 321 322 327 328 326 323 319 314 312 312 312 313 314
328 328 328 329 330 336 337 335 335 335 335 335 334 333 328 328 328 327 327 327 326 322 321 322 324 328 326 322 323 322 320 320 327 327 327 324 320 317 313 313 313 312 312
330 329 331 331 330 328 330 335 335 335 334 335 335 335 333 329 325 325 325 325 325 323 321 323 325 325 328 328 326 326 324 322 322 319 323 324 320 319 315 314 314 314 313
331 330 330 330 329 331 332 332 330 334 333 333 333 334 333 331 327 324 321 321 323 324 322 322 324 326 325 327 329 328 328 325 323 320 321 320 321 319 317 315 315 316 315
330 329 328 328 328 330 329 330 330 331 331 331 332 333 333 333 332 328 321 320 320 321 322 322 322 325 325 326 327 327 326 327 325 324 318 323 323 321 318 316 316 316 316
328 327 328 328 328 329 329 328 329 329 330 329 330 332 331 332 332 331 326 322 320 320 319 318 321 322 325 326 327 326 326 327 327 326 322 319 325 323 320 318 317 317 317
326 327 327 327 328 328 328 328 329 330 329 328 329 330 328 332 331 331 329 326 320 319 321 318 318 319 324 327 327 327 326 326 326 327 327 321 321 324 322 319 318 317 317
322 325 326 326 326 326 328 328 327 328 329 329 329 328 329 327 330 328 331 326 320 322 319 320 318 319 319 322 326 327 328 327 327 326 327 328 319 324 324 320 318 318 317
323 324 323 324 326 326 326 326 327 327 328 329 328 328 328 328 328 328 327 327 323 324 321 318 318 319 319 321 321 325 328 329 327 326 327 327 327 321 325 322 319 318 318
323 323 326 326 326 325 326 326 326 327 328 328 328 327 327 328 326 326 327 326 324 323 322 318 319 319 319 321 323 325 327 328 328 327 327 327 327 327 322 323 321 319 318
322 321 321 322 324 326 325 325 326 327 327 328 327 328 328 328 328 324 324 324 324 322 321 319 320 319 319 322 323 325 327 327 327 328 328 327 327 327 326 323 322 319 320
322 320 322 323 323 324 326 326 326 326 328 327 326 328 328 327 326 325 323 324 324 323 323 321 321 322 324 323 324 324 324 325 326 325 325 327 327 327 327 325 322 322 319
320 320 320 321 320 321 324 326 325 326 327 326 326 327 326 327 326 325 324 323 323 322 323 322 321 321 322 322 321 322 323 322 323 325 325 325 327 326 328 326 323 321 321
318 318 319 317 315 319 320 322 322 324 325 324 325 325 325 325 324 324 323 323 321 319 319 320 319 319 321 320 320 321 322 324 324 324 324 324 325 326 326 326 323 323 322
303 307 310 313 313 313 314 316 317 318 321 323 322 322 323 323 322 323 322 321 320 320 321 320 319 320 320 321 319 320 320 320 320 323 322 323 324 324 325 327 323 323 320
299 298 300 302 304 308 309 311 312 313 316 316 319 320 319 321 321 320 320 320 319 318 319 319 320 322 322 321 320 320 320 320 321 321 322 324 323 324 324 326 323 322 321
296 297 297 296 297 297 297 301 304 307 306 308 313 315 316 317 318 318 320 320 320 320 320 319 322 321 321 321 321 321 321 322 324 323 323 323 323 324 324 326 321 319 319
296 296 296 296 296 296 296 296 296 296 296 296 298 299 302 306 309 314 315 316 318 319 321 321 322 322 321 321 321 319 320 321 322 321 321 322 322 323 324 323 320 318 316
295 294 294 294 294 294 294 294 294 294 295 295 295 296 295 296 299 302 307 308 309 313 316 317 318 318 318 318 319 320 320 320 320 320 320 320 320 322 322 322 319 316 314
292 292 291 291 290 290 290 291 291 291 292 292 293 293 294 294 294 295 295 296 300 304 307 311 314 315 316 316 317 316 318 319 319 320 320 319 318 319 319 319 317 315 314
289 289 289 289 289 289 289 289 289 289 289 290 290 290 290 291 292 293 293 294 294 296 302 305 308 310 311 311 313 315 314 316 318 319 318 318 317 317 317 316 315 314 314
289 289 289 289 289 289 289 288 288 289 289 289 289 289 289 289 290 290 290 291 292 293 295 300 304 305 307 309 311 311 312 312 314 316 317 316 317 318 317 316 316 315 313
289 289 289 289 288 288 287 286 286 287 287 287 287 288 288 288 289 290 290 290 290 292 293 294 299 301 304 304 307 308 309 310 311 313 315 315 316 316 316 316 316 315 314
288 288 287 287 287 287 286 286 286 286 286 287 288 288 289 289 289 288 288 288 288 289 291 293 294 297 300 300 303 305 306 308 309 309 311 311 313 312 316 315 315 315 313
287 287 286 286 286 286 286 286 286 286 286 287 288 289 289 290 290 290 287 287 287 288 289 292 293 294 293 294 299 302 304 305 307 308 309 309 310 310 310 312 312 312 312
287 287 286 286 286 286 286 286 286 286 286 287 288 289 289 290 290 289 289 289 289 290 290 289 289 289 289 289 291 296 301 302 305 306 307 308 308 307 306 308 308 307 308

GFSMA_850_thetae_108.txt.gz
Theta_e
331 330 336 337 336 337 336 335 335 334 335 334 334 329 329 331 330 327 331 330 330 328 321 319 325 328 322 318 318 318 320 321 324 326 327 326 322 318 313 312 312 312 313
332 329 330 331 335 337 337 335 334 334 334 333 334 334 333 329 330 329 328 329 329 328 325 320 320 322 327 325 320 319 319 319 320 323 327 327 326 320 317 313 313 313 313
332 328 328 327 327 330 330 330 334 333 334 333 333 334 335 332 329 329 328 327 326 326 324 321 320 321 322 327 328 323 324 324 326 324 321 318 324 320 319 315 314 315 315
332 332 331 329 328 329 329 327 326 330 332 334 334 333 334 335 332 332 328 327 326 325 323 320 319 320 322 323 324 329 329 328 327 323 324 320 321 320 320 318 315 315 316
332 331 331 330 329 328 328 325 325 328 330 329 329 330 330 332 332 333 331 327 324 322 321 320 318 318 320 322 324 324 328 328 328 326 324 323 318 322 322 319 317 316 316
331 331 328 328 327 327 327 327 327 324 325 326 328 329 329 329 330 332 332 331 331 322 321 320 320 319 318 320 323 324 324 325 326 327 326 326 323 320 324 322 319 317 317
326 326 328 327 327 327 327 327 327 328 325 324 327 328 329 329 328 327 328 330 331 327 324 321 319 319 319 319 320 323 324 326 326 325 326 326 327 323 321 323 322 318 317
325 326 327 326 326 325 325 325 325 325 326 327 327 329 328 328 327 329 329 328 330 330 329 322 321 319 318 318 321 322 322 326 327 326 326 326 326 327 323 321 324 321 318
323 323 322 323 322 324 324 324 325 326 326 326 327 328 328 327 327 327 326 326 326 329 329 329 326 320 319 318 318 319 319 322 326 327 327 327 327 326 327 321 322 324 320
323 324 323 323 323 322 323 323 324 325 325 326 326 327 327 327 327 327 327 327 327 327 327 327 328 322 321 318 318 318 319 320 321 325 327 328 328 327 327 327 323 322 322
321 321 321 321 321 321 322 322 322 323 325 326 325 326 327 326 326 328 326 326 327 327 327 326 325 324 323 320 318 319 319 319 320 324 327 328 328 328 328 328 327 323 322
319 320 320 319 320 320 320 318 321 323 323 324 326 326 326 327 325 327 328 327 325 326 326 325 324 323 322 321 319 320 321 321 319 323 323 324 326 328 328 329 327 327 325
317 317 318 318 318 317 316 315 316 319 322 324 326 324 325 326 326 325 326 326 325 325 324 324 322 321 322 323 324 323 321 322 322 322 323 324 325 325 324 326 329 327 326
305 305 311 311 309 311 313 315 313 315 315 316 321 323 324 325 326 326 326 325 324 323 324 324 324 325 324 321 322 321 321 320 322 322 323 323 323 323 323 324 327 328 327
299 298 298 299 301 302 303 307 308 313 314 314 313 315 317 321 321 322 323 323 322 321 321 322 322 321 321 321 320 320 320 320 320 320 319 320 320 321 323 324 324 325 327
295 296 297 298 297 297 298 298 301 305 310 312 311 310 310 315 317 316 319 319 320 320 320 320 320 320 320 320 320 319 319 321 321 320 320 319 320 321 321 321 323 324 325
296 296 296 296 296 296 296 297 297 296 297 299 303 304 299 304 311 312 314 314 315 315 317 319 319 319 319 320 321 320 320 321 321 321 320 320 321 321 321 322 323 323 324
294 294 293 293 292 292 293 293 293 294 294 295 296 297 297 296 297 302 302 305 309 310 311 312 317 320 320 320 320 321 322 321 322 321 320 322 322 322 322 323 323 323 324
291 291 290 290 290 290 290 290 290 290 290 291 291 292 292 294 294 295 295 295 297 298 304 307 309 313 315 317 318 318 319 319 320 320 320 320 321 320 320 321 322 323 324
290 290 290 289 289 289 289 289 289 289 289 289 289 290 290 290 291 291 292 293 294 295 295 298 302 306 308 311 314 315 316 316 316 317 318 319 319 320 320 320 319 321 323
289 289 289 289 289 289 288 288 288 288 288 288 288 288 289 289 289 289 290 291 291 292 293 294 295 298 303 306 309 310 311 312 314 314 314 317 319 320 318 318 319 321 319
289 289 289 289 289 288 288 288 287 287 287 287 287 287 288 287 289 289 289 289 290 291 292 293 293 297 298 301 304 306 307 309 309 310 311 313 315 316 317 317 318 318 318
288 288 288 287 287 287 287 287 287 286 286 286 287 287 287 287 288 289 290 289 288 288 288 291 293 294 295 298 300 302 303 304 306 308 308 309 311 312 314 316 317 317 317
288 287 287 287 287 286 286 286 288 287 286 286 286 287 288 289 289 289 289 288 287 287 287 289 293 293 293 292 294 297 299 301 302 304 306 307 309 310 311 312 314 316 316
287 287 287 286 286 286 286 286 287 287 286 286 286 287 288 288 289 290 290 289 287 287 287 288 289 290 292 291 290 290 291 294 297 301 303 304 306 308 309 310 311 312 312
287 286 286 286 286 286 286 286 287 287 287 286 286 286 286 287 289 290 290 289 288 288 288 287 287 287 287 287 287 288 293 294 296 298 300 302 304 306 307 308 309 310 310

GFSMA_850_thetae_111.txt.gz
Theta_e
333 334 335 337 337 337 337 336 335 334 334 333 334 334 333 328 325 330 327 327 330 330 328 327 319 318 323 323 318 316 318 323 325 326 326 327 324 321 317 313 312 312 313
330 332 331 330 335 335 336 336 335 334 334 334 334 333 333 333 328 329 330 328 330 330 330 328 325 319 320 326 322 318 317 317 317 322 322 326 327 325 319 316 313 313 314
332 331 331 329 332 332 335 334 332 332 333 333 332 333 333 333 334 330 329 330 329 328 328 328 326 323 320 322 325 326 323 320 319 319 322 325 320 324 322 319 315 314 315
332 330 331 330 328 327 328 330 329 328 328 333 332 331 332 332 332 333 330 329 329 328 327 326 324 323 321 320 321 321 324 326 325 325 325 325 323 320 320 319 318 315 315
331 331 331 331 331 330 330 329 328 326 325 325 325 326 328 329 330 331 331 332 330 328 328 326 325 323 321 321 322 322 322 324 328 328 328 324 323 320 321 321 320 317 316
329 329 330 330 327 329 328 327 326 326 325 323 324 324 323 322 325 328 330 330 331 331 329 326 325 324 321 320 320 321 321 322 323 328 327 326 324 325 319 321 323 320 317
328 328 329 329 327 326 327 327 327 327 326 326 328 325 322 322 325 326 328 329 329 330 330 328 327 327 321 320 319 320 322 323 323 324 325 325 326 326 326 320 321 323 321
327 327 326 326 326 326 326 326 325 325 325 325 325 326 326 326 326 324 325 327 328 327 327 327 329 326 321 326 322 319 318 320 324 325 326 325 325 325 326 327 325 320 323
325 326 325 324 324 322 322 321 321 322 323 323 324 326 325 325 325 326 326 326 326 326 327 328 328 327 326 328 322 319 318 319 321 325 326 326 326 326 326 326 326 321 320
322 322 321 320 321 321 322 322 321 321 321 320 322 324 324 325 325 325 325 326 326 326 326 326 326 326 327 325 323 322 321 319 319 322 323 326 326 327 328 327 326 327 320
318 319 319 320 319 319 319 319 318 319 319 320 321 322 322 324 325 325 325 325 326 326 325 326 327 327 327 327 325 327 322 319 318 319 320 322 324 326 328 328 328 327 326
316 317 317 318 317 317 317 316 316 316 316 317 318 321 323 323 323 324 325 326 326 325 325 325 326 326 327 327 326 326 323 322 319 319 320 322 323 325 326 328 329 329 327
312 310 311 310 309 308 308 310 312 314 314 315 315 315 318 321 321 324 324 325 325 325 324 324 324 326 326 326 324 323 323 322 318 319 323 323 323 323 323 324 324 329 329
299 299 301 301 300 300 301 301 301 303 308 312 313 313 314 313 314 316 319 323 326 325 324 324 325 325 325 325 324 322 322 321 319 321 322 322 321 322 322 324 324 324 324
297 298 300 300 299 297 297 297 299 298 298 300 304 309 311 312 311 309 314 314 315 321 323 323 324 325 324 324 323 323 322 322 323 322 320 320 321 322 323 322 323 323 322
297 297 296 296 295 295 296 295 295 296 296 297 298 301 305 308 305 304 309 309 310 311 316 318 320 320 321 322 322 321 321 322 322 321 320 320 320 320 320 320 320 321 321
294 294 293 292 292 292 292 291 291 291 291 292 293 297 299 299 300 301 305 301 304 306 308 313 313 316 319 319 319 319 320 321 320 320 320 320 321 320 320 320 320 320 321
291 291 290 290 290 290 290 290 290 290 289 289 290 290 291 291 293 293 294 294 296 297 301 305 306 310 314 315 317 320 319 321 320 320 320 321 321 321 321 321 321 321 321
290 290 290 290 290 289 289 289 289 289 288 288 288 289 290 290 290 290 290 291 292 293 294 298 300 301 307 311 313 314 314 317 319 320 320 319 320 320 320 321 322 322 322
289 289 289 289 289 289 288 288 288 288 288 288 287 287 287 288 288 289 290 290 290 291 292 292 294 295 300 303 306 309 309 311 314 314 317 316 319 319 319 320 320 320 320
289 289 289 289 289 288 288 288 288 288 287 287 287 287 287 287 287 288 290 290 290 290 290 291 292 292 295 298 301 304 306 307 308 310 312 313 313 315 317 319 320 319 319
289 289 289 289 289 288 288 288 287 287 287 287 286 286 287 287 288 289 289 290 290 289 288 289 292 293 292 293 297 298 300 303 304 306 307 309 310 311 315 317 319 319 319
289 289 288 288 288 287 287 287 287 287 287 287 286 286 286 287 288 289 289 289 289 289 287 288 291 292 293 294 293 293 295 297 299 302 303 305 306 308 310 314 316 317 318
288 288 287 287 287 287 286 286 287 287 287 287 286 286 286 286 287 288 289 290 290 289 289 287 289 290 291 292 293 293 292 292 293 294 299 301 303 304 307 309 312 313 314
287 287 286 286 286 286 286 286 287 287 287 287 286 286 286 286 286 287 289 289 289 289 288 288 288 288 288 289 289 289 288 289 292 292 292 298 300 301 303 305 309 310 311
287 286 286 285 285 285 285 285 287 287 287 286 286 286 285 286 286 287 288 288 288 288 288 288 288 288 288 288 287 287 288 289 291 292 294 297 298 300 302 302 304 308 309

GFSMA_850_thetae_117.txt.gz
Theta_e
332 332 333 335 336 335 334 334 334 335 334 333 332 332 331 332 332 332 333 330 319 320 321 322 325 329 329 327 323 318 318 316 317 320 322 324 324 323 322 318 313 312 312
328 330 331 333 334 334 334 333 334 334 334 334 333 333 333 333 333 333 333 332 326 327 329 326 324 327 329 329 327 324 320 322 317 316 320 322 325 325 325 323 319 314 313
321 326 329 332 332 333 332 331 331 334 333 333 333 332 332 331 330 330 331 332 332 331 329 329 329 328 328 329 329 327 324 321 324 319 316 317 318 322 324 325 325 319 315
308 317 324 331 331 331 331 330 329 331 332 332 332 328 327 326 325 327 328 328 327 327 327 328 331 329 329 329 328 327 325 325 325 326 323 319 317 318 320 325 324 323 319
309 312 318 326 330 330 330 329 329 331 330 330 329 328 327 324 324 324 324 323 323 323 323 323 327 330 329 330 330 328 326 325 323 324 326 326 323 321 323 325 322 319 320
310 313 318 322 325 328 328 329 329 329 328 328 327 327 325 324 323 321 319 317 316 315 315 315 317 323 328 330 330 329 328 326 325 323 321 324 325 326 325 325 324 323 320
316 315 316 321 323 325 326 328 327 327 327 327 327 326 325 323 319 317 316 315 315 316 317 316 316 317 321 327 329 330 327 328 328 325 325 321 322 324 326 328 328 325 323
315 317 318 319 323 324 324 323 325 325 325 326 324 322 319 318 316 319 320 319 318 319 320 319 319 320 320 323 326 328 329 328 327 327 326 324 321 322 324 324 328 327 325
315 316 317 319 319 320 320 320 318 318 319 319 319 319 320 321 319 318 318 318 320 319 319 320 321 322 323 324 325 326 328 328 329 328 327 327 322 321 322 323 324 325 326
315 315 315 316 317 318 316 315 318 316 316 317 317 316 316 317 316 317 318 318 317 321 320 321 321 321 322 323 323 325 325 326 327 328 327 327 326 321 321 323 324 325 325
313 312 313 312 313 314 314 317 317 317 317 316 316 316 316 315 314 312 313 315 316 318 320 321 322 322 321 322 322 323 323 323 325 325 326 327 326 325 322 322 322 325 325
303 303 302 301 299 300 301 303 305 304 305 305 308 309 310 309 309 309 309 308 311 313 314 316 318 318 320 321 321 321 322 323 323 324 325 326 326 323 325 322 322 324 325
302 301 300 301 301 300 299 299 298 299 299 298 298 298 298 301 304 305 307 307 307 310 311 312 318 321 321 322 323 323 322 324 324 324 324 326 326 326 326 323 323 325 325
298 297 297 297 296 296 295 294 294 294 293 294 294 295 295 296 296 300 300 298 302 305 307 310 312 313 313 313 318 321 324 323 324 324 325 325 326 325 323 323 322 322 323
295 295 295 294 294 293 293 292 292 291 291 290 290 290 291 291 291 292 292 294 299 299 301 307 307 309 309 308 310 311 319 321 323 324 324 325 325 325 325 324 323 322 322
293 292 292 292 291 291 291 291 291 290 290 289 289 289 289 289 290 290 290 290 292 294 297 297 298 297 299 305 307 308 311 315 321 322 322 323 324 324 323 324 323 322 322
291 291 291 290 290 290 290 290 290 290 289 289 289 289 288 288 288 289 289 289 290 291 294 292 291 291 292 295 301 307 307 307 313 317 320 320 321 323 322 322 322 323 321
290 290 290 290 290 290 290 290 289 289 289 289 289 288 288 287 287 287 288 288 290 290 291 290 289 290 290 291 292 296 302 302 305 309 314 318 319 320 323 323 322 320 321
290 289 289 289 290 289 289 289 289 289 289 288 288 288 287 287 287 287 287 288 289 290 290 289 289 288 288 289 290 291 294 298 301 303 308 310 315 319 319 320 321 321 321
289 289 289 289 289 289 288 288 288 288 288 288 288 287 287 287 286 287 287 288 288 289 289 289 289 289 288 288 289 290 291 292 295 296 302 306 308 311 314 316 319 320 320
289 289 289 289 289 288 288 288 288 288 287 287 287 287 287 286 286 286 286 288 289 290 290 290 290 289 289 288 288 288 289 289 290 296 296 300 304 306 309 310 312 314 316
289 289 289 289 288 288 287 287 287 287 287 287 287 287 287 287 287 286 286 286 288 289 289 289 289 289 288 288 288 288 288 288 288 289 289 291 291 296 302 306 308 310 313
289 289 289 288 288 287 287 286 286 286 286 286 287 287 287 286 286 286 286 287 287 287 287 288 288 288 288 288 288 288 289 288 288 288 287 288 289 290 291 297 302 306 309
289 289 288 287 287 287 286 286 286 286 287 287 287 286 286 286 285 285 286 286 286 286 286 286 286 286 287 287 288 288 289 288 287 287 287 288 288 289 290 291 294 300 306
289 288 287 287 287 286 286 286 286 286 286 286 286 285 285 285 285 286 286 286 286 286 286 285 285 286 286 287 287 287 287 288 287 287 287 290 292 292 292 292 295 296 303
288 287 287 286 286 286 286 287 286 285 286 285 285 285 285 284 284 285 286 286 286 285 285 285 285 285 285 285 285 286 286 286 286 286 288 289 289 288 289 290 296 300 299

GFSMA_850_thetae_120.txt.gz
Theta_e
323 328 328 330 331 332 333 335 334 334 333 333 333 333 332 332 332 332 331 332 332 331 321 320 321 322 324 327 328 327 326 319 318 316 316 319 322 323 322 321 318 314 312
308 310 322 326 328 329 331 333 334 332 333 334 333 333 333 331 332 332 333 333 333 332 325 323 326 326 323 324 325 328 328 327 321 320 317 316 319 322 324 324 323 319 315
310 308 308 317 324 326 330 332 332 333 331 331 332 332 332 331 331 332 331 331 331 332 332 328 328 329 330 328 327 326 327 327 327 322 321 320 316 316 319 324 324 324 320
312 310 308 308 312 323 326 330 331 331 331 329 330 331 331 331 328 327 327 327 326 325 323 322 321 319 321 327 329 330 329 326 326 326 324 324 324 319 317 317 321 324 326
312 310 310 310 314 318 323 326 329 329 329 329 330 330 330 329 327 327 324 322 322 323 323 323 325 325 325 324 321 330 330 330 330 326 325 324 324 326 323 319 318 321 324
315 315 314 313 314 317 322 324 323 327 328 328 328 328 328 328 327 326 324 322 321 319 317 317 316 315 315 316 321 328 329 328 330 330 328 325 323 322 325 326 323 324 326
315 314 315 318 318 319 320 323 323 324 325 326 326 326 327 327 327 325 323 319 316 316 317 317 317 317 316 315 316 319 327 329 329 329 329 329 326 322 322 323 325 325 326
314 314 315 316 317 318 319 320 321 320 322 321 318 319 320 319 319 318 318 319 318 316 316 317 318 319 319 320 319 319 321 323 328 329 329 328 328 328 328 322 322 324 325
314 314 314 315 314 315 317 316 316 316 317 317 318 317 316 318 316 316 316 316 317 317 317 317 317 318 320 320 320 321 322 323 324 327 328 328 328 328 328 327 324 321 323
313 313 313 313 315 315 314 315 315 316 316 316 315 316 316 316 315 315 315 315 315 316 315 315 315 318 320 320 320 321 320 321 321 322 325 326 328 328 328 327 327 324 321
307 307 307 307 307 309 307 309 310 313 310 310 310 312 312 313 313 313 311 311 310 310 313 313 313 314 316 318 319 321 322 323 322 321 322 323 325 326 327 328 327 328 321
304 303 303 303 303 304 306 306 301 300 301 299 299 299 300 303 306 306 306 305 305 304 304 307 311 312 316 318 319 320 320 320 321 322 322 322 323 324 324 326 327 328 325
299 298 297 296 297 297 297 297 298 299 298 298 297 296 296 297 297 298 298 299 297 297 299 300 307 309 312 312 312 312 314 319 321 322 322 323 323 324 324 324 326 327 326
296 295 294 293 293 292 292 292 292 292 292 292 292 292 292 292 292 294 295 292 292 295 296 300 297 303 304 303 305 306 310 311 311 318 322 322 324 324 324 324 325 326 326
295 293 292 291 291 290 290 290 290 290 290 290 290 290 291 291 291 291 291 291 290 296 294 293 296 292 292 291 292 295 306 307 311 310 313 321 322 323 324 325 325 326 326
293 292 291 291 291 290 290 290 290 290 290 290 289 289 289 288 288 288 289 289 289 292 292 291 291 291 290 290 290 291 294 304 306 309 309 309 319 321 323 323 324 324 324
293 292 292 291 291 291 291 291 290 290 290 290 289 289 289 288 288 287 287 288 289 291 291 291 289 289 289 289 289 289 290 293 302 302 307 306 309 314 321 321 323 324 324
292 291 290 290 290 290 290 290 289 289 289 289 289 288 288 288 287 287 287 287 288 289 290 290 289 289 289 289 288 288 289 289 291 294 301 305 306 308 316 318 320 322 323
291 290 290 290 290 290 289 289 289 288 288 288 288 288 288 288 287 287 287 287 287 288 289 290 289 289 289 289 289 289 288 288 289 289 292 299 306 305 307 312 316 318 321
291 290 289 289 289 289 289 289 288 288 288 288 287 287 287 287 287 287 286 286 286 287 288 288 289 288 288 288 288 288 288 288 289 289 289 292 296 302 304 305 308 312 317
290 289 289 289 289 289 288 288 287 287 287 287 287 287 287 287 287 287 286 286 287 287 287 287 288 288 287 287 287 287 287 287 288 288 289 289 289 290 293 300 303 307 308
289 289 289 289 289 288 288 287 287 287 287 287 287 287 287 287 286 286 286 286 287 287 287 287 287 286 286 286 286 287 287 288 288 288 287 288 288 289 289 289 292 302 305
289 289 289 289 288 288 287 286 286 286 287 287 287 287 286 286 286 286 285 286 286 286 286 286 286 285 285 286 287 287 288 287 287 287 287 287 287 287 289 289 291 290 297
289 289 289 288 288 287 286 286 285 286 287 287 286 286 286 286 285 285 285 286 286 286 286 285 285 285 286 286 286 287 286 286 286 287 286 286 288 290 290 291 297 297 294
289 289 288 288 287 287 286 286 286 286 286 286 286 286 285 285 285 285 286 286 285 286 285 285 285 285 285 285 285 284 284 285 285 285 286 287 287 286 286 288 290 297 297
289 289 288 287 286 286 286 286 286 286 286 286 286 286 286 285 285 285 286 286 286 285 285 285 285 285 285 284 283 283 284 285 285 285 285 285 284 285 285 286 289 290 294